GFSSE_925_thetae_000.txt.gz
Theta_e
343 340 333 330 331 336 337 338 342 343 343 342 341 341 339 338 338 338 337 336 335 335 336 337 336 333 334 336 332 331 330 331 333 334 336 334 331 328 327 332 332 334 334
344 340 334 331 327 331 337 338 340 342 343 342 342 341 340 339 339 338 338 337 337 337 337 337 335 335 338 337 335 331 331 332 334 334 331 332 333 334 326 324 330 333 332
342 339 336 328 324 321 329 336 340 339 341 342 341 341 341 340 339 337 337 338 338 337 337 336 335 336 336 334 333 333 333 332 332 332 331 333 333 334 327 322 328 325 331
340 339 337 328 323 318 314 323 334 337 337 322 340 340 340 340 335 325 336 337 338 337 338 336 335 336 339 338 337 334 333 332 331 331 332 331 330 332 330 328 329 325 324
340 339 336 329 326 322 317 314 321 330 336 338 339 340 340 338 336 330 336 338 338 337 338 339 338 339 338 338 338 337 334 333 331 330 330 330 330 333 329 330 332 332 331
341 339 337 333 329 326 321 317 315 323 326 332 335 336 338 337 338 337 338 337 338 338 336 337 338 337 337 335 334 335 333 331 329 331 329 330 331 333 329 330 336 334 334
339 339 339 335 334 332 328 322 320 322 324 326 330 331 331 336 338 338 337 337 337 337 336 336 335 335 334 333 333 332 330 328 330 327 329 330 330 332 330 332 334 331 330
337 337 338 336 335 333 333 331 327 326 328 329 328 326 329 330 331 332 331 331 332 333 332 332 331 331 330 330 331 330 328 325 327 327 328 329 330 330 333 327 330 330 329
333 334 335 336 334 333 332 332 332 330 329 330 331 329 325 324 326 325 324 329 331 334 335 334 332 331 330 327 329 329 329 329 329 328 328 327 329 328 332 330 328 327 327
331 331 333 335 335 335 334 329 329 330 331 330 330 331 330 328 328 331 329 328 329 331 331 331 331 331 329 326 324 327 328 328 329 328 327 328 327 325 330 330 328 327 327
326 326 331 334 333 332 329 326 328 328 328 329 331 330 330 331 329 329 328 328 328 326 327 328 329 329 326 323 322 322 324 327 328 328 327 326 325 325 328 329 329 327 326
319 318 322 328 330 329 325 325 333 333 332 331 331 330 329 325 325 327 324 321 320 319 322 327 328 327 325 326 323 315 318 316 317 323 324 325 325 325 328 329 327 327 325
316 316 317 320 324 327 328 329 330 330 330 327 327 326 323 321 320 321 321 319 320 319 317 315 326 325 326 327 324 321 323 325 325 324 320 321 324 325 328 328 327 326 325
315 313 312 316 321 322 323 324 324 323 321 321 324 326 326 325 323 320 321 321 321 318 314 315 315 317 320 327 326 324 323 324 323 320 319 316 320 322 326 328 327 326 324
312 312 310 312 315 317 319 318 317 316 315 315 316 319 321 322 323 321 314 311 313 314 313 314 315 320 322 321 322 323 323 321 320 318 318 318 313 315 323 327 328 328 325
309 309 308 309 311 312 315 314 312 310 309 309 310 313 316 317 321 323 320 319 321 322 323 322 320 319 321 322 323 325 325 324 320 319 319 318 319 312 313 323 326 328 327
307 306 306 306 307 308 309 308 307 306 305 306 309 312 313 314 316 317 316 315 315 318 320 322 324 324 324 324 323 323 322 323 322 320 318 318 318 317 311 314 322 325 327
306 305 305 303 305 306 306 306 305 305 305 306 309 309 309 309 309 310 311 312 313 314 315 316 317 320 321 322 322 320 320 321 322 321 319 319 318 316 311 309 315 321 326
305 304 304 304 304 304 304 304 305 305 304 305 306 306 306 305 305 305 306 307 306 306 308 308 309 312 313 315 316 321 321 320 322 321 319 318 320 319 317 310 311 317 323
304 303 304 303 303 303 303 303 303 304 304 304 304 304 304 303 303 302 303 304 303 302 301 301 302 303 306 311 309 315 321 322 322 322 321 318 319 320 321 319 312 314 318
304 303 303 303 303 302 303 303 303 303 303 304 303 302 303 302 302 302 302 302 302 302 302 301 300 300 301 304 304 309 313 318 322 321 319 321 319 318 318 318 313 313 318
305 304 304 303 303 303 303 303 303 303 302 302 302 303 303 302 302 301 301 301 301 301 301 301 301 300 300 301 302 302 314 318 319 318 320 321 320 317 319 317 314 313 315
306 305 304 304 303 302 302 302 302 301 301 302 302 302 303 303 303 303 302 301 301 301 301 301 300 300 300 299 300 302 304 311 309 313 318 319 320 318 316 317 315 313 313
307 306 305 304 303 302 302 302 302 302 302 302 301 302 302 302 302 302 302 302 302 301 301 300 299 300 300 300 299 299 302 300 302 304 307 309 315 318 317 315 315 314 314
307 306 305 303 303 302 302 302 302 302 301 301 301 301 301 301 301 301 301 302 302 302 301 301 301 300 299 299 299 299 299 299 299 303 302 304 309 308 315 316 315 316 315
306 306 305 304 303 302 302 301 301 301 301 301 300 300 299 299 299 299 299 299 299 299 299 300 300 300 300 300 299 299 298 299 299 299 304 304 302 302 304 310 314 314 315

GFSSE_925_thetae_006.txt.gz
Theta_e
342 337 329 329 330 333 336 339 341 340 341 342 340 338 334 334 334 335 334 332 330 330 331 332 332 333 330 326 323 324 322 321 324 325 324 324 326 328 328 333 336 339 333
341 336 329 327 327 330 333 336 342 343 343 342 341 340 338 336 337 335 336 336 334 334 333 334 335 335 331 328 328 328 326 326 326 327 328 329 325 326 325 332 334 337 334
340 339 331 324 321 324 332 337 340 343 342 341 341 340 340 339 337 336 335 328 329 329 327 333 335 334 332 331 329 328 327 327 327 326 328 335 333 326 321 327 332 334 332
339 337 330 327 322 319 323 333 337 338 338 335 334 339 340 339 337 336 333 325 324 327 326 326 332 335 333 333 332 329 329 329 329 326 324 332 336 332 321 319 331 332 331
339 338 330 328 325 321 319 322 330 333 336 337 339 338 337 337 337 334 333 330 328 329 332 335 333 334 334 335 335 333 331 332 330 329 332 332 333 334 326 320 324 330 329
340 339 331 330 328 324 320 324 326 325 327 328 328 331 336 337 336 336 327 326 327 332 334 335 330 324 333 332 333 336 335 332 332 331 333 332 330 335 331 322 327 327 327
339 340 333 330 330 330 326 321 321 323 323 322 321 325 328 331 336 335 336 335 334 333 331 324 325 322 323 326 334 333 335 335 334 333 334 330 329 332 332 326 331 333 324
339 339 339 334 330 329 329 328 326 324 324 326 326 323 322 325 325 328 331 330 329 330 330 326 325 326 329 327 326 330 332 332 332 332 331 329 330 329 331 329 327 334 333
334 335 337 339 336 336 333 328 327 328 327 327 328 328 327 325 327 325 323 326 328 329 331 331 330 330 330 328 326 326 328 330 330 331 329 330 330 331 330 328 326 334 335
334 334 334 334 337 337 334 327 327 326 327 328 328 329 329 328 328 329 330 327 328 330 329 329 329 330 329 329 327 322 324 325 325 324 330 329 330 329 329 330 328 333 332
330 329 333 335 336 334 332 327 332 332 331 331 330 327 329 332 330 330 328 328 326 325 323 325 324 324 326 326 326 324 322 321 323 327 327 330 328 327 326 326 330 329 330
324 323 324 329 332 333 331 327 333 332 332 332 332 332 331 331 329 328 328 326 324 324 322 321 321 322 319 321 322 326 324 320 322 326 329 329 328 327 326 324 325 330 328
322 321 322 326 331 333 332 331 331 331 330 329 330 329 329 326 326 326 326 327 326 322 317 316 318 319 319 318 317 318 321 323 323 322 323 325 325 326 325 324 324 328 329
320 320 320 325 328 328 328 328 328 328 327 326 327 326 323 324 322 325 324 323 320 320 321 320 316 317 316 318 320 318 318 319 320 324 325 327 327 324 326 327 324 326 329
318 319 318 321 325 327 325 324 323 321 320 319 320 320 322 321 323 322 321 321 320 321 321 320 319 315 314 315 315 317 317 317 318 319 322 323 325 324 323 326 328 329 327
317 317 318 318 321 322 323 322 319 317 315 314 316 318 320 320 321 322 320 319 318 319 319 319 321 321 321 322 322 319 320 320 318 317 322 324 323 322 320 321 324 328 330
316 316 316 317 318 319 320 318 315 313 312 313 315 316 316 317 315 315 314 314 314 314 314 314 315 315 317 319 321 322 323 322 322 322 322 324 324 323 322 317 316 319 326
316 315 314 313 314 314 315 312 311 310 311 312 314 313 312 312 312 312 311 311 308 308 308 307 306 306 311 313 316 317 316 318 321 322 323 322 322 323 322 323 320 317 320
315 314 313 311 309 311 311 311 310 310 309 311 312 311 310 309 308 307 308 307 305 305 305 304 304 303 303 304 305 310 308 306 308 314 321 322 323 322 321 322 322 321 319
314 313 312 311 310 310 309 309 309 309 309 309 309 309 308 307 306 306 306 306 306 305 305 305 305 304 304 304 303 303 304 305 309 312 313 320 322 322 323 322 320 320 317
313 313 311 310 310 309 308 308 308 308 308 308 308 307 307 307 306 305 305 305 305 305 304 304 304 304 303 304 304 303 303 303 304 305 308 318 320 322 322 322 320 320 318
314 313 311 310 310 309 308 308 307 308 308 308 307 307 306 306 305 305 305 304 304 304 304 304 305 304 304 303 304 304 303 303 304 303 304 305 311 314 320 321 321 320 319
314 314 313 311 310 309 308 308 308 307 307 306 306 306 306 306 306 306 305 305 304 304 304 304 303 303 303 304 303 304 304 304 303 303 303 302 303 302 307 307 317 320 319
314 314 313 313 311 310 309 308 307 307 306 306 305 305 305 306 306 306 305 305 304 303 303 303 304 303 303 304 304 304 303 303 303 303 303 303 302 302 302 305 305 312 319
313 314 313 313 312 311 310 309 307 307 306 306 305 305 305 304 304 304 304 303 303 303 302 302 301 301 302 303 303 304 303 303 303 303 303 302 303 303 302 302 305 308 304
314 312 312 312 312 312 311 309 308 306 306 306 305 305 304 303 302 301 301 300 299 299 299 298 298 298 298 299 299 300 301 301 301 301 301 301 301 302 302 301 301 302 302

GFSSE_925_thetae_009.txt.gz
Theta_e
336 329 327 330 334 337 339 342 342 342 342 340 339 336 333 331 331 331 328 326 326 326 325 328 330 332 333 329 327 326 323 321 324 327 330 329 328 328 331 337 339 337 331
339 327 326 325 330 334 338 340 343 342 342 341 340 338 335 335 335 334 333 334 334 327 328 330 330 333 333 332 328 327 326 325 323 319 322 327 325 325 322 335 337 337 333
337 330 325 321 322 329 334 337 341 339 338 340 341 340 338 337 337 335 335 334 327 326 327 328 332 334 334 333 330 328 328 326 325 322 321 324 332 325 320 330 335 336 332
336 331 327 322 317 317 326 333 336 337 337 335 338 339 340 339 337 336 335 332 324 324 325 328 328 330 326 329 332 330 329 328 327 327 325 327 336 327 321 324 332 334 331
337 329 328 325 320 318 323 328 329 330 331 336 337 337 337 337 337 333 331 329 327 328 330 329 330 328 326 330 330 332 331 330 329 328 328 331 334 336 327 320 328 332 331
338 330 329 327 323 320 319 320 321 321 320 320 323 332 336 336 336 335 329 331 327 328 332 332 334 330 327 326 321 321 332 333 330 328 330 332 333 333 330 321 321 331 331
338 332 329 328 327 327 325 322 320 318 318 321 323 323 324 328 334 334 334 327 332 333 332 332 322 330 324 324 324 326 331 334 333 332 330 334 333 330 332 332 323 325 328
338 337 335 333 333 331 327 326 326 325 324 325 327 325 324 327 330 333 333 333 331 329 327 323 324 324 325 323 326 328 330 332 334 333 331 332 330 330 329 331 325 330 326
338 339 338 336 336 334 332 325 325 326 327 326 327 328 327 327 327 326 328 330 330 329 328 329 330 330 329 328 327 327 329 330 331 330 331 330 330 330 329 329 327 330 328
334 334 336 337 336 333 332 326 330 326 326 327 327 329 328 328 329 329 329 327 328 329 330 330 330 330 329 328 328 326 326 327 327 328 328 329 331 331 330 330 327 326 332
327 328 330 334 334 333 332 328 332 331 330 330 330 327 328 331 328 328 328 326 324 323 325 326 326 327 327 326 325 325 324 323 323 324 325 327 330 329 329 328 327 326 333
322 322 323 322 329 330 332 328 332 331 331 331 331 329 330 330 328 326 326 327 325 324 323 320 322 321 324 324 323 324 325 324 319 321 323 328 328 329 327 327 326 325 330
321 321 320 324 328 332 331 331 331 330 330 329 329 329 330 329 327 327 325 325 326 324 320 317 317 318 318 318 318 318 319 322 320 321 322 325 328 328 328 327 326 324 326
321 320 319 321 326 329 328 331 329 329 328 328 328 326 321 322 322 325 325 323 321 318 316 317 316 315 313 312 315 318 318 320 319 321 321 322 324 325 327 328 329 325 324
318 319 319 319 325 326 325 325 325 325 324 323 321 323 322 323 322 321 322 319 320 321 320 321 321 320 319 320 320 319 316 317 317 317 319 319 320 321 323 326 327 329 329
316 318 318 318 320 323 324 323 322 319 319 318 317 317 320 321 322 322 321 320 318 317 316 315 316 317 318 319 321 321 321 322 322 322 320 319 320 320 323 323 322 327 328
316 316 317 317 319 320 322 322 319 316 313 313 314 315 317 318 319 316 317 314 314 312 312 309 307 305 308 311 313 315 317 318 318 320 322 322 322 321 323 323 322 321 324
316 315 316 315 316 317 319 316 313 313 311 311 313 313 311 314 313 312 312 311 311 307 307 305 304 303 303 303 303 304 310 305 305 305 307 316 322 322 322 321 322 322 321
316 314 314 313 311 313 313 313 311 311 310 311 312 313 311 308 308 309 309 308 305 305 305 304 304 304 303 304 303 304 303 302 302 303 305 312 312 318 322 322 322 321 322
315 314 312 312 311 309 311 310 310 310 309 309 312 312 310 308 306 306 307 306 305 305 305 305 304 304 303 303 303 303 303 303 303 303 304 305 308 313 316 321 322 322 321
314 313 312 311 310 310 309 308 308 309 309 309 309 308 310 308 307 306 305 306 305 305 304 305 304 304 304 303 303 303 302 302 303 302 303 302 303 302 311 316 320 322 322
313 313 312 312 310 310 309 308 308 307 307 307 308 308 308 307 307 306 305 305 304 304 303 303 304 304 304 303 304 302 300 302 302 303 302 302 302 303 302 302 303 313 319
314 314 313 312 311 310 309 309 308 307 307 308 307 308 307 306 306 305 305 305 304 304 304 304 304 303 303 304 302 303 302 302 302 303 303 303 302 302 302 302 302 304 305
314 314 314 313 312 312 310 309 308 308 307 307 307 306 306 306 306 306 306 306 305 304 303 304 304 302 301 302 302 302 302 303 303 302 302 302 302 302 302 302 302 302 305
313 313 314 314 313 313 312 311 309 308 308 307 307 306 306 305 306 306 306 304 303 303 303 301 300 300 298 298 299 299 299 300 300 300 300 300 300 300 301 301 301 301 301
314 313 312 312 312 312 312 312 311 310 308 307 306 306 305 304 304 303 303 302 301 299 297 296 296 295 295 294 294 296 297 298 298 298 298 298 298 298 298 297 298 298 299

GFSSE_925_thetae_012.txt.gz
Theta_e
331 330 330 333 334 338 341 341 341 341 340 338 335 332 333 333 331 332 330 329 328 327 327 326 326 327 330 331 328 326 325 326 326 326 328 326 326 329 332 333 335 336 335
328 326 326 329 334 336 339 341 341 341 340 339 338 335 332 333 333 330 328 328 330 328 329 329 330 329 328 330 329 330 328 328 327 326 328 328 328 329 332 338 338 332 331
331 324 321 324 328 333 337 340 338 339 340 339 339 338 335 334 334 334 334 333 329 326 329 329 333 333 333 332 329 328 328 328 327 327 330 329 328 327 327 336 337 335 332
334 327 321 318 322 329 332 334 337 336 333 333 337 339 338 337 336 335 335 333 328 325 328 326 327 329 333 333 331 330 330 329 328 326 325 328 335 328 324 328 333 334 332
332 327 323 319 317 319 323 327 329 332 335 336 337 337 339 338 337 336 335 332 329 329 329 329 329 330 327 327 325 323 322 330 329 329 327 326 331 334 332 320 331 334 331
332 328 325 322 319 317 317 318 320 320 320 324 333 336 336 336 336 336 334 330 331 328 330 332 332 332 327 326 323 323 321 328 332 331 329 328 332 333 335 324 321 330 332
329 328 326 325 324 323 321 320 320 321 321 321 321 322 328 333 334 334 334 329 331 332 332 332 329 330 327 325 324 323 322 327 332 334 331 331 333 334 334 327 321 325 331
332 332 332 332 331 329 326 325 325 324 325 325 325 324 322 322 326 328 331 332 331 330 327 324 323 325 327 324 323 324 326 328 330 332 332 333 332 331 332 331 328 322 326
337 335 332 334 333 332 327 323 323 325 326 326 327 327 326 326 326 324 324 325 327 326 326 326 327 325 328 327 328 327 327 328 330 332 332 331 331 329 330 331 329 326 327
338 338 335 335 333 331 326 329 326 325 326 327 327 327 327 328 328 328 327 326 326 327 329 329 329 330 329 328 328 327 324 325 327 327 327 327 327 329 330 330 329 327 330
336 335 335 335 334 332 327 331 330 329 329 329 327 327 328 329 328 327 327 327 326 326 326 328 328 328 328 327 326 325 325 323 323 321 322 324 328 330 330 330 329 328 326
327 326 325 326 333 332 331 330 331 330 329 329 329 329 329 329 328 326 325 325 324 323 322 322 322 322 324 324 322 322 324 325 324 321 321 323 326 328 328 328 328 327 326
322 322 320 319 323 331 329 329 331 330 328 330 330 329 330 330 327 326 326 325 325 324 320 318 316 316 318 318 318 318 318 320 319 319 321 322 325 327 328 329 328 327 326
321 320 319 318 329 328 330 332 331 329 330 329 328 328 326 326 325 323 325 323 323 318 317 316 317 318 317 316 318 318 317 316 317 319 319 319 320 321 324 326 327 328 326
320 319 319 318 321 327 326 330 329 328 328 328 326 324 323 322 322 321 322 319 317 318 319 319 318 318 316 317 318 319 320 321 321 320 318 320 319 319 319 323 325 327 328
318 318 318 318 316 323 324 324 323 322 322 321 320 319 321 321 321 321 321 320 320 317 316 312 310 309 310 313 314 314 316 317 318 318 318 320 321 321 320 320 321 325 326
316 317 317 317 316 317 320 322 322 320 318 317 316 315 314 319 320 321 320 319 317 315 311 308 305 303 303 303 303 304 305 309 305 304 304 304 309 319 321 322 320 322 322
316 317 317 316 316 317 316 319 317 313 313 311 311 311 312 313 315 316 314 314 312 308 308 305 303 303 303 303 303 303 303 303 303 302 303 303 304 312 312 311 320 321 320
315 316 316 315 314 316 314 315 314 312 312 311 310 311 312 311 311 311 311 311 310 305 305 304 304 303 303 303 303 303 303 303 302 302 303 303 304 307 307 312 314 318 320
315 315 314 313 311 310 310 311 311 311 310 310 310 311 311 312 309 306 308 308 306 305 304 304 304 303 304 303 303 302 303 302 302 302 301 303 302 302 302 304 303 313 320
313 313 313 312 311 310 310 310 310 309 309 309 309 308 311 311 309 307 305 306 306 305 304 305 304 304 304 303 302 303 303 302 302 301 303 303 301 302 302 302 302 302 305
313 313 313 312 312 311 310 310 309 309 308 308 307 308 310 309 309 308 306 305 305 305 305 304 303 304 303 302 303 301 299 301 300 302 301 302 302 302 302 302 302 302 303
313 313 314 313 313 312 312 310 309 308 308 307 307 307 307 308 309 308 307 306 305 304 304 304 304 303 303 303 302 302 300 299 301 300 301 301 301 301 301 301 301 301 301
314 313 313 313 313 312 311 310 309 309 307 308 307 307 307 307 308 307 306 305 305 304 304 304 303 302 301 300 299 300 299 300 299 299 299 299 298 298 299 298 299 301 300
313 313 313 313 313 313 312 312 311 309 309 309 308 307 307 306 306 306 306 305 305 305 304 301 299 296 294 294 294 294 293 294 296 297 296 295 296 296 297 298 298 298 297
313 312 312 312 312 312 312 312 311 311 311 309 309 308 307 305 305 306 305 306 302 299 298 298 297 295 295 296 297 296 294 295 295 295 295 294 294 295 295 295 295 296 297

GFSSE_925_thetae_015.txt.gz
Theta_e
329 331 336 337 338 340 340 339 340 339 338 334 333 332 334 337 336 336 336 335 333 330 329 330 331 332 331 328 324 322 322 322 324 325 327 325 328 330 330 331 335 336 337
327 330 333 335 337 339 339 339 339 339 338 337 334 332 332 330 333 334 334 333 332 330 329 330 332 335 334 328 326 325 324 323 323 322 323 327 327 329 330 332 335 334 334
325 326 328 332 334 337 338 338 339 339 339 339 337 335 334 333 332 331 330 331 329 327 329 329 329 332 331 331 328 327 327 326 325 324 322 325 327 326 326 333 335 332 331
325 321 322 326 330 333 335 337 335 335 335 336 338 338 336 335 335 335 334 332 329 328 326 325 327 332 333 332 329 328 328 328 328 326 325 325 330 330 326 326 335 333 332
329 324 319 318 322 326 329 332 333 334 335 335 336 337 338 337 336 335 335 334 333 330 330 329 329 329 330 332 331 330 328 329 329 331 330 328 329 333 329 326 328 328 333
328 325 321 319 318 318 318 318 318 318 321 328 334 335 336 337 336 336 333 332 330 329 330 332 331 332 327 327 326 323 323 322 329 330 330 332 330 331 333 333 325 328 332
327 325 324 323 322 322 321 321 319 318 319 320 321 323 329 333 334 334 333 330 328 330 332 332 331 330 327 326 326 324 324 322 326 330 330 331 330 332 332 332 327 325 328
327 328 328 328 328 326 324 323 323 324 324 325 324 322 321 323 326 327 329 330 330 329 327 325 322 322 327 327 325 324 324 325 327 329 329 330 332 332 331 331 330 324 327
334 333 334 333 331 329 326 323 324 324 325 326 325 326 325 324 322 322 323 324 325 326 327 327 326 323 324 326 327 328 328 328 327 327 328 329 330 331 330 330 330 327 325
335 334 334 334 332 330 325 326 325 325 325 326 326 327 327 326 327 327 326 326 327 328 328 329 329 329 329 328 327 327 326 325 325 326 325 325 328 329 329 329 330 330 327
336 336 335 335 333 331 327 329 328 327 327 327 326 327 327 328 327 326 326 326 325 325 326 327 327 328 328 327 326 325 325 325 324 323 322 321 323 325 328 329 330 329 328
337 336 335 335 334 332 330 329 330 329 329 329 327 328 328 329 327 325 324 324 325 324 322 322 321 320 321 322 322 320 320 322 323 321 319 320 322 326 328 329 328 329 328
334 330 327 325 327 330 330 329 330 330 330 329 329 328 328 329 328 326 326 325 322 323 322 318 317 314 315 316 317 317 317 317 318 318 318 319 318 320 325 328 328 328 327
325 323 321 322 328 329 329 329 329 330 329 329 328 328 328 328 327 326 324 324 321 320 315 314 316 316 316 316 316 317 317 319 319 319 318 318 319 320 319 320 326 328 327
322 321 319 319 323 325 327 330 331 329 329 328 328 326 325 322 321 320 322 323 319 316 317 317 316 316 315 314 314 314 315 317 318 318 318 319 318 319 320 321 321 324 326
321 320 319 318 317 321 325 327 327 327 327 327 325 323 322 321 322 321 320 320 318 319 317 313 308 306 304 306 305 305 306 313 308 304 304 306 310 314 315 315 320 322 323
319 319 318 318 317 318 321 323 322 321 320 319 318 318 317 316 319 321 321 321 320 317 314 310 306 303 302 302 302 302 303 303 302 302 302 303 303 303 306 312 310 313 321
319 317 318 317 316 316 316 316 317 318 316 315 313 311 311 311 313 317 318 319 317 314 311 307 304 303 303 303 303 303 302 303 303 302 302 303 303 305 304 305 308 311 313
315 317 317 316 316 315 316 315 315 314 312 312 311 311 310 311 311 311 312 313 312 311 307 305 304 304 303 303 303 303 302 302 302 301 302 301 303 302 302 304 303 302 303
314 316 316 315 314 314 315 312 312 312 312 311 310 310 310 311 312 311 308 309 310 309 305 304 304 304 303 303 303 303 302 302 301 302 300 302 300 299 301 302 302 302 302
314 315 315 313 313 312 311 310 310 310 310 310 309 309 309 309 311 311 309 307 308 307 305 304 304 304 303 303 303 302 302 302 301 299 300 298 300 300 301 301 300 302 302
314 314 313 313 312 311 310 310 310 310 309 309 309 308 309 308 308 310 310 307 306 306 305 304 304 304 304 303 302 301 298 300 301 300 297 300 298 300 301 300 300 300 300
312 313 313 312 312 311 311 310 310 309 308 308 308 308 308 307 307 309 309 308 306 305 306 305 304 304 303 302 302 301 298 298 298 298 297 297 298 297 296 298 297 295 298
313 313 312 313 312 312 310 310 309 309 307 310 310 310 309 308 307 308 308 309 308 305 305 305 304 303 302 302 300 301 297 298 295 293 295 295 294 294 294 294 296 294 296
312 313 312 312 312 312 311 311 311 310 310 310 309 309 309 308 306 306 307 308 307 305 304 303 302 300 296 295 294 294 295 295 294 295 292 292 293 293 293 294 295 295 296
311 311 311 312 312 311 311 310 309 309 309 308 309 309 309 308 307 305 305 306 305 304 301 296 295 296 297 297 296 297 295 294 293 293 292 292 293 293 293 294 294 295 295

GFSSE_925_thetae_018.txt.gz
Theta_e
331 335 337 339 341 340 339 340 339 336 334 330 337 338 339 340 338 336 336 334 334 335 334 332 332 332 331 327 329 330 329 326 325 325 325 325 326 326 327 328 332 335 336
329 334 337 338 340 339 340 340 339 338 336 333 331 333 337 337 336 335 334 333 332 330 331 330 329 330 331 327 324 323 323 323 322 322 322 323 328 327 327 327 328 333 334
327 330 333 335 338 338 339 339 339 339 338 336 334 332 331 331 332 331 331 330 329 328 328 329 329 330 330 330 327 326 325 325 324 324 324 326 326 330 327 328 333 331 331
323 325 330 333 335 337 336 335 337 337 337 338 338 336 335 334 334 333 332 330 327 330 329 327 326 328 331 332 330 328 328 327 327 327 328 326 328 327 328 328 335 332 331
324 320 323 325 329 329 330 331 333 333 333 332 334 337 337 336 336 335 334 333 332 332 332 329 328 328 329 332 331 330 329 329 329 330 329 330 330 334 329 326 327 332 332
325 321 319 318 318 319 318 317 317 319 322 328 333 336 337 337 336 334 333 333 330 329 329 329 328 329 329 328 328 327 323 323 321 329 330 330 328 329 331 332 331 328 326
325 321 321 321 321 321 321 320 319 319 319 319 320 324 330 333 334 334 333 331 329 330 331 333 331 330 329 328 327 324 324 322 324 328 330 330 330 329 331 332 331 328 327
324 325 324 325 324 324 323 323 323 323 324 324 324 322 322 323 324 326 327 328 329 328 326 325 323 323 326 327 325 324 326 325 327 328 328 329 328 328 332 332 331 330 325
329 330 331 330 329 327 325 323 323 324 325 326 326 326 325 324 324 324 326 326 326 326 326 327 327 325 327 328 327 327 327 326 326 326 326 325 326 328 330 330 330 331 328
331 332 333 332 331 329 325 326 325 325 325 326 326 326 326 326 326 326 326 326 326 327 327 328 328 329 328 328 327 326 325 325 324 323 322 321 321 324 327 329 329 329 330
333 333 333 333 332 331 327 328 327 327 326 327 326 325 326 327 326 324 323 325 325 324 324 325 325 325 325 325 324 321 319 322 323 323 322 320 321 324 329 330 329 330 329
335 335 334 334 333 332 330 328 329 328 328 328 327 326 327 327 327 324 322 322 323 324 324 322 322 321 320 319 319 320 319 317 317 318 319 318 319 321 325 327 328 329 329
335 335 333 331 328 328 331 330 328 329 329 329 328 328 327 327 328 326 325 325 323 320 321 319 316 315 313 313 313 314 314 315 317 318 319 319 319 319 320 322 326 327 327
334 333 328 322 318 320 326 329 329 329 329 329 328 328 327 327 328 327 326 322 322 320 317 314 314 315 315 315 314 314 313 315 316 317 318 316 316 316 318 320 321 322 325
332 329 322 319 319 324 328 327 328 328 329 328 328 327 326 326 324 321 320 319 321 319 315 316 315 312 311 309 308 309 310 313 313 310 310 308 305 306 310 315 319 323 324
329 325 321 319 322 325 323 324 327 329 329 328 328 327 325 323 321 321 321 320 320 318 318 315 311 306 303 303 302 302 302 306 303 303 302 302 302 303 305 309 312 315 319
327 323 320 319 321 321 320 321 323 324 323 323 323 322 320 318 316 317 320 320 320 319 318 315 311 305 302 302 302 302 302 302 302 302 302 302 303 303 303 305 305 307 310
325 321 319 318 318 317 317 317 318 319 319 318 317 316 314 312 311 311 313 315 318 319 317 313 309 304 303 303 303 303 302 302 302 302 301 301 301 302 301 302 303 302 303
322 319 318 318 317 316 315 316 316 316 316 313 312 312 311 311 311 311 310 310 313 315 314 311 307 304 303 303 303 303 302 302 302 301 301 300 301 299 299 300 301 301 301
317 318 317 317 316 315 315 315 314 313 313 311 311 310 310 310 310 311 311 310 310 311 310 309 306 304 304 303 303 303 302 302 302 301 299 301 298 298 298 300 300 298 301
314 314 316 316 315 314 314 314 311 311 311 310 310 310 309 309 309 310 311 311 310 309 308 308 306 304 304 303 303 303 303 302 301 301 300 297 299 297 299 299 298 295 297
313 315 315 314 313 312 313 312 310 309 309 309 310 310 309 309 308 308 309 310 310 308 308 308 305 304 303 303 303 300 299 300 301 301 300 298 297 298 298 295 295 295 292
314 314 314 313 312 310 309 308 308 308 308 308 309 309 310 308 307 307 307 307 308 309 307 307 306 304 303 303 302 302 298 299 296 298 298 296 296 295 294 294 292 292 292
311 311 311 310 310 310 309 309 309 309 308 309 309 309 309 309 309 308 307 306 307 308 307 306 305 304 303 302 301 301 300 298 294 293 294 295 294 293 292 292 292 292 292
309 309 310 310 310 310 309 309 308 308 308 307 307 306 307 307 307 306 306 305 304 307 306 304 304 303 302 301 297 298 294 295 295 293 293 292 293 292 293 292 292 293 293
310 310 311 311 310 310 309 308 307 306 305 304 304 304 305 305 305 305 305 304 303 304 303 301 299 297 296 296 295 296 295 294 293 293 292 292 292 293 292 292 293 293 292

GFSSE_925_thetae_021.txt.gz
Theta_e
333 336 337 339 340 341 340 338 336 333 338 339 338 336 335 337 336 334 334 333 333 334 335 333 333 333 331 328 332 332 331 330 326 325 325 326 329 329 331 333 333 338 335
330 336 336 339 340 339 340 339 338 335 331 335 338 339 339 339 336 335 334 333 333 333 330 328 329 328 328 328 324 324 326 325 324 325 325 327 327 328 330 331 333 336 335
328 331 335 337 337 338 338 339 338 337 335 331 331 334 336 336 335 334 333 332 330 328 327 327 327 329 330 330 328 326 326 326 326 325 325 332 333 329 328 330 333 332 333
325 328 330 334 336 336 336 338 338 337 337 336 334 332 332 331 330 330 330 329 327 328 331 331 328 328 331 332 331 330 328 328 327 327 331 329 332 329 328 328 334 332 331
321 322 327 331 332 333 332 333 334 333 333 334 337 337 336 335 334 334 333 331 330 331 332 330 330 329 329 332 331 330 329 327 327 330 331 332 330 332 331 326 327 332 332
321 319 321 323 323 320 320 320 320 323 328 333 336 337 337 337 336 335 334 332 330 330 330 330 330 330 330 329 328 328 324 323 322 328 330 331 331 329 330 331 331 329 327
322 320 320 320 321 321 320 320 320 320 320 319 322 328 333 334 334 333 333 329 330 330 331 333 331 329 330 328 327 325 324 324 326 331 331 330 330 329 328 331 331 330 327
322 322 322 323 323 323 322 322 323 324 324 324 323 322 321 322 323 325 326 328 328 326 325 324 323 323 323 325 326 325 327 326 327 328 328 326 327 327 330 331 331 331 329
324 325 326 326 327 325 324 323 324 323 323 324 325 325 324 324 324 324 324 324 324 325 325 326 327 326 327 327 327 326 326 325 325 324 323 323 323 326 331 330 330 330 330
328 329 330 330 329 328 325 326 325 325 325 325 325 325 325 325 325 326 325 325 325 326 326 327 327 328 327 327 326 325 324 324 323 323 323 322 320 321 327 331 328 328 329
330 332 332 331 330 330 327 327 326 326 326 326 326 325 324 325 326 324 322 323 323 323 323 323 323 323 322 323 322 322 321 320 321 321 321 320 320 321 322 327 329 329 329
333 332 333 333 332 331 329 327 327 327 327 327 327 326 326 326 326 325 323 322 322 321 322 322 321 320 317 316 316 317 317 317 318 319 320 319 319 319 322 325 327 328 329
334 334 333 333 331 327 327 329 327 328 328 328 327 327 327 326 327 327 325 325 324 322 319 318 314 314 314 313 312 313 314 314 317 319 319 318 318 319 319 323 323 325 327
333 334 334 331 325 320 320 325 328 328 328 329 328 327 327 326 326 326 326 323 320 320 319 315 314 314 314 314 313 312 312 313 318 316 314 312 312 313 317 318 320 324 323
333 333 333 327 320 319 323 325 327 328 328 329 328 327 327 326 325 323 322 320 319 320 318 315 316 313 309 307 306 307 307 311 310 308 306 303 303 304 307 312 316 319 321
332 332 331 323 319 320 321 322 324 326 328 329 327 327 327 325 323 321 320 320 319 319 318 318 316 312 307 303 302 302 302 305 303 302 302 304 303 303 303 308 309 311 313
330 331 329 322 319 318 319 321 322 323 324 323 322 323 323 322 319 316 315 315 315 317 319 319 317 313 307 303 302 302 302 302 302 302 302 302 303 302 302 304 304 303 304
329 328 326 321 318 318 318 318 318 318 318 317 317 316 315 315 313 312 312 311 311 314 318 318 316 312 307 303 303 304 303 302 302 302 301 301 301 301 301 301 302 302 302
324 324 324 320 318 318 317 316 315 315 314 313 313 312 311 311 311 311 310 310 310 311 313 314 314 312 307 305 304 303 303 302 302 302 301 301 301 300 300 298 299 300 300
319 322 322 319 317 317 316 315 315 314 312 311 311 310 310 310 310 310 310 310 310 311 311 312 312 310 307 305 304 304 304 303 302 302 302 301 301 299 299 299 299 299 296
315 318 318 317 316 316 315 314 313 311 310 309 309 309 308 308 308 308 309 309 310 311 310 310 310 309 307 305 304 305 305 304 303 303 303 302 299 299 299 301 299 299 298
313 314 314 314 313 311 310 311 310 308 308 308 309 310 310 309 309 308 307 307 308 310 310 310 309 308 306 306 305 306 307 306 303 303 302 301 302 300 300 297 296 296 296
309 309 310 309 308 308 308 309 309 309 309 309 309 309 308 308 307 307 307 307 307 307 308 308 309 308 308 306 305 305 308 308 306 302 302 301 300 300 297 295 295 295 295
308 309 309 310 309 309 308 308 307 308 308 307 306 306 305 305 305 305 305 306 306 307 307 307 307 307 306 307 304 303 303 303 306 307 300 299 298 296 295 295 295 295 294
309 309 309 309 309 309 307 306 307 306 305 305 305 304 304 303 303 304 304 304 304 305 306 305 306 304 305 304 305 304 302 300 298 301 304 301 295 295 295 295 295 295 295
309 309 309 309 308 307 306 306 306 304 304 304 304 303 302 302 303 303 303 302 302 302 302 301 300 300 300 300 299 298 299 301 299 298 298 298 298 298 295 294 294 294 294

GFSSE_925_thetae_027.txt.gz
Theta_e
343 341 338 339 340 339 337 333 336 339 340 339 337 335 335 334 334 334 333 333 334 336 335 333 331 331 330 328 332 332 331 328 324 323 322 321 325 328 329 332 338 339 335
340 341 339 339 339 339 338 334 333 339 339 337 335 335 335 335 335 334 334 334 334 334 334 332 334 335 332 330 326 325 325 324 323 322 321 331 325 322 329 328 335 336 335
340 340 340 339 340 339 338 337 334 333 337 338 338 338 337 336 336 335 334 334 331 330 330 331 334 334 336 332 330 328 326 325 325 324 323 331 336 329 325 328 329 332 333
338 339 340 337 339 339 338 338 337 335 332 332 335 336 336 335 335 334 333 331 328 328 330 333 334 331 330 332 332 330 329 328 327 327 331 335 333 333 324 326 330 330 332
334 338 336 335 335 335 335 334 334 335 336 335 334 332 332 331 331 331 331 330 330 330 332 333 332 331 330 330 332 331 330 329 328 328 331 333 334 332 329 327 328 328 329
333 334 330 330 328 326 325 325 326 328 330 333 335 336 336 336 336 336 335 333 331 331 331 332 330 331 330 329 329 330 330 330 329 330 332 332 332 332 331 331 327 331 330
327 328 329 321 320 319 320 321 321 321 322 325 329 330 331 331 331 330 330 330 329 329 329 329 329 327 327 328 328 327 327 326 326 330 330 331 332 332 331 328 329 330 330
326 327 325 321 322 322 323 323 324 324 324 324 324 324 324 324 323 323 324 325 325 324 323 323 323 323 323 324 324 325 325 325 328 328 327 329 330 329 331 329 328 329 330
326 327 328 329 326 323 324 325 325 324 325 325 325 324 324 324 324 324 325 325 325 325 325 325 326 326 327 327 326 326 326 325 325 327 327 328 328 324 328 328 328 328 330
327 328 330 330 331 332 331 325 324 324 326 325 324 323 324 327 327 326 329 323 323 322 322 323 325 325 325 324 323 323 322 322 326 324 325 327 326 321 328 324 325 327 328
329 330 331 331 331 330 329 328 328 326 326 330 329 326 330 331 329 330 326 321 320 320 320 320 321 321 320 319 319 317 315 321 321 321 324 325 325 322 326 324 322 324 328
330 331 331 332 333 331 326 328 329 328 330 330 330 330 329 329 328 325 327 326 325 326 322 321 319 316 317 320 319 318 320 320 319 319 321 321 320 318 321 324 323 326 328
329 329 330 334 333 331 328 326 327 327 327 329 331 330 329 328 329 328 328 329 329 327 325 324 322 321 319 319 318 318 318 318 317 317 319 319 315 317 319 321 322 324 326
329 328 330 332 332 330 326 325 325 325 327 327 329 330 328 327 326 326 325 324 323 323 323 322 321 321 322 321 319 318 317 317 315 316 317 316 311 312 314 320 322 322 324
327 327 330 333 335 327 326 326 326 327 327 328 328 328 327 325 325 324 324 322 322 321 320 320 320 319 320 319 317 316 315 314 315 315 313 312 309 306 308 315 318 320 320
326 327 329 333 335 326 325 326 325 327 326 327 325 325 325 325 323 323 321 320 319 318 318 318 318 318 318 316 316 314 313 311 311 313 311 310 308 302 304 308 312 314 315
326 327 330 334 334 329 326 326 323 323 322 322 321 322 323 323 321 321 320 319 318 318 318 318 319 318 318 317 315 314 311 311 311 312 310 309 311 306 303 304 304 305 307
326 327 329 331 331 331 325 324 322 322 321 320 319 319 320 320 321 320 319 318 318 319 318 318 318 318 317 316 316 314 312 311 311 311 310 309 309 309 307 303 303 303 303
327 328 329 330 332 330 326 324 323 322 321 320 319 319 318 318 318 318 318 318 318 318 318 318 317 317 317 317 316 314 313 312 311 310 310 310 309 308 309 308 306 302 302
325 327 328 329 331 329 326 323 321 320 319 318 317 316 316 316 316 316 316 317 317 317 317 317 318 317 317 317 316 315 314 312 311 311 310 310 309 309 309 308 306 302 299
322 324 326 328 326 324 323 321 319 318 317 316 315 315 316 316 315 315 314 314 314 314 315 315 316 317 318 317 317 317 316 314 313 311 311 310 310 309 309 308 307 306 304
319 320 320 319 318 317 316 316 316 316 316 316 316 315 314 314 313 312 311 311 311 311 312 312 314 315 316 316 316 316 319 316 315 313 312 312 311 310 309 308 307 307 306
318 318 317 317 316 316 316 316 315 315 315 315 315 315 314 313 311 310 309 309 309 309 309 310 311 312 313 313 314 315 317 318 316 314 314 312 311 311 309 308 307 307 305
318 317 317 316 316 315 315 315 316 316 316 316 315 313 312 311 309 308 307 307 307 308 308 308 308 310 310 311 311 311 312 314 316 317 313 312 311 311 310 309 307 306 304
317 317 316 315 315 314 314 314 314 314 312 311 311 310 308 306 306 305 305 305 306 306 306 307 307 307 308 308 308 309 308 308 309 308 312 313 311 310 309 308 308 306 303
317 317 316 315 315 314 313 312 312 311 309 308 308 307 306 306 305 304 304 304 305 305 306 305 305 304 304 303 304 303 301 301 303 300 302 306 305 308 307 306 304 304 302

GFSSE_925_thetae_030.txt.gz
Theta_e
342 339 338 340 339 336 333 335 338 339 339 338 335 334 334 335 334 334 333 333 335 335 335 335 335 334 331 328 327 327 326 324 322 321 320 323 323 322 325 335 340 337 335
342 338 339 340 339 337 334 333 338 338 336 336 335 334 335 335 334 334 334 334 334 334 332 332 333 335 333 331 329 326 325 324 323 323 322 331 331 324 325 327 336 332 335
341 341 339 338 338 338 337 334 333 337 338 337 337 337 337 336 335 334 334 333 331 330 331 334 333 332 331 331 331 330 328 326 325 325 325 327 335 330 323 323 327 332 334
342 340 338 337 337 337 337 336 334 332 333 336 337 337 336 335 335 334 332 330 328 328 330 336 332 332 330 330 331 331 330 329 329 329 328 332 335 332 325 323 326 330 331
341 336 335 336 336 335 335 335 336 336 335 333 332 332 332 331 332 332 332 333 332 331 331 334 331 330 329 329 329 329 330 330 329 329 330 332 333 332 331 327 331 329 329
337 334 332 329 328 327 324 324 325 328 331 333 335 336 336 336 336 335 334 332 330 329 329 331 330 331 330 329 329 328 328 328 328 329 330 331 331 332 332 331 327 332 331
333 327 322 319 319 319 320 321 321 321 323 326 329 330 329 328 327 326 326 326 326 326 325 324 323 322 321 321 322 324 325 326 326 326 330 331 329 331 331 329 328 329 329
328 322 319 320 321 322 322 323 323 324 323 323 323 322 322 322 322 323 323 323 323 323 323 323 324 324 324 325 325 325 325 324 323 329 329 330 330 329 328 328 328 328 328
326 326 327 323 322 322 322 323 323 323 323 323 323 323 322 322 322 323 324 323 323 323 322 322 324 325 325 325 324 322 321 320 319 326 328 327 327 326 325 325 327 328 327
327 328 330 330 332 332 327 321 321 323 322 323 322 322 328 329 328 328 329 324 318 317 318 319 320 320 319 318 317 315 312 311 324 325 324 326 325 325 323 321 321 324 326
328 330 330 331 331 332 332 327 327 322 328 329 329 328 331 332 331 331 328 325 323 323 323 317 319 315 313 316 320 318 317 316 321 321 323 324 325 324 323 322 322 321 322
330 330 332 331 331 329 326 328 330 328 331 332 331 330 331 327 328 326 328 327 327 327 325 324 323 321 320 321 321 319 319 320 320 316 320 319 319 317 313 319 321 322 324
330 330 331 332 331 331 326 326 329 328 329 331 330 330 329 327 329 327 328 328 326 326 325 325 323 323 322 321 319 320 318 318 318 317 318 318 318 317 311 316 320 322 324
329 329 331 331 331 329 327 326 326 326 328 327 331 330 328 327 326 326 324 324 323 322 322 321 321 321 321 322 322 320 318 317 317 316 317 317 316 314 309 313 321 322 322
329 328 330 331 331 328 324 326 326 326 328 329 328 327 328 325 325 324 323 322 321 320 319 319 319 318 319 319 320 318 316 315 314 314 315 314 312 311 307 309 320 321 322
327 327 330 333 335 327 325 327 325 327 326 327 325 326 324 325 324 323 322 321 320 319 318 318 318 319 319 319 318 317 316 314 313 311 314 313 311 310 306 304 316 318 318
326 327 328 332 335 329 326 326 324 324 322 322 322 322 322 323 322 321 321 320 319 319 318 318 319 318 318 318 318 318 316 314 312 311 310 312 310 310 309 303 305 307 310
326 327 329 331 334 333 329 325 323 322 322 321 320 320 320 321 320 320 320 319 319 318 318 319 319 319 319 318 318 317 317 315 313 311 311 312 310 310 310 309 304 303 304
327 328 329 330 332 332 330 326 324 323 321 321 320 319 319 318 317 317 317 317 317 317 318 318 318 318 318 319 318 318 317 316 315 313 312 311 311 310 310 309 308 305 303
325 326 328 329 332 331 328 325 323 321 321 320 319 317 316 316 317 316 316 315 316 316 316 316 317 317 318 318 318 318 318 317 317 315 312 311 311 310 309 310 309 307 304
324 326 326 327 325 324 324 321 319 318 317 317 316 316 316 316 316 314 313 313 312 312 313 313 313 314 315 316 318 317 316 316 317 317 315 313 312 311 310 309 309 308 306
320 320 320 319 318 318 317 317 316 316 317 317 317 316 315 315 314 313 312 311 310 310 310 310 311 312 313 313 315 315 315 314 314 315 315 315 312 312 311 310 309 309 307
319 318 318 317 317 316 315 316 316 316 316 316 316 316 315 313 312 311 308 307 307 308 309 308 308 309 311 311 311 312 313 312 312 313 313 314 314 313 312 311 310 308 308
319 318 317 317 316 316 316 316 316 316 316 313 312 312 311 309 308 306 306 305 305 306 307 307 308 307 308 309 309 309 308 307 309 310 310 312 312 312 312 312 311 310 308
318 318 317 316 316 315 315 314 314 313 312 311 309 309 307 307 306 305 303 303 304 304 304 307 306 305 305 303 303 302 302 302 303 305 307 306 307 309 309 309 310 310 308
318 318 317 316 316 315 314 313 312 311 310 309 309 308 308 307 305 303 302 302 304 305 304 303 302 302 301 300 299 298 298 298 298 298 298 298 298 300 302 303 304 306 307

GFSSE_925_thetae_033.txt.gz
Theta_e
339 339 339 338 335 333 336 337 338 338 338 335 334 335 335 334 334 334 333 333 334 334 333 331 331 330 330 329 327 326 325 323 322 322 324 332 329 330 334 339 337 333 335
339 340 339 338 336 333 335 338 337 336 335 334 334 334 335 334 334 334 334 333 333 333 335 331 331 333 332 331 330 329 327 325 324 324 324 327 334 327 326 334 332 331 334
339 338 338 338 337 335 333 335 337 337 336 336 336 336 336 335 334 334 333 332 330 328 328 330 330 330 330 330 330 330 330 329 328 327 327 330 333 331 326 321 326 331 334
338 338 338 337 337 336 335 333 332 335 336 337 336 336 335 334 333 332 331 329 328 329 330 331 331 330 329 328 329 329 329 329 330 329 328 333 333 332 328 323 322 328 331
337 336 337 336 336 335 335 335 335 334 333 332 332 331 331 332 333 333 333 333 332 331 331 331 330 329 329 328 328 328 328 328 328 329 329 331 331 331 331 328 328 324 329
333 333 332 330 328 326 326 325 326 328 330 332 333 334 334 334 333 331 329 327 326 325 326 325 323 323 321 320 320 322 323 324 326 326 329 331 331 330 330 331 329 331 331
330 326 321 318 318 319 319 320 320 321 321 322 323 324 324 322 321 322 322 322 322 322 322 321 322 322 323 323 323 323 323 322 322 323 329 331 330 328 328 328 328 328 329
322 319 318 319 320 320 320 320 320 321 321 321 321 321 321 321 321 321 322 322 322 322 322 321 321 322 322 322 323 322 321 320 320 322 329 330 330 329 327 326 326 327 326
318 319 319 320 320 319 318 319 321 321 321 321 321 320 322 324 325 323 322 318 316 315 314 314 314 314 314 315 314 314 311 310 314 323 327 327 327 325 324 324 322 326 327
325 326 324 330 330 328 320 317 317 318 319 319 320 328 329 329 329 326 324 324 322 322 322 315 318 316 312 312 316 317 317 312 318 321 324 325 324 324 324 323 322 320 324
328 330 331 331 331 331 327 327 323 329 328 330 328 329 330 331 328 325 326 326 326 325 324 323 322 322 319 320 320 320 318 318 320 320 318 320 323 323 322 319 319 321 320
330 331 331 332 331 331 328 328 328 329 330 330 329 330 328 328 328 327 327 327 326 325 325 325 323 323 321 320 319 319 319 319 319 318 318 318 320 319 317 315 310 316 320
329 332 331 331 328 330 327 328 329 328 329 329 329 329 329 327 328 328 327 325 323 324 323 322 322 321 321 321 320 320 318 317 317 317 317 317 319 318 317 316 309 313 319
329 331 332 327 329 328 326 326 329 330 330 331 330 328 328 326 326 325 324 323 322 321 320 320 321 320 320 321 320 320 320 318 316 315 315 314 316 316 314 313 308 312 317
330 331 330 328 324 322 326 325 325 327 325 328 329 328 327 325 324 324 323 321 320 319 319 319 318 318 317 317 317 318 318 317 315 315 313 313 314 315 312 310 307 312 322
330 331 331 330 330 326 326 325 325 326 327 326 327 326 324 322 323 322 321 320 320 319 319 318 318 318 319 319 319 319 318 317 316 315 313 311 312 313 311 309 307 307 320
328 329 331 332 333 327 325 325 324 327 325 323 323 322 320 320 322 321 320 320 320 319 318 318 317 318 319 318 318 318 318 318 317 315 314 312 310 312 311 310 309 305 309
326 329 331 334 331 327 326 326 323 323 322 321 320 320 319 320 320 320 319 318 317 316 316 316 317 317 318 318 318 318 318 318 317 316 315 312 311 311 311 310 310 309 305
328 329 331 334 332 331 329 325 323 322 321 320 321 320 320 319 317 316 316 315 315 315 316 316 316 316 315 315 316 317 317 317 317 317 316 314 312 311 311 310 310 310 308
327 328 329 331 330 328 326 325 324 322 321 320 319 317 316 316 316 316 315 313 313 312 311 312 311 310 310 311 312 313 314 316 316 316 316 317 316 312 311 311 310 309 309
322 321 322 319 318 318 317 318 317 316 316 316 317 316 315 315 315 314 313 312 310 309 309 308 309 309 308 307 309 312 312 313 314 314 314 314 314 315 313 311 310 309 309
318 318 318 318 317 316 316 316 317 317 317 316 316 315 314 313 311 310 307 306 306 307 307 308 307 307 307 309 308 309 309 310 310 310 311 311 310 312 312 311 310 310 309
317 317 316 316 316 314 315 316 316 315 315 314 312 310 309 308 307 306 305 304 303 304 304 304 305 307 307 307 307 306 307 307 305 307 307 308 309 308 310 312 311 309 309
317 317 316 316 316 315 314 314 314 314 313 311 310 309 307 307 306 304 303 302 302 303 303 304 305 304 304 302 302 302 300 299 302 302 304 302 305 302 302 303 307 310 310
317 317 316 316 315 314 314 313 313 312 311 310 309 308 308 307 305 304 303 302 301 304 304 303 302 301 301 300 299 298 298 297 298 296 298 298 297 297 298 299 300 302 306
317 317 317 316 314 311 311 311 311 310 310 309 308 308 306 305 303 302 301 302 302 302 300 300 300 300 299 299 298 297 296 296 296 295 296 296 295 295 294 296 297 299 301

GFSSE_925_thetae_036.txt.gz
Theta_e
341 339 336 334 335 336 337 337 337 337 333 333 332 333 333 333 333 333 333 333 331 330 328 328 329 331 330 330 330 328 326 324 324 324 324 333 328 328 337 335 335 334 334
340 338 336 334 334 336 336 337 337 335 333 334 334 334 334 334 334 333 333 332 331 334 329 329 330 329 330 330 330 329 329 327 326 326 326 327 332 327 325 334 332 333 334
339 338 337 334 333 336 336 335 334 334 335 335 335 335 335 334 333 332 331 329 328 329 329 328 328 330 329 329 329 328 328 329 329 329 328 330 333 331 328 323 324 332 334
339 338 337 336 334 332 334 336 336 336 336 336 335 334 333 332 330 330 329 330 330 330 332 331 330 329 328 328 327 327 327 328 329 328 329 331 332 331 328 324 324 326 332
338 337 336 336 335 334 333 332 332 333 333 333 331 330 330 332 332 332 331 330 329 330 330 328 326 325 323 322 322 323 324 325 326 326 329 331 331 331 329 328 327 324 327
336 336 336 334 332 331 330 331 331 331 331 331 332 332 331 330 326 323 321 320 321 321 321 321 320 320 320 321 322 322 322 322 321 323 328 330 331 330 328 330 329 329 328
333 331 329 323 319 319 320 320 322 323 325 326 325 324 322 320 320 320 320 320 320 320 319 317 316 316 318 320 321 321 321 321 322 324 329 330 331 327 327 327 326 327 327
325 320 318 318 319 318 319 319 319 320 320 320 320 320 319 319 319 319 317 316 315 313 312 311 311 312 312 313 313 312 311 311 312 322 327 330 330 328 326 326 325 325 325
317 318 319 318 317 316 316 318 320 320 320 320 320 322 324 325 322 322 323 321 320 321 320 313 315 315 311 311 314 317 316 315 313 321 325 327 328 326 324 323 323 323 325
318 318 319 323 324 320 314 314 315 318 317 319 323 328 328 326 325 325 324 324 323 323 322 322 321 320 318 318 319 319 318 318 320 320 319 323 324 324 323 322 321 321 322
320 321 328 329 328 325 321 320 324 326 326 326 329 328 328 327 326 326 326 326 325 325 324 323 322 322 321 320 320 319 318 318 319 318 318 318 321 323 323 318 315 310 319
325 325 330 329 329 327 326 324 328 328 328 327 329 330 328 327 327 327 327 326 325 324 324 324 322 322 322 321 320 320 319 318 317 317 317 317 317 321 320 316 315 313 310
329 330 331 330 329 330 328 328 326 329 329 329 329 329 328 328 328 328 327 324 323 322 321 321 321 321 321 320 320 320 321 320 318 316 314 314 315 315 317 316 314 312 310
328 330 331 330 330 328 329 328 329 328 329 329 329 328 328 326 327 325 324 322 321 320 319 319 320 319 318 317 317 317 317 318 319 318 315 314 313 312 314 314 312 311 311
330 331 331 327 329 326 325 326 327 329 329 330 330 328 328 326 325 324 323 321 320 319 319 318 318 317 317 318 318 318 318 317 318 316 316 315 313 311 312 314 312 310 311
331 331 330 320 323 325 325 324 324 327 328 328 328 328 327 323 323 321 321 320 320 319 319 319 318 318 317 318 318 318 318 318 318 318 317 316 315 313 311 312 312 310 309
330 330 329 325 324 322 326 325 323 325 326 326 327 326 324 320 319 321 320 319 319 319 318 317 317 317 317 317 318 318 318 318 318 318 317 316 315 314 313 311 311 311 310
330 330 329 329 327 324 323 325 324 326 324 322 323 322 321 320 320 319 318 318 317 316 315 315 314 314 312 311 311 312 312 313 316 317 316 316 317 315 312 310 311 311 310
328 330 332 330 327 329 326 324 323 323 321 320 320 321 321 320 319 318 316 315 313 313 312 311 310 309 308 308 307 308 309 311 311 312 313 315 314 314 316 312 310 310 310
329 331 331 330 329 329 326 323 322 320 317 318 318 317 316 316 316 315 313 312 311 310 308 308 308 308 308 306 305 304 306 305 306 309 311 312 313 312 312 312 312 311 311
319 319 322 322 319 322 319 317 316 316 315 316 315 314 313 312 311 310 308 307 306 306 306 306 305 305 304 306 306 306 307 306 309 309 309 308 307 309 310 311 311 309 310
317 317 316 315 315 316 316 316 316 316 314 311 310 309 308 308 307 305 305 304 303 303 303 303 303 304 306 306 306 306 305 306 306 304 303 304 305 304 306 306 307 310 308
316 316 315 315 315 314 314 314 314 313 313 312 309 308 307 307 306 305 304 304 303 302 301 302 303 304 304 304 303 304 302 302 299 301 300 301 300 300 300 300 301 302 305
316 316 316 315 315 314 314 313 312 312 311 310 309 308 307 306 306 306 305 303 301 302 303 303 302 301 301 301 300 300 299 299 297 298 299 297 297 297 296 296 296 298 300
316 316 315 314 314 313 312 312 311 310 310 309 308 308 308 307 306 305 303 302 300 301 300 299 299 300 299 299 298 297 297 296 296 295 295 295 295 294 295 294 295 298 299
317 316 315 313 312 311 311 310 310 310 309 308 307 307 306 304 302 302 301 300 299 298 298 298 298 298 297 297 297 295 294 294 295 295 295 294 293 293 293 293 296 297 296

GFSSE_925_thetae_039.txt.gz
Theta_e
340 337 335 337 336 335 337 336 335 332 331 331 332 332 333 333 333 333 332 332 331 331 331 331 330 329 329 330 329 328 326 325 325 324 323 332 326 334 334 334 333 333 331
339 335 335 336 336 336 336 336 335 332 332 332 333 334 333 333 333 332 331 330 330 330 329 328 327 328 329 329 329 328 328 328 327 327 327 328 332 326 324 329 330 331 333
337 335 334 335 335 336 336 335 333 333 333 334 334 334 333 333 332 330 329 328 329 332 332 331 330 329 328 327 327 327 328 328 329 328 328 331 331 331 328 323 325 325 329
337 335 333 335 336 335 334 334 334 334 335 335 334 333 332 330 329 329 330 331 331 334 337 332 328 326 323 322 323 324 326 326 327 328 329 330 332 331 329 325 324 325 327
337 336 334 333 334 335 335 335 335 335 334 333 331 329 330 331 331 328 326 324 325 326 324 320 320 319 319 319 319 319 320 320 323 326 329 330 330 330 329 328 328 326 326
337 336 335 334 332 332 331 331 331 331 330 330 330 330 328 324 320 318 318 319 319 319 319 319 318 318 319 321 322 322 322 322 322 323 327 330 331 330 327 327 327 328 328
337 335 335 333 330 329 328 328 329 329 328 327 325 322 319 318 318 318 318 318 317 316 313 312 312 313 313 313 314 314 312 312 314 325 329 329 330 328 326 326 325 325 326
333 331 327 321 319 319 320 321 321 321 322 321 320 319 317 317 317 317 316 315 314 315 313 311 312 312 311 311 314 316 316 313 314 323 325 329 330 328 327 325 324 324 325
324 318 318 318 317 317 318 318 319 319 320 319 318 319 321 321 322 322 322 320 320 321 317 321 320 318 316 316 318 318 318 318 319 320 322 324 327 326 324 324 323 321 320
317 318 317 317 315 315 317 318 318 318 318 317 321 325 325 324 324 324 324 323 322 323 322 322 321 320 319 319 319 319 318 317 318 318 318 317 322 323 323 323 322 319 314
319 318 322 323 320 315 314 315 317 316 318 324 327 327 326 326 325 326 325 325 324 324 324 323 321 321 321 320 320 319 319 318 316 316 317 317 317 318 323 324 317 315 313
319 321 326 326 324 321 320 323 324 324 325 329 329 327 327 326 327 327 326 326 324 323 322 322 322 321 321 320 319 319 319 319 318 317 315 314 313 315 318 320 317 315 313
321 324 327 327 327 325 324 326 327 327 327 327 328 329 328 327 327 328 326 325 323 322 321 320 320 320 320 318 317 316 317 318 318 317 317 315 314 313 313 317 315 313 312
323 327 329 328 329 328 327 327 327 328 328 328 328 328 328 327 327 327 325 323 321 321 319 319 318 318 317 317 317 318 318 317 317 317 317 316 316 315 312 313 319 318 315
327 328 330 329 329 328 328 327 328 328 328 329 329 329 328 326 325 324 323 322 320 319 319 318 318 317 317 317 317 318 318 318 318 318 318 318 317 316 315 313 311 317 318
327 329 330 329 328 326 326 326 327 328 328 329 329 329 327 325 324 323 322 321 320 319 318 318 317 316 316 316 316 316 316 316 316 317 317 317 317 316 315 314 312 312 313
327 330 330 329 327 325 325 325 325 327 328 327 327 329 328 325 321 321 320 319 319 318 316 315 314 313 313 312 311 311 311 311 311 311 312 315 316 316 316 315 314 311 310
329 330 329 328 324 324 324 324 323 325 325 324 326 327 325 323 321 320 319 318 316 314 312 312 310 310 309 307 307 306 305 303 305 307 310 311 312 313 313 313 314 313 311
328 329 328 326 325 325 325 325 322 320 320 319 320 321 321 320 319 317 315 313 312 311 310 308 308 307 306 305 304 304 302 301 302 305 308 309 309 309 310 311 312 312 312
329 329 328 326 327 328 323 318 315 316 316 315 315 315 315 315 314 313 311 309 308 307 306 305 304 304 303 303 303 302 302 302 304 308 306 303 305 306 306 307 309 310 311
327 328 328 328 326 325 320 317 315 315 314 313 311 311 311 311 310 309 308 306 305 304 303 303 302 301 301 303 305 304 304 304 304 304 301 301 300 301 301 301 301 301 304
316 316 316 316 316 316 315 315 315 313 312 312 311 310 309 308 308 307 306 305 305 304 301 301 302 303 304 304 303 302 301 301 302 300 298 298 299 298 298 297 296 297 298
315 315 314 314 314 314 313 313 312 312 311 310 309 308 307 307 306 306 305 305 303 300 301 302 302 301 300 300 301 301 298 298 297 299 297 298 297 297 296 295 294 296 297
315 315 315 314 314 314 313 313 312 311 311 309 308 307 306 305 305 305 303 302 300 300 299 299 299 299 300 300 299 300 298 298 295 295 297 295 295 294 294 293 293 297 296
314 315 314 314 313 312 312 311 311 310 310 309 308 307 306 305 304 302 301 301 300 299 297 297 298 299 298 298 297 297 296 295 295 294 294 293 294 293 293 293 294 293 294
314 313 313 312 310 310 310 310 310 309 309 308 306 306 305 303 302 301 300 299 297 296 296 296 296 295 295 296 296 295 294 293 294 294 294 293 293 293 293 293 292 293 294

GFSSE_925_thetae_042.txt.gz
Theta_e
340 336 336 336 338 336 335 331 330 330 331 332 332 332 332 332 332 332 331 331 330 331 336 334 331 330 330 329 329 328 327 326 325 325 325 331 326 329 333 332 332 332 331
338 336 337 336 337 337 336 333 331 331 332 332 333 333 333 333 332 331 330 332 334 334 328 327 328 329 328 327 327 327 327 328 328 327 327 328 330 326 323 324 325 327 332
336 336 337 337 337 337 335 333 332 332 332 333 333 333 333 332 331 329 328 329 331 336 334 329 328 327 324 324 324 324 325 326 327 328 329 330 331 331 325 324 324 325 327
335 337 337 337 337 336 335 334 333 333 334 334 333 332 331 329 328 328 329 330 331 332 331 323 320 319 318 319 319 319 320 323 325 328 328 330 332 330 329 326 326 325 325
334 336 337 336 335 335 334 333 334 334 333 332 330 328 328 329 328 325 322 322 323 321 320 319 319 319 320 321 322 322 321 320 320 325 328 329 329 330 330 328 329 328 327
335 334 336 336 335 334 334 333 333 332 331 329 328 328 326 322 319 318 318 319 319 319 318 315 314 315 315 316 317 315 314 316 320 322 326 329 330 330 325 326 327 327 327
336 334 333 332 332 331 331 330 330 328 327 327 326 323 319 317 317 317 318 317 315 312 312 312 312 312 312 312 315 315 313 310 317 325 327 328 329 329 327 325 324 324 325
336 335 334 331 329 327 326 326 325 324 323 323 320 318 316 316 316 316 315 315 318 316 314 318 318 315 314 317 318 318 317 317 319 322 324 327 329 328 326 325 324 323 322
334 332 327 322 320 320 320 319 318 319 320 320 318 317 319 320 321 321 320 320 322 319 321 320 319 318 318 318 319 318 318 317 318 319 318 319 323 324 323 322 323 321 318
327 320 318 317 316 316 316 317 319 319 319 318 320 322 321 323 323 323 323 322 322 322 322 321 320 320 319 319 319 319 319 318 316 316 316 316 317 317 318 321 320 318 316
319 318 316 315 315 314 316 318 318 318 317 318 325 325 325 324 325 325 325 324 323 323 323 322 321 320 319 319 318 317 317 318 318 317 316 314 314 313 315 317 320 318 316
319 318 320 319 317 314 315 316 316 317 322 324 326 327 326 326 326 326 326 325 324 323 322 322 321 320 320 318 317 316 316 316 316 316 316 316 315 314 313 315 315 316 315
317 320 324 322 321 317 321 322 322 323 325 328 328 328 327 326 327 327 326 325 324 322 321 319 319 319 320 317 317 317 317 317 317 317 317 317 317 316 315 316 318 316 313
319 324 325 325 323 322 323 325 325 326 326 326 327 328 328 327 326 327 326 324 322 320 319 318 318 317 317 317 317 317 317 317 317 317 317 317 317 317 316 319 320 319 318
321 325 327 326 326 325 324 324 326 327 327 328 328 328 328 327 326 324 324 322 320 319 319 318 318 317 316 315 315 314 314 314 314 315 315 316 316 316 316 316 317 319 319
323 325 327 327 327 327 326 327 326 326 326 327 328 329 329 327 325 323 322 320 319 318 317 316 315 313 312 312 311 311 310 309 308 308 309 310 311 314 315 315 316 315 317
325 326 326 328 328 328 326 325 325 326 327 328 329 329 329 325 323 322 320 318 317 315 313 312 311 310 310 309 307 306 305 304 303 301 304 307 309 311 312 313 313 314 315
324 326 327 328 328 324 324 324 324 324 325 321 324 326 325 323 321 320 318 316 313 311 311 310 309 308 306 305 304 304 303 302 300 300 305 306 308 308 310 311 311 312 312
325 327 327 327 324 324 324 320 321 319 319 319 319 320 319 319 318 316 313 312 309 309 307 306 304 303 302 302 302 301 301 301 300 302 305 303 303 303 305 305 306 307 308
326 327 326 325 326 324 325 317 316 315 314 315 316 315 315 314 313 312 310 308 306 305 304 304 302 301 301 303 302 303 300 299 303 304 301 299 299 299 299 300 300 301 302
326 326 326 326 326 326 317 314 314 314 313 314 313 312 311 310 309 307 306 305 305 305 302 300 300 300 301 302 303 301 300 304 300 300 298 298 297 297 298 297 296 296 297
318 320 323 323 320 318 316 314 313 313 311 310 309 309 309 308 307 306 306 305 304 302 300 299 299 299 299 299 300 300 298 299 300 299 298 297 297 296 295 294 294 295 296
314 314 314 314 314 314 313 313 312 311 310 310 309 308 307 307 306 305 304 303 301 300 299 298 297 297 299 299 299 299 297 297 296 297 297 295 295 294 293 292 293 295 293
314 314 314 314 314 313 313 312 311 311 310 309 308 307 306 306 305 304 302 301 300 299 298 297 297 297 298 298 297 298 297 297 295 295 295 294 294 293 293 292 293 293 294
314 314 314 314 313 313 312 312 311 310 309 308 307 307 306 305 303 302 301 300 299 298 297 296 295 297 297 296 296 296 295 294 294 294 294 293 293 293 293 293 292 292 291
313 313 313 312 312 311 310 310 309 309 308 307 305 305 303 302 302 301 300 299 297 296 296 295 295 294 294 294 294 294 293 293 293 293 293 294 293 292 292 291 292 291 291

GFSSE_925_thetae_045.txt.gz
Theta_e
340 336 339 337 335 331 331 332 331 331 331 332 332 332 332 332 332 331 330 330 329 335 333 329 328 329 328 328 328 328 328 327 327 326 326 331 328 326 327 327 331 335 331
337 335 337 338 336 333 332 332 331 332 332 332 333 333 333 332 331 331 330 329 328 329 330 329 329 328 326 325 325 325 325 326 327 328 328 329 330 328 325 324 325 328 330
336 337 339 339 337 334 333 332 332 332 332 333 333 333 332 331 329 328 327 328 331 334 334 331 326 322 320 319 320 321 322 324 326 327 329 332 333 329 327 325 325 325 326
335 337 339 338 337 335 333 333 332 332 333 333 332 331 329 327 327 328 329 333 330 330 328 324 319 319 319 319 319 319 318 318 322 326 329 331 332 330 329 327 328 327 326
336 337 339 337 337 335 334 332 333 333 333 331 328 326 327 328 328 325 325 325 323 322 320 317 316 316 316 317 317 316 316 319 319 324 329 330 333 331 329 326 328 326 325
337 337 337 337 336 334 333 333 333 332 330 327 325 326 326 322 319 319 320 320 319 315 312 312 312 312 312 312 312 313 310 310 320 324 327 330 332 330 329 328 326 325 324
336 337 336 335 334 334 334 333 331 329 326 325 325 323 319 318 318 318 317 315 313 312 313 314 313 311 314 317 317 317 316 316 320 324 327 330 330 328 326 326 325 324 322
334 334 336 335 334 333 331 330 328 326 323 323 321 318 317 317 316 315 316 319 315 317 319 318 317 317 318 318 318 317 317 317 319 319 320 324 326 326 324 323 323 322 319
335 333 333 332 330 328 326 326 323 322 321 319 318 317 318 320 320 319 320 321 319 320 320 319 319 319 319 319 318 318 318 317 317 317 317 319 317 317 318 321 321 320 318
335 333 329 325 323 323 323 320 320 320 319 318 319 320 322 322 323 323 322 322 322 322 321 320 320 319 319 318 318 317 317 317 317 318 317 315 314 313 314 316 317 318 318
331 323 319 319 319 319 318 319 319 319 318 320 322 322 323 324 324 324 324 323 322 323 323 322 320 320 319 318 317 316 316 316 316 318 318 316 316 315 317 313 313 314 315
321 319 318 318 317 317 317 318 319 318 318 324 325 325 325 325 325 326 325 324 323 322 321 320 319 319 320 317 316 316 317 317 317 317 318 317 317 317 317 321 319 316 314
317 318 319 318 316 316 317 317 317 318 322 324 326 326 326 326 326 326 327 326 324 322 320 319 318 318 317 317 317 316 316 317 317 317 317 317 317 317 317 317 320 320 320
318 319 321 320 319 318 320 321 321 323 325 327 327 327 328 327 326 326 327 326 323 320 318 318 317 317 317 316 315 314 314 314 314 315 315 316 316 317 317 317 317 320 320
318 319 323 323 322 321 322 323 324 325 326 326 326 327 327 328 327 326 325 324 320 319 318 317 316 315 314 312 311 310 309 308 308 309 310 311 312 313 314 315 316 317 318
320 321 323 325 325 325 325 326 327 326 325 326 326 327 327 328 325 323 322 320 318 317 315 314 312 311 310 310 309 307 306 306 305 303 306 307 304 308 310 311 314 314 314
321 322 323 325 326 328 327 324 323 323 324 324 326 327 327 326 323 322 319 318 315 313 311 311 309 308 308 306 306 306 306 305 305 304 305 306 307 307 309 310 311 311 312
323 325 325 325 326 324 322 322 320 320 321 321 323 324 323 323 322 319 316 314 311 309 309 308 306 305 305 305 305 305 305 304 304 306 305 305 306 305 306 307 306 307 307
324 325 325 326 324 324 322 323 323 321 321 319 319 318 316 316 315 313 312 309 308 306 305 305 304 303 303 304 303 303 304 302 303 304 303 303 301 300 300 300 301 302 303
324 325 324 324 325 323 324 323 321 319 315 315 313 313 312 311 309 308 307 306 305 305 304 303 301 301 302 302 300 301 301 300 304 302 302 301 299 298 298 297 297 297 297
325 325 325 325 323 326 323 320 312 311 311 311 310 309 309 308 308 307 306 306 305 303 301 300 301 301 301 301 300 299 300 304 304 300 300 299 298 297 297 296 296 297 298
326 326 325 326 325 324 320 314 313 311 310 309 309 308 307 306 306 306 306 305 303 302 300 299 300 299 299 300 300 299 300 300 301 301 298 298 297 296 295 295 295 296 297
322 324 322 320 320 318 315 313 312 310 309 308 308 308 307 306 306 306 305 303 301 300 300 298 298 299 298 299 299 299 300 300 299 298 298 297 296 295 295 294 294 294 296
315 315 314 314 313 313 313 312 311 311 311 309 308 307 306 306 306 304 302 301 300 298 296 297 297 298 298 298 298 298 298 298 297 297 296 295 295 295 295 294 294 294 294
312 312 312 312 312 312 311 311 310 309 309 308 307 307 306 305 303 302 301 300 299 297 295 295 297 296 296 296 296 296 294 295 295 295 296 295 294 294 294 293 293 294 293
312 312 312 312 312 311 311 310 309 308 306 305 303 303 301 300 300 300 300 299 299 297 296 296 295 295 296 296 295 295 295 295 294 294 295 294 294 293 293 293 293 293 293

GFSSE_925_thetae_048.txt.gz
Theta_e
340 343 337 332 331 330 329 331 329 327 327 328 329 330 331 331 331 331 332 332 334 336 333 329 329 329 328 327 326 326 326 327 328 327 328 330 328 325 325 325 333 333 332
340 343 338 334 331 332 331 329 329 330 331 331 332 332 332 332 331 331 331 331 335 336 336 334 329 325 323 322 322 322 323 325 327 328 330 331 330 326 325 326 326 329 328
340 342 341 336 332 332 332 332 333 333 333 333 333 333 332 331 330 330 330 332 333 335 332 323 319 318 318 318 319 319 318 320 324 328 331 331 334 329 327 327 327 327 327
340 341 342 336 333 333 332 333 333 333 333 333 333 332 330 328 327 328 330 328 326 329 326 320 318 318 318 317 316 315 317 319 319 327 329 331 332 329 327 328 327 326 328
341 342 342 337 335 333 333 333 333 333 333 332 331 328 328 328 328 327 327 324 323 323 319 314 312 312 311 312 312 310 310 315 321 324 328 331 332 330 328 326 329 327 323
341 341 339 337 336 334 334 333 333 333 332 328 327 327 325 322 320 320 320 320 317 314 313 312 311 311 315 316 316 316 313 313 321 323 326 330 332 330 328 326 324 323 321
340 341 341 337 336 335 335 334 334 331 328 327 326 323 319 318 319 319 317 313 312 314 316 314 312 317 317 317 317 316 316 317 319 321 323 326 329 327 330 324 323 322 319
340 340 339 337 335 335 334 333 332 329 327 326 322 318 318 317 317 315 318 315 317 319 317 317 318 318 318 318 318 317 316 316 318 319 319 322 317 318 324 326 323 321 319
338 339 339 339 337 334 332 331 328 326 325 323 318 317 317 317 318 320 320 318 320 320 319 319 319 319 319 318 317 316 316 316 319 318 317 317 314 314 319 320 322 321 320
338 337 336 335 334 334 333 327 324 324 322 319 318 319 321 321 321 321 322 322 322 321 321 320 320 319 319 318 316 315 316 319 319 318 318 318 315 315 321 321 315 315 315
336 336 333 331 331 331 329 328 324 321 320 319 322 322 324 328 328 328 325 322 322 322 322 321 320 319 319 319 316 315 318 319 319 319 318 316 316 316 316 317 317 317 317
332 328 327 327 327 326 324 327 327 325 324 328 328 329 329 330 330 329 327 324 323 322 321 320 319 318 320 320 320 319 319 319 319 319 318 316 316 316 316 317 317 319 319
324 323 325 326 326 325 325 325 324 324 326 329 330 331 331 330 331 330 330 329 328 324 324 321 322 321 322 321 320 320 318 317 317 317 317 315 315 316 316 317 317 318 320
322 323 325 325 325 326 325 325 326 327 329 329 330 331 331 330 331 330 329 329 328 324 323 322 321 322 321 319 317 317 316 315 314 314 314 313 311 313 314 315 316 317 319
321 324 326 326 325 326 327 328 329 329 330 330 330 331 331 332 331 330 329 327 325 323 322 321 320 319 318 316 315 314 313 313 312 312 311 310 308 305 307 310 312 314 316
321 324 328 328 328 328 328 329 329 329 329 330 331 331 330 328 327 325 325 324 322 320 319 317 317 316 315 314 313 313 312 312 311 311 311 310 309 306 305 307 309 310 311
322 325 328 329 330 329 327 325 324 322 323 324 324 325 325 326 324 323 323 320 317 316 315 315 314 313 312 311 311 311 311 311 310 309 309 309 309 309 306 307 307 307 307
323 327 328 328 328 326 325 324 322 320 320 322 320 321 321 321 320 318 317 314 313 312 312 311 311 310 310 310 309 309 308 308 308 306 307 307 307 306 306 304 303 303 303
326 328 328 328 326 322 321 319 320 319 321 318 316 315 315 314 313 312 313 312 310 310 310 309 309 308 307 306 306 303 303 304 302 303 305 306 305 304 304 302 300 298 298
328 329 329 328 323 323 323 320 317 320 317 314 313 313 312 312 312 311 311 310 310 310 309 307 306 305 304 303 303 301 303 302 302 304 304 304 303 302 301 300 300 299 298
329 328 329 326 325 324 322 322 318 316 314 313 312 312 311 311 310 311 310 310 309 308 306 305 303 302 301 301 302 301 301 302 305 305 303 302 301 301 300 299 298 298 299
330 329 329 327 326 326 324 320 317 316 313 313 311 311 310 310 310 309 309 308 306 304 303 302 301 301 300 300 302 301 302 301 301 303 302 301 300 299 298 298 297 297 297
330 329 327 327 326 323 319 317 316 314 313 312 312 311 309 309 309 309 307 305 304 302 301 301 300 300 300 299 300 300 302 302 300 299 299 299 299 298 298 297 297 297 296
323 323 322 322 321 319 317 316 314 314 314 313 312 311 310 309 308 306 304 303 302 301 301 300 298 299 299 298 298 298 299 298 299 299 297 296 296 296 296 296 296 296 296
318 318 317 316 316 315 315 315 315 314 313 312 311 309 308 307 305 303 302 302 302 301 300 300 299 299 298 298 297 297 297 297 296 296 298 296 295 295 295 295 295 295 295
317 317 316 315 314 314 314 314 313 312 309 307 306 305 304 303 302 302 302 302 301 301 300 300 299 298 298 297 297 297 296 296 295 295 297 296 295 294 294 294 294 294 293

GFSSE_925_thetae_051.txt.gz
Theta_e
343 342 332 331 335 339 339 338 337 330 327 328 330 331 332 332 332 333 335 336 336 337 336 329 328 326 324 322 321 322 323 325 327 328 328 329 328 326 326 328 333 332 331
344 341 333 332 331 337 337 333 329 327 329 330 332 332 332 332 333 333 332 332 334 336 335 328 321 318 318 318 318 318 318 322 326 328 332 331 329 327 327 327 327 331 329
343 342 337 332 332 330 329 328 328 329 331 332 333 333 332 332 331 330 331 332 333 334 331 323 319 318 319 317 316 317 318 317 323 326 330 333 333 328 328 327 325 326 331
343 341 339 332 332 332 331 331 332 333 333 333 333 332 331 329 328 330 330 326 326 329 328 319 314 313 312 311 311 310 314 318 322 326 330 330 333 328 326 330 327 324 326
342 342 339 333 332 333 332 333 333 333 333 333 332 329 327 328 328 327 324 322 323 323 315 312 311 312 314 316 315 312 309 321 323 325 327 327 332 329 326 325 327 326 320
341 341 337 334 333 333 333 333 333 334 333 331 328 328 327 323 321 322 322 319 315 314 312 311 312 316 316 316 316 315 313 318 321 324 326 332 331 331 327 324 323 322 319
341 342 339 336 335 334 334 333 334 333 330 327 328 324 320 319 319 320 316 313 314 317 315 313 317 317 317 316 315 314 314 318 320 320 322 325 323 326 329 326 321 321 319
339 340 339 336 335 335 334 334 333 330 327 327 323 319 319 318 317 316 316 315 319 317 317 317 318 317 317 316 315 314 313 320 319 319 318 321 314 318 323 325 325 320 318
341 340 340 339 336 336 335 333 330 327 326 323 319 318 317 316 319 320 317 320 319 319 319 319 318 318 317 316 314 314 318 320 321 320 319 319 314 315 322 323 323 323 318
339 339 339 338 337 336 335 330 328 325 323 320 318 319 320 320 320 322 324 322 321 321 320 319 318 318 317 316 315 314 319 320 321 320 321 318 315 315 316 317 317 318 318
337 336 333 332 332 332 333 328 324 323 320 319 320 322 327 328 329 329 326 322 322 322 322 320 319 318 317 322 320 318 320 320 319 320 321 318 314 314 316 317 317 317 318
336 332 331 331 330 328 325 327 327 324 324 327 328 328 330 330 331 330 327 324 324 323 322 320 319 318 322 322 321 321 320 320 319 319 319 318 316 312 313 315 318 320 321
329 326 327 328 327 324 325 325 325 324 328 330 332 332 331 330 331 331 329 331 330 327 325 323 323 322 323 322 321 320 320 319 318 318 317 316 314 313 309 312 315 320 322
324 325 326 326 326 326 324 323 324 325 328 329 331 333 333 332 332 331 329 328 328 326 324 323 322 324 323 321 320 319 318 317 317 316 316 314 312 311 309 306 316 319 320
323 325 327 326 327 329 328 329 330 330 331 331 332 331 329 329 328 328 329 328 326 325 324 323 322 321 320 320 318 318 317 316 316 316 315 314 313 311 309 306 308 313 314
324 328 328 328 328 330 332 332 331 330 329 329 329 331 332 331 331 329 327 326 325 322 321 320 319 318 318 317 316 316 315 315 315 314 313 313 312 310 309 308 306 307 308
325 329 330 329 331 331 330 328 326 325 324 323 323 326 328 329 327 327 325 323 320 318 317 316 316 315 315 315 314 314 313 313 312 311 311 310 310 310 309 306 305 304 304
326 329 331 331 331 329 326 325 325 322 320 319 320 319 321 320 320 321 319 317 315 313 313 313 313 313 312 311 310 310 309 307 306 307 306 305 308 308 306 305 303 302 299
325 330 331 332 329 325 322 320 321 322 317 319 318 315 314 314 313 315 315 314 313 312 312 312 310 309 308 307 306 305 305 304 305 305 304 305 307 306 306 304 302 301 300
327 330 332 331 325 323 321 322 321 320 317 319 316 314 314 314 314 313 313 313 312 311 311 309 308 306 305 304 303 304 304 304 303 304 306 306 305 305 303 303 301 301 300
331 332 331 328 327 327 326 325 322 321 318 315 314 314 314 313 313 313 312 312 311 309 308 307 305 303 303 302 302 302 303 302 303 305 305 305 304 303 302 301 300 300 299
332 331 330 329 328 328 325 325 323 319 316 315 314 314 313 313 312 311 312 310 309 307 305 304 303 303 302 301 301 301 303 301 301 303 302 302 303 301 301 300 299 299 298
330 330 331 328 327 325 322 320 319 317 316 314 315 314 313 312 311 311 309 308 306 304 303 303 302 301 301 300 300 300 301 301 300 299 299 299 299 299 298 298 297 297 298
329 327 325 324 324 321 319 317 317 315 316 316 315 314 313 312 310 308 306 304 304 303 303 302 301 301 300 300 299 298 298 298 300 300 298 297 297 297 297 297 297 297 297
324 323 323 322 320 319 318 317 317 317 316 315 314 312 310 309 307 306 304 303 304 303 302 302 301 301 300 299 299 298 298 298 298 298 299 298 297 296 296 296 295 295 295
321 320 319 318 318 317 317 317 317 316 314 312 310 308 307 305 304 303 303 303 303 302 302 301 301 300 299 299 298 298 298 297 297 297 298 296 296 295 294 294 293 293 295

GFSSE_925_thetae_054.txt.gz
Theta_e
339 328 328 339 342 341 339 337 336 332 328 329 331 332 332 332 333 336 335 335 336 336 333 327 322 318 318 317 317 317 319 322 325 328 330 329 327 326 326 328 332 329 328
338 329 330 338 341 340 338 336 331 328 329 331 332 332 332 333 333 334 334 335 335 334 329 322 320 318 317 317 317 317 316 320 325 330 332 330 329 329 326 325 325 330 328
339 330 331 336 339 338 335 330 329 330 331 332 333 333 333 332 334 332 330 329 330 330 329 322 315 312 311 310 310 312 315 317 326 328 333 333 330 329 327 326 324 324 327
339 337 332 331 334 332 330 330 331 332 333 333 333 332 330 330 334 329 325 324 327 328 324 312 310 311 313 313 311 309 318 322 323 324 331 332 331 327 328 328 325 320 320
339 338 332 332 331 331 331 333 333 333 333 332 331 328 329 331 327 324 322 321 319 321 315 311 314 315 315 314 314 311 315 320 322 325 331 331 329 325 324 323 322 321 318
341 338 332 333 332 332 333 333 333 333 332 330 328 328 325 323 322 320 318 313 313 312 311 313 316 316 315 314 313 312 315 320 320 330 331 327 326 328 324 322 321 321 319
340 336 333 332 332 333 333 333 333 332 329 328 326 322 319 319 319 316 312 313 316 315 314 316 316 316 315 314 313 312 318 320 320 321 322 317 317 322 325 325 319 318 318
338 336 335 334 334 334 333 334 333 329 328 326 321 318 318 317 314 314 314 318 316 316 316 316 316 315 314 314 313 315 318 320 321 320 319 312 312 315 324 322 318 317 315
336 337 337 335 335 333 334 333 330 328 327 321 317 316 316 317 319 316 319 318 317 317 317 317 316 315 315 314 314 314 319 320 320 321 320 317 313 314 323 323 321 319 317
335 337 338 336 335 335 333 330 328 326 322 317 316 318 319 320 322 324 321 321 321 321 319 318 316 315 315 319 320 319 319 321 320 320 321 318 316 313 314 317 318 319 320
335 338 336 336 334 332 329 327 326 322 318 317 320 323 326 328 327 328 326 321 321 319 319 318 317 316 317 320 322 320 320 320 318 320 320 318 317 316 313 313 317 319 321
334 334 335 333 333 332 329 325 323 317 323 324 324 329 331 331 329 330 326 324 326 326 323 323 323 322 323 323 323 321 321 320 319 318 319 316 315 314 313 312 312 321 323
332 331 331 330 328 326 325 328 324 325 329 330 331 331 330 330 331 330 330 329 329 328 327 324 323 324 324 323 322 320 319 318 318 317 317 316 315 314 313 312 311 319 320
328 328 328 327 325 325 325 326 323 327 330 330 332 331 331 330 328 326 328 328 328 326 324 324 324 323 322 321 320 319 318 317 317 317 316 316 315 314 312 310 310 311 315
326 326 327 326 326 323 326 326 330 331 330 330 329 329 329 328 327 327 325 326 324 325 323 322 321 320 319 318 317 317 316 315 315 315 315 314 313 313 311 309 308 307 310
326 327 326 327 329 329 331 330 329 327 327 327 326 326 327 327 329 329 327 326 323 321 320 319 317 316 315 315 315 314 314 313 313 311 310 310 311 309 310 308 306 305 305
328 329 328 329 331 331 330 328 326 325 321 320 321 325 325 326 325 325 325 322 318 317 315 313 313 313 312 311 310 309 309 309 307 305 305 307 306 309 308 306 304 303 303
330 330 329 330 331 329 327 325 323 319 319 320 319 318 318 317 319 319 316 313 312 313 313 313 311 310 308 307 307 306 306 305 305 304 306 305 304 307 307 305 303 302 302
330 332 332 331 329 327 326 325 320 322 319 319 319 316 311 311 313 314 314 314 313 312 312 310 309 307 306 305 304 303 304 303 305 304 303 305 306 307 306 304 303 301 300
329 333 333 330 326 325 323 321 322 322 319 318 314 312 315 315 314 314 314 313 312 311 310 309 307 305 304 303 303 303 302 303 302 302 304 305 307 305 304 303 302 301 300
329 334 332 329 325 323 321 323 322 321 320 316 315 315 314 314 314 313 313 312 311 309 307 306 305 304 303 302 301 301 301 300 301 300 301 301 301 303 303 302 300 299 299
334 332 329 329 326 326 327 327 324 321 318 315 315 315 315 314 313 312 312 310 308 307 304 304 303 303 302 301 301 301 300 300 300 300 299 299 299 298 297 298 298 298 298
332 332 330 330 328 328 327 323 322 319 317 315 315 315 314 313 312 310 308 307 305 304 304 303 303 302 302 301 301 300 299 299 299 300 299 298 298 298 298 297 297 297 297
330 329 330 330 329 326 321 320 319 317 316 316 316 315 314 313 311 309 307 305 305 304 304 303 303 302 301 302 301 300 299 299 298 298 298 298 298 297 296 295 295 295 295
331 331 329 325 324 321 319 318 317 318 317 316 315 313 311 310 309 307 306 305 304 304 303 303 303 303 301 300 300 299 299 298 298 298 297 297 296 296 295 295 294 293 293
326 325 324 322 320 319 319 318 318 317 315 312 310 309 308 307 305 304 304 304 303 302 302 302 302 301 301 300 300 299 299 298 298 297 296 296 295 295 294 293 293 293 293

GFSSE_925_thetae_057.txt.gz
Theta_e
334 332 342 342 339 338 336 336 332 329 329 330 330 330 331 335 334 333 333 334 332 331 328 318 316 316 315 315 315 315 320 325 328 331 329 329 332 329 325 325 328 327 327
333 335 341 341 339 338 337 334 330 331 331 331 331 331 331 334 333 333 333 329 328 330 327 318 312 310 309 310 312 314 317 323 328 332 332 328 327 328 325 322 324 324 323
330 335 339 340 339 338 335 332 332 331 331 332 332 333 335 330 329 327 325 326 330 327 321 313 310 311 311 308 310 316 320 320 321 330 332 331 329 329 327 323 320 320 317
330 336 339 339 338 335 332 332 332 332 332 332 331 330 333 329 326 323 323 323 321 321 320 314 313 313 313 313 310 317 319 323 324 323 331 329 327 325 323 322 321 318 316
332 333 339 337 334 332 332 333 333 333 332 331 328 333 332 326 323 322 319 317 317 316 313 314 314 313 312 311 312 314 319 327 330 330 330 328 326 324 322 321 321 320 318
335 332 333 331 332 333 334 334 333 332 330 327 326 325 322 321 321 317 313 312 312 312 315 314 314 313 312 311 314 318 320 322 328 328 320 317 317 319 318 317 317 317 317
334 334 332 332 333 333 333 333 332 329 326 326 322 318 318 319 315 312 315 315 315 315 315 314 313 313 313 313 315 318 320 320 323 315 312 312 312 313 317 315 314 314 313
332 333 332 333 333 333 333 333 330 326 325 321 317 316 316 313 313 315 316 315 315 315 315 314 313 313 313 314 314 317 320 320 320 316 315 313 313 313 315 320 318 316 316
333 333 333 332 333 333 333 330 326 324 321 317 316 315 316 317 316 318 317 316 315 315 315 314 313 313 314 319 320 318 320 320 320 320 317 315 314 314 314 313 316 318 319
334 332 333 334 333 333 331 327 325 321 317 315 315 318 319 320 321 319 318 318 317 317 317 316 315 315 317 320 321 320 321 320 319 320 317 316 316 316 314 313 312 314 319
331 333 333 334 334 332 329 325 322 319 315 319 320 322 325 327 326 324 320 321 321 321 319 321 321 320 321 323 322 321 320 320 318 318 317 315 314 317 315 313 312 314 320
330 332 332 333 332 329 324 321 319 315 318 322 327 329 329 329 329 328 325 325 326 325 325 323 323 323 324 322 322 320 320 319 318 317 317 316 315 315 315 313 312 315 318
328 331 333 333 331 322 322 319 321 326 328 327 330 331 330 329 328 328 329 329 328 328 326 325 325 324 323 321 320 319 318 318 317 317 316 316 315 314 313 313 311 314 315
331 331 333 329 328 324 323 323 326 328 329 330 332 330 331 330 328 327 325 326 325 323 321 320 321 321 320 318 317 316 316 316 315 315 315 314 312 312 312 312 313 313 312
329 329 327 325 324 326 327 326 328 331 331 331 330 329 328 327 327 327 326 326 324 323 322 321 320 318 315 315 315 313 311 310 311 309 306 306 307 308 309 311 311 309 308
327 326 325 324 323 327 330 330 329 329 329 328 327 326 327 327 327 327 326 324 323 319 317 316 313 313 312 311 311 310 308 307 306 306 306 305 306 307 308 306 306 306 306
326 325 325 324 330 330 329 329 328 328 326 321 322 322 324 325 326 325 323 317 312 312 313 312 312 311 310 308 306 305 305 304 304 304 305 304 304 306 308 305 304 304 304
327 326 328 330 332 329 329 327 327 323 320 319 319 318 318 319 317 313 312 310 312 313 312 312 311 308 305 304 303 303 302 302 302 303 302 302 303 305 307 305 303 302 301
328 327 329 331 329 328 328 327 324 319 319 318 317 313 311 312 314 313 313 312 312 311 311 310 308 305 303 303 302 302 301 301 301 301 301 301 304 306 304 304 302 301 301
329 329 331 330 328 327 327 323 320 321 318 317 312 311 314 314 314 314 313 313 311 309 307 306 305 304 303 302 301 300 300 300 300 299 299 299 299 300 300 301 300 300 299
331 330 330 329 327 326 325 322 322 322 319 315 313 314 314 314 313 313 311 310 309 307 305 304 303 303 302 301 300 300 300 300 299 299 299 299 298 298 297 298 297 297 298
331 330 330 328 326 326 323 322 323 321 319 315 315 314 314 314 312 312 311 309 308 305 304 303 303 303 302 301 300 300 297 299 299 298 298 298 298 298 297 297 297 296 296
331 330 328 327 326 324 325 326 324 321 316 315 315 314 314 313 312 310 308 307 305 304 304 303 303 303 302 301 301 300 297 296 297 298 298 298 297 297 297 296 295 295 294
331 330 329 328 326 326 328 327 320 318 316 315 315 314 313 313 311 310 307 305 304 304 304 304 303 302 302 302 301 300 300 298 296 296 298 297 297 296 295 295 294 293 293
330 330 329 326 326 328 325 322 320 316 316 316 315 314 313 311 309 306 305 305 304 304 303 302 302 302 302 301 301 300 299 299 298 296 295 296 296 295 294 294 293 292 292
329 328 328 329 327 319 319 319 318 317 315 312 310 309 308 305 304 304 304 303 302 302 301 301 300 301 301 301 300 300 299 298 298 297 294 293 294 294 293 293 292 291 291

GFSSE_925_thetae_060.txt.gz
Theta_e
343 343 342 338 336 334 334 331 330 330 330 329 330 332 331 329 329 328 326 325 324 323 317 313 310 309 311 314 316 320 326 330 330 329 328 327 325 323 323 323 321 325 328
342 343 339 337 337 335 334 333 332 332 331 331 330 330 330 328 328 326 321 322 326 324 316 309 309 309 309 312 317 319 320 328 332 331 328 328 327 324 321 320 317 318 324
343 343 339 337 337 335 334 335 335 332 332 331 331 329 327 326 322 320 322 323 323 323 314 312 312 312 311 312 316 324 324 321 331 331 329 328 329 327 322 320 318 318 318
341 342 340 338 336 335 334 334 334 335 334 332 330 326 325 321 320 320 318 317 317 313 312 312 311 311 311 314 319 328 328 325 326 330 326 325 326 324 321 320 319 318 318
341 341 339 337 336 333 334 334 335 333 330 328 330 324 321 319 319 314 312 310 310 313 313 312 311 311 313 317 319 323 329 329 329 329 323 323 321 318 316 315 315 315 316
341 341 339 337 333 334 335 334 332 331 327 328 325 320 318 317 313 311 311 311 313 313 312 312 313 313 315 317 317 320 326 329 326 318 316 316 316 312 312 312 312 313 313
339 337 336 331 333 334 333 332 331 326 324 323 319 317 317 313 311 314 314 314 314 313 312 312 313 313 314 315 317 319 320 320 313 313 315 316 317 321 314 313 313 314 315
334 332 331 331 332 332 332 331 327 323 321 318 316 316 313 312 315 314 314 314 314 313 312 313 313 315 319 319 318 320 319 319 316 315 315 316 317 319 317 314 314 314 317
331 331 331 331 330 331 332 327 324 321 317 316 315 313 316 315 316 315 314 315 315 314 314 313 314 315 320 320 320 320 319 319 319 317 316 318 319 322 318 313 313 313 315
332 332 332 329 331 332 329 325 321 317 315 314 315 317 316 317 317 317 317 317 317 317 317 316 317 320 322 322 322 321 319 318 318 317 316 315 317 320 318 315 315 314 313
331 330 330 331 332 331 327 323 319 315 314 316 319 321 323 322 321 320 321 320 321 320 321 320 321 323 323 322 321 320 319 318 317 316 316 314 316 319 318 317 316 314 313
330 325 331 330 332 329 325 320 317 314 318 319 323 325 328 327 326 324 324 324 325 324 324 323 322 324 322 321 320 319 318 318 317 316 315 315 314 317 318 316 314 313 313
324 330 329 330 330 325 319 318 315 318 323 325 326 327 328 328 328 328 329 328 327 327 326 324 322 320 319 317 317 316 316 315 315 314 313 308 309 314 317 315 315 314 311
328 331 331 330 327 319 317 317 321 323 323 326 330 330 329 329 328 327 326 325 323 322 322 320 320 318 317 315 314 313 311 310 310 308 306 306 305 309 313 315 314 312 310
328 330 331 329 322 322 319 326 327 326 328 330 330 329 328 327 326 325 325 323 322 321 319 317 316 315 314 312 311 310 307 306 305 305 305 305 304 306 313 313 310 309 308
328 329 332 329 325 324 324 324 326 328 331 330 329 328 327 326 326 325 324 322 319 317 315 313 312 311 311 310 307 305 303 303 302 303 304 303 303 305 308 309 308 307 306
327 326 325 326 326 327 327 328 330 330 329 328 325 324 325 326 326 324 319 313 312 312 312 311 311 310 306 303 302 303 302 302 302 301 301 301 302 305 307 306 305 306 304
328 325 324 326 328 328 329 328 328 326 324 321 321 322 322 322 322 314 310 311 312 312 311 311 310 306 303 302 302 301 301 300 300 299 300 300 306 307 304 303 303 303 303
323 324 327 329 329 328 327 327 324 320 319 318 317 317 317 312 312 313 312 312 312 311 310 308 306 304 302 302 301 300 299 299 299 299 299 299 299 300 301 302 301 300 301
325 322 327 330 329 328 327 324 320 319 318 317 314 311 313 314 314 313 312 311 310 309 307 305 304 303 302 301 301 300 299 299 298 298 298 298 298 298 298 297 297 298 298
326 327 329 330 328 327 326 322 320 320 318 314 312 314 314 313 313 313 312 310 309 308 304 303 303 302 302 301 300 300 299 299 298 299 298 298 298 297 297 297 296 296 297
327 328 329 330 327 327 326 323 321 322 318 313 314 314 314 313 312 312 311 309 308 304 303 303 303 302 302 301 301 299 296 298 299 299 298 297 297 297 296 296 295 294 294
328 328 328 328 327 326 325 323 322 320 318 315 314 314 313 313 312 311 309 307 305 304 304 303 303 303 302 302 301 300 297 296 296 298 298 297 297 296 296 295 294 294 293
327 327 327 327 327 326 324 323 322 319 315 315 314 314 313 313 312 310 307 305 304 304 304 303 303 302 302 302 301 300 300 299 295 294 297 298 297 296 296 295 294 293 292
328 328 328 328 326 324 323 326 324 318 315 315 314 314 313 312 311 309 306 305 304 303 302 301 300 300 301 301 301 300 300 299 298 295 295 295 296 296 296 294 293 292 291
330 330 329 327 326 325 326 326 322 317 316 315 314 313 312 307 306 306 304 303 302 302 301 300 299 298 297 298 300 300 299 298 297 297 295 294 293 295 295 293 292 291 290

GFSSE_925_thetae_063.txt.gz
Theta_e
344 343 341 334 332 330 326 327 328 332 336 337 336 335 331 329 326 324 321 317 315 314 314 320 320 314 316 319 325 330 330 330 328 328 327 330 330 326 319 318 319 324 331
343 344 338 334 333 330 325 327 331 337 336 333 331 328 326 323 320 317 315 313 309 310 313 323 316 316 318 321 320 324 331 331 328 327 326 326 327 326 319 318 318 322 326
343 343 338 336 333 329 327 330 333 333 331 331 327 323 321 317 315 314 312 309 312 317 321 323 319 317 320 327 326 323 325 330 329 325 324 324 324 322 320 318 318 317 322
344 341 338 336 333 328 330 331 333 331 331 327 324 322 317 316 315 311 309 310 315 318 316 317 316 319 320 326 326 325 322 329 327 323 322 322 325 322 314 313 313 314 315
342 340 340 336 332 329 333 332 335 333 330 325 323 317 316 316 311 309 310 312 313 311 311 313 316 318 319 323 328 327 326 329 325 319 318 319 319 322 312 312 312 312 312
341 340 338 335 333 333 332 334 332 329 326 325 320 316 316 312 311 310 312 313 312 312 313 313 314 315 319 320 323 326 329 322 314 315 317 319 320 322 314 313 313 313 315
341 340 337 334 333 334 333 332 330 323 324 323 318 316 313 311 313 312 313 312 312 312 313 314 316 318 318 320 319 319 316 313 314 316 318 320 321 324 317 313 313 313 313
338 337 334 331 331 332 332 330 323 320 321 318 317 315 311 314 314 313 314 313 312 313 313 314 319 319 320 320 319 319 318 316 316 315 317 319 320 323 323 317 314 313 312
335 332 329 330 331 331 331 325 320 320 317 315 315 312 314 315 314 314 314 314 314 314 314 315 320 322 322 321 320 319 318 319 317 316 316 316 317 320 320 320 320 315 313
331 330 331 331 330 331 327 322 320 317 315 316 313 314 317 316 316 316 317 317 317 318 317 318 322 322 321 321 319 319 318 318 317 316 315 317 320 320 320 320 318 314 312
331 330 325 326 328 330 325 323 319 316 317 315 316 316 318 319 319 320 320 320 320 320 320 321 323 322 321 320 318 318 317 316 316 315 315 314 316 319 320 319 316 314 311
331 324 324 327 330 329 325 321 317 316 315 318 320 319 321 322 323 323 324 324 324 323 323 323 323 321 320 319 318 317 315 314 313 312 313 311 315 317 319 318 315 313 310
328 324 324 325 326 329 324 321 317 317 318 321 323 326 326 328 327 328 328 327 327 325 324 322 321 319 317 316 315 314 311 310 308 306 305 305 306 314 317 317 316 313 310
327 321 323 326 330 328 322 319 317 319 320 324 326 328 328 327 328 327 327 325 325 322 320 319 318 316 314 312 312 310 308 306 305 305 305 305 305 308 315 315 314 311 309
326 327 327 326 330 325 322 319 319 323 325 329 330 329 329 328 327 325 323 322 321 319 318 317 315 312 310 309 307 305 304 303 303 302 302 303 303 306 312 313 311 310 309
326 328 329 329 328 321 319 320 323 325 328 330 329 329 328 327 325 324 322 320 318 317 313 311 310 308 304 303 302 302 302 301 301 300 300 300 301 304 311 310 309 308 307
326 328 330 329 324 322 321 325 326 328 330 330 328 328 327 326 325 323 321 316 313 312 311 310 309 305 303 301 300 300 300 300 299 300 300 303 304 309 308 306 306 306 305
325 327 330 331 325 325 324 325 327 329 330 329 326 325 326 325 323 317 313 312 312 311 310 309 306 303 302 301 300 300 299 299 299 299 299 300 306 306 303 302 304 304 303
328 327 328 330 326 327 326 328 329 328 325 323 323 323 322 319 312 311 311 311 311 310 309 307 304 303 302 301 300 300 299 298 298 298 298 298 298 298 299 299 302 300 302
327 325 325 326 326 327 328 326 324 321 319 319 319 319 314 312 313 312 311 311 310 310 308 304 303 302 301 301 300 301 299 298 298 298 298 298 297 297 297 297 297 297 298
326 325 326 326 327 327 324 321 319 318 317 316 314 313 313 313 313 312 311 310 310 309 305 303 302 302 301 301 300 300 299 298 298 298 298 297 298 297 296 296 296 296 296
325 324 327 328 327 326 325 322 320 319 317 314 312 313 313 313 313 312 311 309 308 305 303 303 303 302 302 301 301 298 296 298 298 299 298 298 297 297 296 295 295 294 293
325 324 325 328 327 326 325 322 321 319 317 312 314 313 313 313 312 311 310 307 306 304 303 303 303 302 302 301 301 300 297 296 296 298 298 297 297 297 296 295 294 294 293
325 325 325 327 327 326 325 321 321 321 316 313 314 314 313 312 312 311 308 306 304 303 303 303 302 301 301 301 300 300 300 299 295 294 297 297 297 297 296 296 294 293 292
326 326 326 326 326 326 324 323 322 320 318 315 314 313 313 311 309 308 306 304 304 303 301 301 300 299 299 299 300 300 300 299 297 294 292 295 296 295 295 296 294 292 291
327 326 326 325 327 326 325 322 323 321 317 314 314 313 312 310 309 307 305 303 303 304 300 298 297 296 296 296 296 297 299 298 297 295 291 294 294 295 294 294 293 291 290

GFSSE_925_thetae_066.txt.gz
Theta_e
343 343 337 332 335 331 330 331 329 328 328 328 329 328 327 325 323 320 317 321 323 325 324 318 320 320 326 330 329 329 328 327 326 326 330 329 328 325 318 317 317 318 323
345 342 337 331 329 328 329 335 336 336 335 334 330 327 324 322 320 316 314 321 325 325 322 319 320 320 321 328 331 330 327 326 325 323 323 326 327 323 317 317 317 318 316
345 341 337 331 329 329 331 335 335 333 330 328 327 324 321 316 314 311 310 322 325 324 322 323 324 327 326 321 329 329 329 325 323 321 320 320 324 325 318 313 314 316 320
344 340 337 332 329 327 328 331 331 330 326 326 323 319 318 318 312 310 314 321 323 323 324 321 324 326 325 323 326 329 328 322 318 316 317 318 320 321 316 314 313 313 314
343 339 336 331 329 329 331 331 330 328 324 322 318 316 317 315 313 313 315 321 323 324 324 320 322 325 325 324 325 329 325 316 313 314 316 319 322 324 321 314 313 313 314
341 339 336 331 331 332 333 332 333 323 322 320 315 317 316 316 313 316 318 322 323 322 316 318 319 320 323 326 327 327 316 314 315 316 317 319 322 324 319 314 314 314 314
341 338 335 331 332 333 333 331 328 321 325 316 319 318 313 314 316 315 313 314 314 315 317 318 319 319 319 319 320 315 314 315 316 317 318 318 320 324 320 314 314 313 312
339 337 335 330 330 333 331 328 319 325 317 315 318 313 314 315 315 313 312 313 313 315 318 319 319 319 319 319 317 315 316 316 316 316 316 317 318 322 322 318 314 313 312
337 336 332 332 332 330 329 325 328 323 314 318 316 314 315 315 314 314 314 313 314 314 319 321 322 320 320 319 318 318 318 317 316 316 316 318 319 321 321 322 319 314 311
334 332 332 331 330 328 327 327 324 316 316 317 314 316 316 316 316 316 316 316 316 317 320 321 321 320 319 319 318 318 317 316 316 315 316 319 319 321 321 320 317 312 310
330 329 331 329 327 325 325 326 319 314 316 314 316 316 316 317 318 319 319 319 320 320 321 322 321 319 319 318 317 316 316 315 315 315 314 314 318 320 320 319 315 312 311
328 328 328 325 320 324 327 323 318 317 315 316 318 318 319 320 321 322 322 322 322 322 322 321 320 318 317 316 314 314 312 311 310 310 309 308 312 317 319 318 316 311 310
323 324 323 325 326 327 325 320 317 316 319 317 319 321 323 324 326 326 325 326 325 323 321 320 319 317 316 313 311 309 308 307 306 306 306 306 307 314 318 317 315 313 311
323 320 320 321 324 329 324 319 317 317 320 323 325 325 327 327 328 327 327 326 323 321 319 318 317 314 313 312 309 308 306 305 304 304 303 303 304 309 316 316 314 312 310
323 321 319 318 321 329 324 319 318 319 321 324 327 328 327 328 326 325 324 322 320 318 318 315 313 311 308 306 304 303 302 301 300 300 299 299 301 307 312 313 312 310 309
323 323 320 324 327 328 323 319 319 321 324 327 329 328 328 328 326 323 320 319 317 316 313 310 307 305 302 301 300 300 299 299 299 299 299 300 303 308 311 310 309 308 307
324 326 325 327 328 327 322 318 320 324 329 330 329 329 327 325 324 322 320 318 314 311 310 309 305 302 301 300 300 299 299 298 298 299 300 304 307 309 307 306 307 306 305
323 325 328 329 330 324 320 320 325 327 329 329 328 327 326 324 323 321 318 313 311 310 309 307 304 301 300 300 299 300 299 298 298 298 298 299 305 305 303 303 304 304 303
323 325 327 328 328 323 321 324 326 329 329 328 326 326 325 323 320 317 312 311 310 310 308 305 302 301 300 300 300 301 299 298 298 298 297 297 297 297 297 298 301 302 301
323 325 325 328 328 325 324 326 327 328 326 324 324 324 323 319 313 311 311 310 310 309 308 303 302 301 301 301 300 301 299 298 298 298 298 297 297 297 297 296 296 297 297
327 327 326 328 328 326 326 326 325 323 322 321 320 319 315 312 311 311 311 310 309 308 305 302 302 301 301 301 300 300 298 298 298 298 298 297 297 297 296 297 296 296 296
327 326 325 326 326 326 326 326 324 320 318 318 318 314 312 313 312 312 311 310 308 305 303 302 302 302 301 301 300 298 296 298 298 298 298 298 297 297 297 297 295 295 294
326 327 326 325 325 325 325 323 320 317 317 313 313 313 313 313 313 311 310 308 306 303 303 303 303 302 302 301 300 300 296 296 295 298 298 297 297 297 296 296 295 294 293
324 325 325 325 326 325 325 322 321 318 315 313 312 313 313 312 311 310 308 306 304 303 303 303 302 301 300 300 300 300 299 298 295 295 297 297 297 297 296 294 294 295 293
324 324 324 324 325 325 324 322 321 319 318 315 313 313 313 312 310 309 307 305 304 303 302 301 300 299 297 297 298 298 299 299 297 294 293 295 296 296 296 292 295 295 292
324 324 324 324 324 325 324 322 321 321 319 316 313 313 312 310 309 308 306 305 303 303 302 299 297 295 295 295 295 295 296 297 297 295 291 292 293 295 294 293 293 293 290

GFSSE_925_thetae_069.txt.gz
Theta_e
343 340 330 329 327 332 337 338 337 333 328 326 325 326 326 325 322 318 315 314 316 325 323 318 322 330 334 331 328 328 327 326 325 325 328 328 325 323 317 319 323 323 326
342 339 332 329 326 326 327 328 327 326 326 327 326 326 324 321 317 316 314 311 314 321 320 320 328 332 333 329 327 326 325 322 320 320 325 326 326 323 314 313 317 323 325
341 339 337 331 328 327 325 325 326 328 329 328 326 323 320 319 320 321 319 317 324 327 329 325 322 327 329 329 327 325 322 319 318 317 323 322 322 324 323 317 314 316 320
341 339 339 335 330 329 328 329 330 330 327 325 322 319 324 322 323 324 322 320 325 327 325 326 326 322 328 329 328 323 319 316 315 319 322 322 322 324 321 318 317 318 323
341 338 337 335 335 336 336 336 336 335 325 324 317 320 325 324 326 324 321 322 323 321 324 324 323 323 327 329 327 320 315 314 314 321 322 323 323 324 319 318 321 318 314
340 338 335 333 335 336 336 336 335 328 325 324 319 322 324 327 327 323 323 321 321 322 323 324 323 323 327 328 324 315 315 315 320 323 323 323 323 324 322 315 314 313 313
339 338 332 331 334 335 333 328 323 322 322 319 319 324 324 325 324 323 321 318 318 319 319 321 323 325 326 325 315 316 316 316 322 322 323 323 323 324 323 316 314 313 312
339 336 332 329 331 332 330 324 321 322 317 317 315 317 316 318 318 318 316 317 318 318 319 319 319 319 319 315 315 316 316 317 321 321 322 322 321 323 323 320 313 312 310
338 335 332 331 332 330 326 325 322 317 319 317 310 313 315 314 314 315 315 316 319 320 320 319 319 318 317 317 318 317 316 316 320 320 321 321 321 322 322 320 315 312 311
335 335 334 333 329 325 324 327 325 322 319 311 314 315 315 314 314 314 315 317 320 321 321 320 319 319 318 318 318 317 316 316 318 319 318 318 320 322 321 316 313 311 312
332 332 331 329 327 324 323 322 322 320 313 313 315 315 315 316 316 316 317 318 321 321 320 319 319 319 318 317 317 316 316 316 316 316 315 314 318 321 321 318 314 313 313
331 328 326 324 322 320 318 318 319 317 313 316 315 316 317 317 317 319 320 321 321 321 320 319 318 317 317 315 314 314 312 311 311 309 310 309 310 318 320 318 316 314 313
328 329 325 323 320 317 320 322 320 318 316 317 317 318 319 321 321 321 322 323 321 320 317 316 315 314 313 312 310 309 308 307 306 305 305 305 306 311 319 318 315 313 312
324 322 320 320 318 318 324 320 319 318 317 319 319 322 323 324 325 325 325 324 321 319 318 316 314 312 311 309 307 305 303 302 302 302 301 300 302 310 317 317 314 311 310
323 322 323 323 323 327 323 319 317 319 317 319 323 325 326 327 327 327 323 320 318 318 317 315 312 309 305 303 301 300 299 299 299 299 300 299 301 308 312 314 312 311 309
321 321 322 319 321 326 324 320 317 319 322 324 326 327 327 327 326 323 320 319 317 316 313 310 306 303 301 300 299 299 299 298 298 299 305 307 305 308 311 311 310 309 308
321 319 319 321 324 328 325 319 318 319 322 325 326 328 327 325 322 321 318 316 314 311 309 307 304 301 300 299 299 299 299 298 299 298 301 305 306 308 308 307 308 306 305
323 320 320 323 326 328 324 318 319 322 326 328 328 327 326 324 322 320 318 314 311 309 308 305 302 300 299 301 300 299 299 299 298 297 297 299 301 302 302 302 303 304 304
324 324 325 327 327 328 323 318 320 324 328 328 327 327 326 323 321 320 317 312 310 309 307 303 301 300 302 302 301 301 299 299 299 299 298 297 297 297 298 297 297 300 300
324 325 326 327 329 327 321 321 325 328 328 327 326 326 324 323 321 316 312 310 309 308 306 302 302 301 301 302 301 301 300 299 298 299 299 298 298 296 297 297 297 297 296
324 324 324 326 328 325 322 324 325 326 326 325 324 324 323 320 315 312 310 310 309 308 303 302 302 302 302 301 302 302 300 299 299 299 299 299 298 297 297 297 296 297 296
325 324 324 325 327 325 323 323 324 325 323 323 321 321 318 314 311 311 310 309 308 306 303 303 303 303 302 301 303 301 302 300 299 299 299 299 299 297 297 297 296 296 296
327 326 326 326 327 327 324 324 324 322 320 318 317 314 312 312 312 311 310 309 307 304 303 303 303 303 303 301 301 301 300 299 299 299 299 298 298 298 298 297 296 295 295
326 325 326 325 325 325 325 324 324 320 317 315 315 314 312 312 312 311 310 308 306 304 303 303 303 302 301 302 301 300 300 300 299 298 298 298 298 298 298 297 295 294 295
325 325 325 325 324 324 324 324 322 319 317 316 314 313 313 313 312 310 309 307 305 303 303 303 301 300 298 299 298 298 298 298 298 298 298 298 297 297 297 296 294 294 293
324 324 324 324 324 324 324 323 321 320 319 316 313 312 312 311 310 310 309 305 304 303 303 301 298 296 295 295 297 297 297 297 297 298 298 296 296 295 296 295 294 293 292

GFSSE_925_thetae_072.txt.gz
Theta_e
344 338 338 342 343 342 339 335 335 333 330 329 335 331 328 325 322 318 317 319 323 327 332 336 336 336 334 328 326 323 319 319 320 321 325 327 326 326 322 323 323 324 327
344 337 337 341 342 341 337 336 336 332 331 334 338 329 325 320 316 315 317 319 320 330 333 335 332 330 327 326 325 322 319 318 319 323 321 316 319 319 312 313 317 322 325
342 336 337 339 341 338 337 337 333 330 330 331 329 325 320 315 315 317 319 323 325 322 326 328 332 332 329 327 324 319 316 314 320 321 322 322 323 326 323 318 321 325 325
341 336 336 335 338 338 337 332 330 330 329 328 325 319 316 314 316 318 323 324 324 326 328 330 334 333 327 325 320 316 314 317 322 323 323 323 324 326 326 325 321 318 324
340 336 336 330 331 331 330 331 332 329 327 325 321 318 317 318 319 319 323 323 326 333 333 330 333 329 329 323 316 314 314 320 323 323 323 323 323 324 320 318 321 317 314
340 338 335 329 329 329 331 332 330 327 325 326 322 320 320 320 319 321 324 324 327 329 325 328 327 328 328 320 315 315 317 322 323 323 323 323 324 325 323 317 315 315 316
340 339 336 331 330 332 333 332 328 324 325 323 323 324 323 321 321 321 322 322 324 325 323 323 327 329 326 316 316 316 319 322 322 322 322 322 323 325 323 319 316 317 319
340 338 337 332 334 335 336 333 325 321 319 321 323 323 322 320 320 319 319 320 320 323 324 324 327 327 318 315 317 317 318 321 322 321 321 322 322 324 322 319 316 315 317
338 337 336 333 335 334 333 330 325 320 320 316 316 318 317 319 317 316 317 318 319 319 319 321 322 318 315 317 317 317 317 319 321 321 319 320 321 323 322 319 317 316 316
336 335 334 333 332 329 326 327 326 324 321 316 315 315 316 315 315 316 318 319 319 319 319 319 318 316 317 318 317 317 317 319 320 318 318 319 322 322 321 318 316 315 315
334 333 333 332 327 323 323 326 326 323 317 317 316 314 316 319 320 321 321 321 321 320 319 319 318 318 318 317 317 316 317 318 318 316 315 316 317 322 321 318 316 315 315
330 328 330 326 323 322 323 323 325 320 322 321 320 321 321 322 322 323 322 321 321 320 319 318 318 318 317 317 314 314 315 314 312 311 311 308 311 318 320 318 315 314 313
327 326 326 324 322 320 318 318 318 323 322 323 322 321 323 324 324 325 323 322 320 319 316 316 316 316 315 315 314 312 311 309 308 307 306 304 305 307 319 318 315 313 312
327 325 323 322 320 320 318 316 313 322 324 323 323 324 326 325 327 327 325 322 319 318 317 316 315 314 312 311 309 307 306 305 305 304 306 299 300 307 318 317 314 312 310
323 322 321 321 321 321 319 322 321 317 318 323 325 327 327 328 329 327 324 320 319 317 318 316 314 312 309 307 306 305 304 304 304 305 308 302 302 309 313 315 313 311 310
320 320 317 317 314 313 314 318 321 320 320 324 327 330 331 330 328 324 321 321 318 318 316 314 311 308 306 306 305 304 303 303 303 304 306 308 305 308 311 311 311 310 309
321 320 319 320 322 323 324 323 322 323 324 326 329 330 327 327 325 323 322 320 317 314 312 309 308 307 305 304 304 303 303 303 303 302 302 305 306 305 308 307 308 307 306
323 323 323 322 326 326 325 322 322 324 327 329 330 330 327 325 323 322 320 317 314 312 310 309 307 306 306 305 305 304 303 303 302 302 301 301 301 300 302 302 303 304 304
322 321 321 323 328 328 327 323 323 326 329 330 329 330 328 325 322 321 319 316 313 311 311 308 307 307 307 306 305 305 304 303 302 301 301 301 301 299 299 299 297 297 298
321 321 322 326 326 329 328 326 326 328 329 329 329 328 325 323 321 320 318 316 313 312 309 308 308 307 307 307 305 305 305 303 302 302 302 300 301 300 299 299 299 298 297
323 324 326 329 330 330 327 324 325 327 328 326 326 325 323 320 320 319 317 314 312 311 309 309 309 309 308 307 307 308 306 304 303 302 302 301 301 300 300 299 299 298 298
325 326 327 329 330 329 325 324 326 328 326 327 326 322 320 319 318 316 315 313 312 311 309 309 309 309 308 306 307 306 307 305 303 302 301 301 301 300 299 299 299 298 297
325 325 327 328 329 329 328 324 327 327 325 325 324 319 317 318 315 315 314 313 312 310 309 309 309 309 309 307 305 304 304 304 301 301 301 301 300 300 299 299 298 298 297
327 326 326 327 329 330 329 327 325 325 326 325 322 318 315 313 314 314 313 312 311 309 309 308 309 308 307 307 305 303 301 300 300 300 299 300 300 300 299 299 298 297 296
327 328 329 329 330 330 329 328 327 327 326 321 318 316 314 314 314 313 312 312 310 309 308 307 307 306 305 303 301 300 300 300 300 300 302 300 299 298 298 298 298 297 296
329 330 329 329 329 328 328 328 327 327 323 319 317 316 315 315 315 313 312 311 310 308 307 307 304 302 301 300 299 299 298 298 299 299 300 298 297 296 296 297 296 296 295

GFSSE_925_thetae_075.txt.gz
Theta_e
342 339 341 344 344 341 336 333 336 334 333 332 330 329 327 327 326 327 325 325 329 335 338 338 337 337 335 325 319 318 316 314 313 314 321 325 324 323 320 321 322 323 327
341 339 341 344 343 341 336 335 335 334 333 330 329 328 326 325 323 321 321 324 331 336 338 337 337 335 325 319 316 314 318 322 323 323 323 321 326 326 326 326 324 326 327
341 339 342 343 343 341 337 336 335 334 337 332 328 326 323 321 320 318 321 327 333 337 338 337 335 328 322 317 315 314 320 321 322 323 324 324 325 327 325 318 326 328 326
340 339 341 342 342 341 338 337 337 338 337 329 326 322 319 318 316 317 320 325 332 336 337 337 333 326 321 317 315 315 321 322 323 324 324 323 323 325 325 324 320 317 323
339 338 341 342 341 340 339 338 337 337 335 327 322 320 318 316 317 320 323 329 332 335 336 336 333 326 321 316 315 318 322 323 323 323 323 324 323 324 322 315 319 319 321
339 338 339 340 340 340 338 337 336 336 329 324 321 320 318 319 321 324 327 332 334 334 335 335 329 325 318 315 315 321 322 323 324 323 324 323 324 324 321 319 318 319 319
339 339 338 340 340 338 336 336 335 329 324 320 320 319 320 321 323 323 326 331 329 334 334 330 329 324 315 316 317 320 321 322 322 322 323 323 324 324 321 319 318 318 318
339 339 337 336 336 336 336 335 329 325 321 320 320 320 318 319 322 322 324 325 323 324 327 328 328 322 315 317 317 318 321 322 322 320 322 323 323 323 321 318 317 317 316
339 337 336 333 333 336 335 330 327 323 321 321 317 316 316 318 319 321 321 323 323 323 325 328 326 316 317 317 317 317 319 321 321 320 320 320 322 323 321 318 316 316 315
333 334 333 332 331 333 329 327 330 328 327 325 321 318 316 317 318 319 319 319 320 323 326 325 318 315 317 317 317 318 320 320 319 318 320 321 322 322 321 318 316 315 315
332 333 334 333 333 326 324 327 328 327 327 322 320 318 316 316 318 323 320 319 319 319 319 317 316 318 318 317 318 317 317 317 315 315 316 314 320 322 321 318 316 315 314
330 332 332 326 321 320 323 324 325 324 324 322 319 319 319 318 324 324 321 321 319 319 318 318 318 318 319 318 317 317 316 314 312 311 309 308 310 318 320 317 315 314 312
328 327 327 320 318 317 318 317 321 323 323 321 320 320 321 325 323 323 322 322 320 319 318 318 318 319 319 319 318 314 311 310 309 308 307 301 302 309 319 317 314 313 311
326 324 323 321 322 323 324 323 324 323 323 322 322 323 326 325 325 324 324 323 322 321 320 320 319 318 317 314 311 309 308 308 307 307 311 299 299 308 320 317 314 312 311
325 323 322 320 319 318 317 314 315 316 318 318 324 325 325 325 327 326 326 324 323 322 321 320 319 317 312 310 309 308 307 307 307 308 312 305 301 309 314 315 314 312 310
320 322 322 321 318 318 317 316 315 318 324 324 325 327 328 327 327 327 326 324 322 322 321 320 317 312 310 309 308 307 306 306 306 306 307 309 304 305 311 311 311 311 309
319 320 320 319 319 320 318 315 313 320 324 323 322 329 330 328 329 326 325 323 323 321 318 315 311 310 309 308 308 307 306 306 305 305 304 306 308 304 302 308 309 308 308
319 318 318 318 317 316 315 316 318 322 323 326 328 328 331 329 328 327 326 323 320 318 316 312 311 310 310 310 309 308 307 306 305 304 304 304 303 301 303 301 301 304 304
322 319 319 317 317 320 324 323 322 324 324 325 327 328 329 328 327 326 324 322 319 316 314 312 311 312 311 310 309 309 308 307 306 303 304 303 303 303 301 301 299 299 297
323 322 323 323 323 324 326 323 323 325 326 328 329 328 329 328 327 325 323 321 318 315 313 312 312 311 312 311 311 310 310 308 306 305 305 304 303 303 302 302 301 301 299
323 323 322 324 324 326 328 326 324 324 328 329 329 330 329 327 326 324 322 320 317 315 313 313 313 313 312 311 311 312 310 309 307 306 305 304 303 303 302 302 301 301 300
323 322 323 326 328 329 327 324 322 324 328 329 329 328 326 324 323 324 322 319 316 314 313 313 313 313 313 311 311 310 311 309 307 306 305 304 304 303 303 302 301 301 300
324 324 325 327 329 330 326 323 324 325 327 328 327 327 325 323 323 322 320 318 315 314 313 313 313 313 313 312 310 309 309 309 305 304 304 303 304 303 303 302 301 301 300
326 327 328 328 330 330 330 325 325 328 328 327 327 326 321 320 319 320 319 316 316 314 313 313 313 313 311 311 309 307 306 305 306 305 303 303 302 302 302 301 301 300 300
327 327 327 328 328 329 330 330 327 327 326 327 326 323 319 320 318 318 317 316 316 313 313 312 311 311 309 307 305 304 304 303 302 303 304 303 302 301 299 299 299 299 299
328 329 329 328 328 329 331 331 329 328 327 327 325 320 318 318 316 317 316 315 315 313 312 311 310 309 306 304 304 303 302 301 301 302 303 302 300 299 298 298 298 299 298

GFSSE_925_thetae_078.txt.gz
Theta_e
342 342 343 344 338 335 333 330 331 330 329 329 328 328 327 327 326 326 327 332 335 336 338 337 334 325 316 313 313 315 314 314 315 318 326 327 327 327 326 326 326 327 327
341 343 344 344 340 336 334 332 332 331 330 329 328 327 327 326 324 325 326 332 336 337 337 336 334 322 315 315 320 322 323 323 324 324 325 327 327 325 326 327 326 326 326
341 344 344 343 341 337 334 334 333 333 331 329 327 327 325 321 321 324 329 333 334 336 336 335 332 318 315 317 320 321 322 324 325 325 324 324 326 326 325 321 324 325 324
341 344 344 343 341 340 337 336 337 337 330 328 327 325 321 319 322 328 332 334 335 335 336 335 329 316 316 317 321 322 322 322 323 325 324 323 323 323 322 322 321 321 322
340 343 344 342 341 340 339 337 337 337 330 328 325 320 319 320 325 327 332 334 335 335 336 333 318 316 316 319 322 323 323 323 324 323 324 323 323 322 320 318 318 320 321
340 343 343 342 341 339 338 337 338 333 329 325 321 319 320 322 325 327 331 334 334 335 335 325 318 315 315 319 321 322 322 322 324 324 323 322 323 322 320 319 318 318 319
340 341 341 341 340 339 338 336 335 331 327 323 321 320 322 323 326 332 332 332 334 333 331 325 318 315 316 318 318 320 322 321 322 323 323 321 323 322 319 318 317 317 317
339 341 340 340 340 339 337 336 334 328 324 323 321 319 320 323 326 329 327 331 333 332 329 326 318 315 317 318 318 320 321 321 321 324 323 319 323 322 319 318 317 316 315
333 340 341 339 338 338 336 335 330 326 324 321 319 318 321 323 325 325 322 327 331 328 328 325 317 316 317 318 318 319 320 320 320 321 321 320 323 322 319 317 316 315 314
328 324 336 337 337 336 335 332 329 327 325 320 319 319 321 322 322 323 322 323 324 326 327 324 315 317 318 318 319 319 318 318 317 319 313 318 321 322 319 317 316 314 313
326 326 325 329 334 332 331 329 328 326 324 322 322 321 321 320 320 320 322 323 323 325 324 317 316 318 318 318 317 317 316 315 314 315 310 316 322 322 319 317 315 313 312
330 331 330 330 330 328 327 326 326 326 325 323 321 319 321 322 321 319 319 319 319 320 318 316 319 319 319 318 317 316 313 312 311 310 306 305 311 318 319 316 315 312 311
328 329 330 329 324 326 327 326 326 325 324 321 318 320 324 325 323 319 319 319 319 318 318 319 319 319 319 319 318 312 310 309 309 309 308 301 300 315 319 316 314 312 311
326 326 326 323 322 322 320 315 313 315 318 316 320 320 324 324 321 321 322 319 319 319 319 319 320 319 318 316 310 309 308 308 307 310 310 304 300 318 319 316 314 312 311
325 322 321 319 318 316 316 317 320 320 314 323 323 323 325 323 321 323 324 322 322 321 321 320 320 317 313 310 309 308 307 307 307 311 310 308 300 310 317 316 314 312 311
322 322 322 320 319 317 319 322 322 321 321 322 324 323 324 326 325 326 324 324 323 322 321 320 319 315 311 310 308 307 306 307 306 306 310 308 306 302 308 311 312 311 309
320 320 318 317 316 317 317 318 318 318 318 318 320 322 326 326 326 326 325 323 322 322 322 319 315 311 310 309 308 307 307 306 306 305 306 308 306 304 302 302 309 309 308
320 319 318 316 315 316 315 316 316 317 316 317 315 320 319 324 327 327 324 323 324 321 319 316 311 311 310 310 310 308 307 306 306 305 304 304 305 303 303 301 300 299 301
319 319 318 317 316 316 316 315 314 313 318 320 320 319 322 325 328 326 326 324 321 320 316 313 312 311 311 310 310 309 309 308 307 305 304 304 303 303 303 302 301 301 300
319 318 317 317 317 316 315 313 316 321 322 321 321 323 324 328 328 326 325 322 320 317 314 312 312 312 312 312 312 311 309 309 307 306 305 305 304 303 303 302 302 302 300
319 318 318 317 317 316 320 322 323 323 324 321 318 323 325 328 328 326 324 322 319 316 314 313 312 312 312 312 311 312 312 311 308 306 306 305 305 304 303 302 302 302 301
321 321 321 321 320 322 323 325 324 325 324 322 324 326 327 327 327 326 324 322 319 316 314 313 313 314 314 312 312 311 310 310 308 307 306 305 305 304 303 303 302 301 301
324 324 325 325 324 326 325 327 324 325 325 326 326 327 328 327 326 325 324 321 318 316 313 313 313 314 314 312 311 310 309 308 306 306 306 305 304 304 303 303 303 302 301
325 324 324 324 327 329 328 326 324 325 327 328 327 327 327 325 323 324 323 320 317 315 314 313 314 314 313 312 311 310 308 306 304 303 304 304 304 303 302 302 302 301 301
324 323 324 325 328 329 329 328 323 326 327 327 328 327 325 323 323 324 321 319 316 316 314 314 314 313 312 311 308 306 305 305 305 304 300 303 303 303 301 299 298 299 299
327 325 326 328 330 330 330 328 327 328 327 328 328 326 324 321 321 321 320 318 316 315 314 313 312 311 310 308 306 305 304 303 302 302 301 302 301 300 299 298 298 298 298

GFSSE_925_thetae_081.txt.gz
Theta_e
341 343 343 334 331 328 325 326 326 327 328 328 330 326 324 323 326 329 331 333 334 336 334 326 314 312 316 320 318 318 318 316 317 322 326 327 327 327 327 326 326 326 326
342 345 344 335 332 329 326 327 327 328 329 330 327 325 324 324 325 330 333 334 334 335 331 316 314 318 321 321 322 324 325 324 322 320 325 327 326 325 325 326 324 325 326
339 336 344 338 334 332 330 331 330 330 330 328 326 325 323 321 325 331 334 335 335 334 330 318 316 319 321 322 323 326 327 328 324 322 318 322 323 323 322 322 323 323 324
335 337 341 342 338 337 335 334 333 331 330 328 326 323 320 321 326 333 334 334 333 334 330 319 316 319 321 321 322 322 323 324 325 323 318 320 321 321 320 320 321 322 323
332 333 331 341 339 338 338 336 331 329 328 326 323 319 320 323 330 333 334 333 333 332 329 317 317 320 321 322 322 322 322 324 323 321 313 317 320 320 320 319 320 320 321
326 326 325 338 338 337 337 336 329 328 327 324 318 318 321 326 332 334 334 333 333 332 326 316 317 321 322 322 321 321 323 323 322 315 316 320 321 320 319 318 318 318 318
329 330 335 340 338 337 336 335 330 329 326 320 317 318 320 325 331 333 334 333 332 324 316 316 317 318 319 319 321 320 323 324 323 319 319 320 321 320 318 317 316 317 317
332 337 339 340 338 338 337 335 330 327 323 319 319 319 322 325 330 332 333 332 329 322 316 316 317 318 317 318 321 320 320 323 322 319 319 321 321 320 318 317 315 316 316
329 325 326 340 338 338 337 333 329 325 323 320 318 320 324 329 331 332 332 332 328 323 318 315 317 318 318 317 320 319 318 321 321 317 319 321 321 320 318 316 314 314 315
330 329 326 329 337 337 335 331 327 325 321 319 318 322 327 328 328 331 332 330 326 324 320 315 317 318 319 318 318 317 314 319 315 311 311 319 322 320 318 316 314 313 314
325 327 325 327 334 335 332 329 326 323 320 320 323 324 326 326 326 330 330 326 325 324 320 316 318 318 319 317 316 316 312 313 312 309 307 317 322 320 318 316 313 312 313
326 326 326 331 332 332 331 327 326 326 324 323 323 322 323 324 323 322 324 325 325 323 317 317 319 319 318 317 316 313 310 310 309 308 306 305 316 320 318 316 313 312 312
328 328 328 329 329 328 330 328 327 324 322 321 321 321 320 320 322 323 323 325 323 318 317 319 319 318 319 318 313 310 308 309 309 308 308 300 308 320 317 316 313 312 311
327 327 328 329 329 329 328 327 326 322 320 321 321 321 322 319 319 318 319 319 318 317 319 318 320 319 317 316 309 308 308 307 308 310 309 303 308 319 317 315 314 312 310
323 324 325 325 325 325 324 322 320 318 315 316 316 323 324 320 320 319 319 319 319 319 319 320 319 319 314 309 308 307 307 307 308 310 308 307 302 319 317 315 314 312 311
322 322 322 320 319 319 315 313 313 312 316 323 322 323 323 320 320 321 320 320 320 320 320 320 319 317 310 309 308 307 306 306 305 307 309 307 304 303 307 311 313 311 309
321 320 320 319 316 315 315 315 319 316 323 323 322 319 323 324 323 324 323 322 323 321 321 320 317 312 310 309 308 307 306 306 305 304 307 307 305 303 302 302 306 307 308
319 318 318 317 316 318 320 321 316 320 321 318 317 319 323 326 325 326 324 324 322 321 321 319 313 310 309 309 308 307 307 306 306 304 304 305 303 302 303 302 300 300 300
319 318 318 317 318 318 317 318 319 316 315 316 319 320 319 324 326 325 324 323 322 321 320 317 313 310 310 310 310 309 309 307 306 305 304 304 303 303 303 302 301 301 301
320 319 318 318 317 316 315 315 315 316 316 316 316 317 316 317 321 325 324 323 322 320 318 315 312 311 311 311 311 309 309 309 307 306 305 305 304 303 303 302 302 302 301
319 318 317 316 314 314 315 315 314 313 317 316 315 317 318 319 322 324 326 324 320 320 316 313 311 312 312 312 311 312 312 310 309 307 306 305 305 304 303 303 302 302 301
318 318 318 316 314 313 313 315 314 315 319 319 318 320 320 322 323 324 325 323 321 318 315 313 312 312 312 312 312 310 307 309 308 307 306 306 305 304 304 303 303 302 301
318 318 317 317 317 316 315 315 319 322 323 323 322 322 320 324 325 325 325 323 321 318 315 313 312 312 313 312 311 311 306 306 305 306 307 307 305 305 304 304 302 303 302
319 319 317 317 316 316 317 321 323 323 325 325 324 321 324 325 325 325 325 323 322 318 315 313 312 313 314 312 311 310 309 307 302 302 304 303 303 304 303 303 302 302 302
319 319 319 321 321 320 321 323 325 324 324 325 324 324 326 326 326 325 324 323 321 318 315 313 313 313 314 311 310 309 306 306 306 302 300 301 302 302 300 299 299 299 299
321 321 323 324 325 324 326 326 327 323 325 326 326 327 327 327 325 323 324 322 320 317 315 314 313 313 313 312 309 307 304 303 302 301 298 299 300 301 300 299 298 297 297

GFSSE_925_thetae_084.txt.gz
Theta_e
344 341 332 330 329 329 326 330 332 333 330 327 328 328 327 328 332 333 333 333 332 330 328 327 324 325 327 327 325 320 320 323 326 327 327 327 327 326 326 326 326 327 327
343 341 334 330 326 325 327 330 331 331 329 325 323 321 322 325 329 333 333 332 328 327 327 330 326 328 329 329 324 322 320 318 320 323 325 325 324 324 324 324 324 325 325
341 343 339 339 329 327 328 329 329 329 328 323 322 321 323 325 332 333 333 331 329 327 329 330 329 329 329 327 328 328 324 321 317 316 319 321 322 322 322 323 324 325 325
339 341 339 335 337 332 330 329 331 330 326 324 322 320 323 330 333 333 333 327 323 323 328 330 329 325 325 325 324 323 324 322 316 313 314 319 320 321 321 321 322 323 324
337 339 340 335 332 338 331 330 329 328 325 324 319 319 325 332 333 334 331 321 318 322 327 327 322 322 322 321 321 323 324 319 314 313 314 317 319 320 319 319 320 322 322
334 337 335 336 328 332 333 330 329 327 326 322 319 321 328 333 333 332 328 319 318 319 320 321 321 322 320 320 322 323 323 315 315 314 316 319 319 319 319 319 318 318 318
328 329 330 336 336 333 335 330 329 327 324 319 317 321 332 333 332 331 328 319 317 317 319 321 321 319 319 322 324 323 322 321 314 316 318 319 319 319 317 317 317 317 316
330 332 329 330 336 333 337 330 329 327 322 320 318 323 332 333 333 332 329 318 316 316 317 318 318 318 319 319 323 323 323 319 318 319 319 319 319 318 316 316 316 316 315
330 330 331 326 330 332 337 333 329 325 320 319 322 325 333 334 333 332 328 318 316 317 317 317 317 317 319 316 321 323 321 318 317 318 319 320 319 318 316 315 316 315 315
330 329 325 325 321 332 335 332 327 322 320 319 319 323 331 333 333 332 327 320 316 316 317 318 318 318 318 315 316 322 319 314 312 315 318 320 319 318 316 314 315 314 313
327 326 326 326 325 330 333 329 325 323 320 321 324 327 331 333 333 332 327 322 318 316 317 318 318 318 317 314 312 315 313 311 309 310 315 320 319 318 316 314 314 313 313
325 327 332 332 334 333 332 330 330 326 324 326 330 331 332 333 332 331 327 325 320 316 317 318 319 317 316 315 312 310 310 308 307 306 311 319 319 318 316 314 313 312 312
324 326 331 330 329 331 330 330 329 325 325 327 329 327 329 331 330 328 327 325 321 316 318 319 318 318 317 314 310 309 309 308 307 307 302 312 320 318 316 314 313 312 311
327 327 330 329 325 327 326 328 326 325 324 325 325 324 323 324 326 326 326 324 317 316 319 319 318 318 317 312 310 308 307 308 309 308 305 302 318 317 316 314 313 311 310
326 328 328 328 328 327 325 323 323 323 321 321 321 321 322 321 324 325 324 320 316 319 319 319 319 317 314 310 308 307 307 308 309 309 307 306 319 318 316 314 313 312 310
323 324 327 328 327 327 326 323 321 321 322 321 321 319 318 317 319 319 319 317 318 319 319 319 319 316 312 309 307 307 307 306 306 307 306 304 310 313 312 313 313 312 310
322 322 322 323 324 324 323 320 317 316 315 314 323 323 319 318 318 319 318 319 319 319 320 320 318 312 310 309 307 306 306 306 305 305 307 305 303 302 302 302 305 305 306
320 319 320 319 319 321 320 315 313 321 324 322 323 324 320 320 320 320 320 320 320 320 320 319 316 311 310 308 307 307 306 306 305 304 305 306 304 302 302 302 301 301 301
321 320 318 318 317 316 316 316 318 322 323 322 321 320 323 323 324 323 321 322 322 321 320 319 315 311 309 308 308 307 306 306 305 305 304 304 303 303 303 303 301 302 302
319 319 317 316 317 316 319 316 317 316 320 318 316 316 321 318 323 325 324 323 322 321 321 318 312 310 310 310 309 308 307 307 306 305 304 304 304 304 303 303 302 302 302
318 318 317 317 319 318 317 314 317 319 317 317 318 317 321 320 322 324 324 323 322 322 320 316 313 311 310 310 311 310 309 308 307 305 304 304 304 304 303 303 302 302 302
319 318 317 317 317 316 315 315 316 315 315 315 315 317 319 318 319 322 324 324 322 321 318 316 312 311 312 311 311 310 307 309 309 307 305 305 305 304 303 303 303 303 302
318 318 317 316 316 315 315 315 315 315 315 316 316 317 317 317 318 321 323 324 324 321 318 315 313 311 312 311 311 310 305 305 304 306 307 307 306 305 304 303 303 303 302
318 317 317 316 315 314 314 314 315 315 317 320 318 316 316 316 318 321 323 324 324 319 319 316 313 312 312 312 311 311 310 307 302 302 304 303 303 304 304 304 303 303 302
318 317 317 316 315 314 314 314 315 318 319 319 319 318 317 318 320 321 323 325 323 320 319 316 313 312 312 313 311 310 309 307 305 302 300 302 302 301 301 301 300 299 298
318 317 318 317 317 316 315 315 316 318 321 322 324 323 323 322 321 323 325 325 324 322 319 317 314 312 313 313 312 311 308 305 303 303 300 300 300 301 301 300 299 298 297

GFSSE_925_thetae_087.txt.gz
Theta_e
340 339 330 332 329 331 331 333 331 328 336 337 335 330 329 332 335 336 334 332 330 330 330 329 329 329 329 329 329 328 327 326 326 327 327 326 326 325 326 326 326 326 326
341 341 333 332 329 335 330 334 331 327 323 324 323 324 329 333 334 333 331 327 327 331 331 330 329 329 329 328 327 327 327 325 324 325 324 324 324 324 325 325 325 327 327
345 341 337 331 331 337 334 333 331 330 322 322 323 330 333 333 331 327 323 326 331 331 331 332 331 331 329 327 323 322 320 318 318 320 321 322 323 323 324 324 324 324 327
343 339 337 329 326 332 335 333 330 329 331 332 333 334 334 333 328 323 322 329 331 331 332 332 332 331 329 324 324 319 315 313 314 314 318 320 321 322 322 323 323 324 325
340 341 339 332 324 326 329 336 329 325 325 325 328 329 333 333 327 325 325 330 332 331 332 331 328 323 321 322 324 317 313 313 314 313 316 319 320 320 320 320 321 322 323
337 340 339 333 331 324 327 329 334 325 325 324 326 331 334 334 327 324 327 330 331 330 329 325 320 320 321 323 324 315 315 313 313 313 316 319 319 320 319 318 318 318 319
334 336 339 333 329 328 329 326 332 330 324 320 327 334 334 333 325 322 323 327 327 324 323 319 320 321 322 323 321 318 315 315 315 316 318 318 318 319 318 317 317 316 316
328 332 336 334 332 330 327 327 327 331 323 322 328 333 334 332 325 321 319 320 321 321 319 319 319 322 323 323 321 320 316 316 316 317 317 318 318 318 317 317 316 315 314
328 329 331 333 333 331 327 330 328 329 323 317 332 333 333 331 325 320 318 319 320 319 317 318 317 320 323 323 322 319 316 315 314 317 318 318 317 317 317 316 315 314 314
330 331 328 330 334 333 331 329 328 328 323 324 333 333 332 331 327 319 317 317 317 317 317 317 317 316 321 323 321 318 314 314 315 317 318 319 318 316 316 316 315 314 313
329 329 329 327 326 331 333 330 328 327 331 327 333 333 332 333 329 317 316 316 317 317 318 316 316 315 319 322 318 314 311 311 312 317 318 319 318 316 315 315 314 313 312
326 326 328 326 327 325 332 330 329 327 325 332 332 333 334 334 329 318 315 316 317 317 318 317 316 314 314 314 314 311 309 309 311 317 319 318 318 316 315 314 313 313 312
324 328 330 329 329 329 324 327 326 325 325 332 334 334 334 334 329 321 317 315 317 317 318 318 316 315 314 312 310 308 308 306 306 310 318 318 318 316 315 314 312 311 311
325 328 328 327 328 328 328 329 326 324 328 331 332 332 333 333 329 324 320 316 316 318 318 318 317 316 313 309 309 308 308 307 307 303 315 318 317 316 315 314 312 311 310
327 327 327 325 328 327 326 325 324 324 329 330 331 331 331 331 328 325 322 317 316 318 318 319 319 318 314 309 308 307 307 308 308 306 308 317 317 316 315 314 313 311 309
326 326 327 325 326 325 324 322 323 326 327 329 328 330 330 329 326 325 323 317 316 318 318 319 318 316 311 308 307 307 307 307 308 306 307 318 316 316 315 314 313 312 310
324 326 326 326 325 324 323 320 321 324 325 326 325 327 327 325 325 323 322 316 317 318 319 319 316 313 309 307 307 306 306 306 305 306 305 306 310 307 305 309 310 309 308
322 322 322 325 324 323 322 322 322 322 323 323 323 323 323 323 323 320 319 316 318 318 319 319 316 312 308 307 307 306 306 306 305 305 306 305 304 302 302 302 301 301 301
320 320 319 320 321 322 319 321 321 320 320 322 320 318 318 318 318 318 318 317 318 319 319 319 316 311 309 308 307 307 306 306 306 305 305 305 303 303 303 303 302 302 302
319 318 317 318 320 319 319 318 320 320 317 324 324 321 319 320 319 319 318 319 319 320 320 319 317 311 310 308 308 307 307 306 305 305 305 304 303 303 303 303 303 302 302
319 318 319 318 318 319 316 319 321 321 323 320 323 323 321 320 323 324 320 321 322 320 321 319 316 311 309 308 308 308 306 306 306 305 304 304 304 304 303 303 303 302 302
318 318 318 318 317 317 316 317 318 321 316 316 317 317 317 318 321 322 323 323 322 321 321 320 316 310 309 309 310 309 307 308 308 307 305 304 304 304 304 303 303 303 302
318 318 317 318 317 317 317 315 315 316 315 317 316 318 319 320 320 320 322 324 323 321 321 320 315 314 310 310 310 310 305 306 305 307 306 304 304 304 304 304 303 303 302
318 318 317 317 317 316 316 315 314 314 315 316 316 316 316 318 318 318 320 323 324 323 321 319 316 314 312 311 310 310 309 308 303 303 304 305 306 305 305 304 303 302 302
316 317 317 316 317 316 315 315 314 314 315 315 316 316 316 316 317 319 321 322 323 324 323 320 317 313 312 311 311 310 308 306 305 301 300 302 302 302 301 302 303 302 300
318 317 317 317 317 317 315 314 314 314 314 315 315 318 317 317 319 318 320 320 321 323 324 322 318 315 312 311 311 311 309 306 304 303 300 301 300 301 300 300 301 300 298

GFSSE_925_thetae_090.txt.gz
Theta_e
338 333 331 333 333 333 333 334 337 337 336 332 332 328 330 331 332 333 334 334 335 334 334 333 331 331 330 329 329 330 328 327 327 326 326 326 326 326 328 325 325 325 325
339 338 332 334 334 332 336 339 338 337 335 333 331 331 329 330 331 333 333 332 330 331 331 330 329 329 329 328 327 327 325 323 324 324 325 325 326 326 326 325 327 327 327
341 340 336 334 333 334 332 339 338 337 336 334 330 329 330 330 331 331 329 330 330 330 330 330 330 329 328 327 326 324 322 321 321 323 322 323 324 326 324 324 325 327 327
343 341 337 335 339 335 329 337 338 337 336 331 329 330 331 332 332 328 331 331 331 331 332 331 330 329 326 322 321 320 319 316 318 319 321 322 323 323 323 324 325 325 324
343 340 338 335 337 337 331 327 329 332 328 323 329 331 330 330 329 331 331 331 331 331 332 332 331 328 322 316 313 312 312 314 316 316 319 320 320 320 321 322 323 322 321
340 339 337 335 335 334 332 329 326 323 328 322 323 329 330 330 330 332 331 331 331 332 332 331 328 323 323 314 313 311 312 312 313 316 319 320 320 319 319 318 318 318 318
337 338 337 334 333 332 331 328 326 328 332 333 334 332 331 331 331 332 333 332 331 330 327 322 320 323 321 316 313 314 313 314 314 316 319 319 319 319 318 317 317 316 316
335 334 335 332 330 334 330 328 327 326 330 332 332 332 331 330 331 332 332 330 328 322 320 321 321 323 321 318 315 315 314 313 314 315 317 319 319 318 317 316 315 315 314
328 329 333 333 333 332 333 330 327 328 329 332 334 330 331 330 330 331 330 327 321 319 320 322 322 323 319 318 317 315 315 314 315 317 317 318 319 318 317 315 315 314 313
329 329 330 334 330 329 331 327 328 327 327 325 331 333 331 329 328 329 327 321 319 319 319 322 323 321 321 319 316 314 314 315 315 317 317 317 318 317 316 315 314 313 312
329 328 329 330 332 333 330 331 330 327 324 325 331 326 331 327 327 325 322 318 318 318 318 320 322 322 321 317 314 312 312 314 316 317 317 317 317 317 316 314 313 313 312
328 329 329 328 327 330 333 331 329 326 323 323 329 330 331 325 324 321 319 317 317 317 317 317 321 322 321 315 312 311 310 314 316 317 317 317 317 316 315 314 313 312 311
325 326 328 329 327 327 329 331 330 327 325 327 329 331 332 327 323 318 318 318 317 316 315 316 319 319 316 313 310 309 309 312 316 317 317 317 316 316 314 313 313 312 311
324 327 328 328 328 328 328 331 328 327 323 322 327 330 332 329 321 317 317 317 317 317 315 315 314 313 313 310 309 308 306 308 310 316 317 316 316 316 315 314 312 311 311
325 327 326 327 326 327 328 329 327 324 323 322 330 328 331 328 319 316 317 317 317 317 316 314 313 312 310 309 308 307 307 307 305 314 318 317 316 315 315 314 312 311 310
326 326 326 326 325 327 327 326 325 324 323 322 328 330 331 328 319 315 316 317 317 318 317 317 316 313 311 309 307 307 308 307 306 307 316 317 315 315 315 314 313 312 310
325 326 325 326 325 324 325 325 324 325 323 319 328 329 330 327 321 318 316 316 317 318 318 318 315 312 310 307 307 307 307 307 306 307 314 317 316 315 314 314 313 310 310
323 324 324 326 324 324 324 323 323 323 325 327 329 325 325 326 325 321 317 316 317 318 317 317 315 312 308 307 307 306 306 306 305 305 308 310 310 307 304 305 304 305 307
322 322 323 325 324 322 321 320 319 320 323 326 326 326 325 322 326 323 318 316 318 318 318 317 313 313 307 306 306 306 306 306 306 305 305 305 304 303 302 302 302 302 302
320 321 320 321 321 320 319 318 321 323 324 325 325 325 325 325 325 324 319 316 318 318 318 316 316 310 308 308 306 306 305 305 305 305 305 305 304 303 303 303 302 302 302
319 319 319 319 320 319 320 321 322 323 323 321 321 320 320 322 323 321 317 317 318 318 318 318 314 310 308 307 306 305 305 305 305 305 305 305 304 303 303 303 303 302 303
319 318 318 318 317 319 320 320 320 320 323 323 319 315 315 315 318 318 318 318 318 318 319 319 316 312 309 308 308 307 306 307 306 305 305 304 305 304 303 303 303 303 302
319 318 318 319 318 318 318 319 319 320 319 321 322 320 320 320 320 319 320 319 319 321 319 319 318 317 310 308 309 309 304 307 305 307 307 305 304 303 303 303 303 303 302
319 318 318 319 318 317 317 318 320 320 317 316 317 319 320 321 320 321 321 323 322 321 321 320 319 318 314 310 309 309 309 308 305 305 305 306 304 303 303 304 304 303 303
319 318 318 318 317 317 317 316 316 317 316 316 316 317 317 317 319 319 319 319 322 323 323 322 320 316 313 312 310 310 308 306 305 303 302 302 303 305 305 305 305 304 303
318 318 317 317 317 316 317 316 314 314 315 315 316 317 317 316 316 317 318 318 319 321 322 323 320 318 315 312 312 311 310 308 305 303 302 301 301 301 301 301 301 302 301

GFSSE_925_thetae_093.txt.gz
Theta_e
341 339 338 336 337 343 341 337 335 336 332 330 330 327 325 324 329 332 335 335 336 336 335 334 331 331 331 331 330 329 327 327 327 327 327 328 327 327 326 324 324 325 326
339 340 336 335 333 342 343 338 338 337 335 334 328 328 330 328 329 333 336 337 335 334 334 332 331 330 330 330 329 328 325 325 325 325 326 328 328 330 328 326 327 327 326
339 339 337 337 337 341 343 341 339 336 335 332 330 328 329 333 335 335 335 334 333 332 331 330 330 329 328 327 326 325 324 323 324 325 324 325 325 327 328 326 327 328 327
341 339 338 334 335 340 342 342 339 335 332 331 332 335 333 334 335 334 332 332 331 331 330 330 328 327 326 325 323 323 323 321 322 322 322 322 325 326 327 326 326 326 325
341 340 339 336 337 340 341 342 339 335 333 330 332 334 334 333 333 330 329 330 331 331 331 330 327 324 315 313 312 316 317 318 319 320 320 321 324 325 324 323 322 320 320
342 341 339 333 336 333 342 342 338 335 333 330 331 332 333 331 330 329 330 331 331 330 331 330 323 314 312 311 312 314 315 315 319 319 319 320 320 321 320 319 319 319 318
338 338 339 335 335 332 339 341 338 337 333 331 326 330 331 331 331 330 331 331 331 332 331 329 319 314 312 312 313 314 313 317 318 319 319 319 319 319 318 317 317 317 317
332 334 334 336 333 333 333 339 338 335 330 335 331 325 330 330 329 329 330 332 332 331 326 324 320 315 313 314 313 312 313 317 318 319 319 319 319 318 317 316 316 316 315
329 330 329 330 330 328 329 330 331 328 328 333 332 329 328 330 329 329 331 332 330 325 322 323 321 317 315 315 314 313 313 316 318 319 319 318 318 317 317 316 315 315 314
329 328 329 329 325 327 326 331 327 328 330 332 330 331 329 329 330 331 330 329 322 320 321 322 321 318 316 315 314 314 314 316 317 318 319 318 318 317 316 316 315 314 313
329 329 328 331 331 327 329 330 330 329 333 333 333 332 330 332 332 330 329 322 320 322 322 322 320 318 317 315 315 314 316 318 317 318 318 318 318 317 316 315 314 313 312
329 329 328 328 331 332 332 330 329 334 335 334 333 331 331 332 330 329 324 319 320 323 323 322 320 318 318 319 317 314 317 318 318 318 318 318 317 317 315 314 313 313 312
327 328 327 328 328 329 330 330 331 331 333 332 332 330 329 330 329 325 321 318 320 322 325 322 321 320 319 317 316 317 318 318 318 318 317 317 317 316 315 314 313 312 311
326 326 327 328 329 328 327 331 329 326 327 331 330 329 328 328 326 324 321 318 317 323 324 323 321 318 313 311 311 310 317 317 318 318 317 316 316 316 315 314 313 312 311
325 326 326 327 327 327 327 328 328 326 324 327 329 330 327 327 324 322 318 317 316 317 319 321 320 315 312 310 309 310 310 314 317 318 317 316 316 316 315 314 313 312 310
325 325 327 326 326 326 326 326 329 326 324 326 326 326 327 325 322 319 317 317 316 316 318 317 315 313 310 308 307 306 306 309 316 318 317 316 315 315 315 314 313 311 310
326 325 326 325 325 326 327 327 328 325 325 326 329 326 328 324 319 318 317 317 316 316 315 314 312 310 309 308 307 307 307 306 310 317 317 317 315 315 315 314 314 312 310
325 325 325 324 325 326 324 325 324 324 324 326 326 328 328 323 318 317 317 317 317 316 315 314 312 309 309 308 307 307 307 306 307 312 317 317 316 314 314 314 313 310 311
323 324 325 324 324 324 324 324 324 324 323 326 328 327 327 323 316 317 317 317 317 316 316 316 312 310 308 308 307 307 306 306 306 311 315 315 312 311 311 310 305 304 305
322 322 323 323 323 323 323 324 324 323 323 322 324 325 324 324 317 316 316 317 317 315 314 315 313 310 308 307 306 306 306 305 305 306 308 308 308 305 304 309 306 305 302
320 321 321 321 322 322 322 322 322 323 322 322 324 320 322 323 323 321 317 316 317 316 316 316 311 309 307 306 306 306 305 305 305 305 305 306 305 303 303 303 307 305 304
319 319 320 320 320 320 320 320 321 321 321 322 324 321 322 322 323 324 322 317 317 318 317 316 315 309 308 306 309 309 310 308 306 304 305 306 305 305 303 303 303 303 303
319 319 319 319 319 320 320 320 321 322 322 322 322 323 322 319 319 319 321 318 317 318 318 318 316 312 310 307 308 312 312 314 311 308 306 304 305 305 305 304 303 303 303
320 319 318 318 319 319 319 318 322 321 321 320 320 319 318 317 317 318 318 317 317 317 318 318 318 315 312 311 308 308 309 310 313 313 307 307 305 304 304 304 303 303 303
321 319 318 318 318 318 318 319 319 318 320 320 319 318 318 315 316 316 318 319 318 318 319 320 319 318 315 313 311 310 308 307 307 311 315 308 304 307 305 304 303 303 303
320 319 319 318 317 317 317 318 317 318 318 318 319 320 318 316 315 318 318 317 318 320 321 321 321 319 318 315 313 311 310 310 308 307 309 304 306 306 305 305 305 305 305

GFSSE_925_thetae_096.txt.gz
Theta_e
343 343 337 338 339 340 336 332 332 332 333 333 332 326 329 334 333 334 334 336 335 336 336 335 332 332 332 332 331 328 328 328 328 328 328 328 328 326 326 326 327 329 330
342 341 339 338 342 340 340 333 331 330 332 334 334 328 329 334 336 335 334 336 335 335 334 333 332 331 331 330 328 327 326 326 326 328 328 328 329 329 327 325 325 326 327
343 341 340 340 341 343 341 336 333 334 334 335 335 328 331 336 336 335 336 335 334 334 333 332 331 330 329 329 326 325 325 326 325 325 326 329 329 330 329 327 327 328 327
343 341 341 339 340 343 344 340 336 338 339 337 330 330 335 336 335 335 336 334 332 332 331 330 329 329 328 326 324 325 325 324 324 324 325 325 328 329 328 327 326 325 324
339 342 341 340 339 344 344 341 338 338 338 333 331 334 335 336 336 336 334 332 331 331 330 330 328 326 321 321 322 322 322 323 323 323 324 325 325 326 324 322 322 322 320
339 343 341 338 338 343 344 342 340 341 336 334 334 335 335 334 334 334 332 331 330 330 329 328 326 317 315 315 317 319 318 319 320 321 321 322 322 322 322 321 320 319 319
338 341 338 337 337 340 343 342 341 338 338 335 336 335 334 334 333 331 330 330 330 329 328 327 317 311 311 312 312 314 319 320 320 320 320 320 320 320 320 319 319 318 318
335 337 333 329 328 336 342 343 341 340 338 335 335 333 333 333 330 329 330 330 330 329 324 316 312 312 311 311 313 316 319 319 320 320 320 319 320 319 319 318 317 317 317
334 333 331 323 326 326 336 342 340 339 336 335 334 333 331 329 328 329 330 330 332 328 322 315 312 313 312 312 313 316 318 319 320 320 319 319 319 318 318 317 316 316 316
332 332 330 325 325 330 331 334 334 335 334 336 334 333 330 327 326 330 332 332 331 325 324 316 314 315 313 313 313 315 318 319 320 320 319 318 319 318 317 316 316 315 314
328 330 330 325 322 327 327 326 329 333 335 335 334 334 331 332 331 332 332 331 327 323 324 316 315 315 314 314 313 314 318 319 320 320 319 318 319 318 317 316 315 314 313
334 328 329 327 326 327 327 330 326 328 333 335 333 333 330 332 331 331 331 327 322 322 324 317 316 316 317 318 317 318 319 319 319 320 319 318 318 317 316 315 314 313 313
332 332 328 331 331 331 331 332 331 328 330 333 332 330 331 331 331 330 328 325 328 325 325 321 319 320 321 320 318 319 320 319 319 319 318 318 318 317 316 315 314 313 312
332 331 330 329 331 331 330 331 330 330 331 332 331 331 332 332 331 327 325 326 328 327 326 324 322 323 322 320 319 319 319 319 319 318 317 317 317 317 316 314 313 313 312
331 329 330 330 330 329 331 331 330 330 330 331 331 329 331 331 329 325 324 326 326 326 326 325 324 323 321 319 318 319 319 319 319 318 318 316 316 317 316 315 314 312 312
327 328 329 329 329 328 328 328 329 329 330 332 332 330 330 329 326 324 324 324 326 326 326 325 323 320 317 316 317 317 317 318 318 319 318 317 316 316 316 315 314 313 311
328 327 327 326 327 325 325 326 328 329 329 329 331 329 328 327 325 324 323 322 322 323 323 323 320 317 314 313 312 312 314 317 317 318 318 317 316 315 315 314 314 312 311
325 325 325 325 325 325 325 324 326 328 327 327 329 329 326 325 323 322 322 321 320 321 321 319 317 315 314 313 312 312 312 313 316 318 318 317 316 315 315 314 313 312 311
327 323 324 325 323 325 325 325 326 327 327 326 328 329 326 324 323 323 322 321 319 318 318 317 316 316 315 314 313 312 312 312 314 316 318 317 316 315 314 314 313 312 312
325 322 323 323 323 324 324 325 325 326 327 327 327 326 325 323 322 321 321 321 319 317 317 316 316 316 316 315 313 312 312 312 311 314 316 317 315 314 313 313 312 309 307
324 322 322 322 322 324 324 324 324 324 326 326 326 326 325 323 321 320 321 321 320 319 318 317 317 316 316 314 312 311 311 310 310 310 312 314 314 313 311 311 310 308 306
323 323 321 321 322 322 323 323 323 323 324 325 324 323 324 322 320 320 321 321 320 320 319 318 317 316 315 312 312 312 313 311 309 309 310 311 311 310 310 310 310 309 308
323 323 323 322 321 322 323 323 323 322 322 322 322 323 323 323 322 320 320 320 321 320 320 318 317 317 316 312 312 314 317 318 316 311 310 310 311 311 310 309 309 309 308
323 324 323 322 320 321 322 322 322 321 319 322 322 320 319 320 321 321 322 321 321 321 321 319 318 318 317 315 312 313 315 316 318 318 313 311 310 310 311 310 309 309 308
322 323 322 322 319 320 321 321 321 320 319 321 323 322 321 320 322 321 320 321 320 321 321 321 319 319 319 319 316 315 313 313 314 315 319 314 311 310 310 310 309 307 307
323 323 321 322 320 320 321 321 319 320 319 320 321 322 323 322 321 319 317 318 318 321 321 322 322 321 320 319 320 318 318 318 317 316 313 312 314 312 310 309 306 307 307

GFSSE_925_thetae_099.txt.gz
Theta_e
342 347 338 339 344 340 339 333 332 333 333 331 333 340 339 339 339 338 337 335 335 336 336 335 334 334 334 333 332 329 329 329 329 329 329 329 330 330 329 330 331 332 332
341 347 339 337 341 342 339 336 333 334 332 331 333 339 339 338 338 337 336 336 336 335 335 335 333 333 332 332 328 328 327 327 327 327 327 328 329 330 325 327 328 329 329
343 343 343 336 340 344 341 337 334 336 337 335 332 336 338 337 335 334 335 336 335 334 334 333 333 331 331 330 327 326 327 327 329 330 329 330 330 330 327 326 327 327 327
343 343 344 339 337 342 343 338 337 339 337 333 330 336 337 336 334 336 335 335 334 333 333 333 331 330 330 327 325 325 323 324 326 327 328 329 329 329 328 327 326 324 324
339 341 343 343 338 340 344 341 340 340 340 338 331 334 337 336 336 337 334 333 332 332 332 331 330 329 327 324 324 323 324 324 325 326 326 326 326 325 325 324 323 322 321
337 339 342 342 341 338 342 343 341 340 340 335 331 335 337 335 336 335 333 331 331 331 331 329 328 326 321 321 322 322 323 323 325 325 325 324 324 324 323 321 321 321 320
336 339 342 342 341 339 338 343 341 341 339 334 333 337 335 335 336 334 331 330 329 330 329 328 325 322 317 318 318 319 320 321 322 323 322 322 322 322 320 320 320 320 319
336 340 340 337 336 336 336 335 340 341 338 332 334 336 335 333 335 333 330 330 329 328 327 324 316 312 315 316 318 320 320 321 321 321 321 321 320 321 320 319 319 318 318
337 337 337 332 330 325 324 324 333 341 339 333 334 335 336 336 333 330 331 330 327 323 313 310 310 311 310 311 318 319 320 321 321 320 320 320 320 320 319 318 318 317 317
335 335 336 328 324 326 326 325 327 340 338 334 335 336 335 334 331 330 331 329 323 317 312 312 311 310 310 312 317 319 320 321 320 319 319 319 319 319 318 317 317 316 316
335 334 334 333 328 324 327 325 328 336 336 335 334 335 334 334 329 331 332 329 321 316 313 314 313 312 311 313 316 319 320 321 321 320 319 319 319 319 318 316 316 315 315
337 333 334 333 326 326 329 326 329 332 334 335 336 335 334 333 332 331 333 330 326 316 315 315 314 312 315 316 317 319 321 321 321 320 319 319 319 318 317 316 315 315 314
334 334 332 334 327 327 331 327 331 327 328 335 335 334 333 332 330 333 332 330 328 319 321 318 316 318 319 318 319 322 321 321 321 320 319 318 319 318 317 316 315 314 313
333 333 333 333 333 332 330 331 334 331 327 332 335 332 333 331 330 332 332 329 328 326 323 322 320 322 322 320 321 321 321 320 320 320 319 318 318 318 317 316 315 314 313
333 333 332 332 333 334 332 333 334 332 328 333 333 331 332 331 332 330 329 329 328 327 324 324 323 325 324 321 321 321 321 320 320 320 319 318 317 317 317 316 314 314 313
332 332 331 332 332 333 334 334 331 330 328 330 328 331 331 331 330 328 328 329 328 328 326 325 324 325 323 320 320 320 320 320 320 320 319 317 317 317 317 316 315 314 313
331 331 330 330 331 331 332 332 332 330 330 329 329 329 331 331 328 326 328 328 327 327 327 326 326 323 321 319 319 319 319 320 320 320 319 318 317 316 316 316 315 314 313
331 330 329 328 329 330 329 331 331 330 330 329 330 326 328 328 327 325 327 328 327 327 327 326 324 321 318 316 315 315 317 318 319 320 319 319 317 316 316 315 314 314 312
330 328 326 326 328 328 326 325 327 329 329 330 330 327 327 328 325 324 324 324 326 326 325 325 322 319 318 316 315 315 315 315 318 319 319 319 318 317 316 315 314 313 312
328 327 326 326 326 325 325 325 325 325 328 329 330 329 328 327 324 323 318 323 323 324 323 322 320 319 319 318 316 315 315 315 316 317 319 319 318 317 317 316 314 313 313
326 326 324 326 324 324 324 325 326 327 327 328 329 328 326 325 323 319 318 323 322 322 320 319 320 320 320 319 317 316 315 315 314 315 317 318 318 317 316 316 316 314 312
326 326 324 324 324 324 324 324 324 326 327 328 328 327 326 324 320 323 323 323 320 320 320 320 320 321 320 319 317 317 317 314 313 313 313 316 317 316 315 314 313 313 311
326 326 325 324 325 322 323 324 324 324 325 326 326 325 323 322 320 317 321 322 321 321 321 320 321 320 320 318 316 318 318 319 317 313 312 312 313 315 314 313 312 312 312
327 326 326 325 323 323 323 324 324 325 323 324 324 324 323 321 319 320 321 322 322 322 321 321 321 320 321 319 317 316 317 319 322 321 313 312 312 313 314 313 312 312 312
328 326 325 325 323 324 323 324 323 322 322 323 323 323 323 322 321 321 321 321 322 322 322 322 321 320 321 320 318 318 316 317 317 318 321 317 315 313 313 314 313 313 312
327 325 324 324 322 322 322 323 323 322 321 322 322 322 322 322 322 320 321 322 323 323 322 322 321 320 321 321 321 320 319 319 318 318 319 319 315 314 314 312 312 313 313

GFSSE_925_thetae_102.txt.gz
Theta_e
348 344 338 339 340 337 340 336 335 333 330 330 331 334 336 336 335 334 334 332 332 335 337 337 336 336 335 332 329 328 329 330 332 332 332 332 333 333 332 331 332 332 332
346 344 337 338 341 337 335 335 336 334 332 330 331 336 336 335 335 335 332 333 334 335 335 335 335 334 334 329 326 325 325 326 328 329 329 330 332 332 329 328 329 330 328
344 346 339 336 341 341 337 335 334 336 337 338 338 338 338 336 336 334 334 335 334 335 335 334 333 331 332 327 326 325 326 328 329 328 328 329 330 330 328 327 327 327 327
339 345 345 337 338 342 340 337 337 337 337 338 338 338 338 338 335 335 335 335 334 334 334 332 331 331 329 326 326 329 330 329 328 328 328 329 329 328 327 326 326 325 325
338 339 342 344 338 339 343 340 338 337 339 335 333 326 335 335 336 336 335 333 333 333 333 331 331 329 324 325 323 327 329 330 329 328 327 326 326 326 325 324 324 323 322
336 338 340 343 343 338 338 343 339 337 339 336 333 329 329 333 336 335 334 332 332 332 332 330 330 324 323 322 323 324 325 326 325 326 325 325 324 325 323 323 322 321 321
335 338 341 341 341 340 339 339 342 338 338 338 332 331 334 334 336 335 332 331 330 330 330 328 324 320 321 322 323 322 321 324 324 324 324 323 323 323 322 321 321 321 320
337 337 342 339 339 341 339 338 340 341 336 338 333 334 334 328 332 333 331 331 331 327 325 321 312 317 319 321 320 320 321 322 323 322 321 321 321 321 320 320 319 319 319
339 339 340 339 335 336 340 339 338 337 333 336 334 336 330 330 332 332 331 331 329 325 313 309 310 314 315 319 320 320 321 322 321 321 320 321 320 320 320 319 319 318 317
337 336 337 336 332 331 330 331 331 333 325 325 334 337 323 332 334 331 331 329 325 313 309 308 309 312 316 319 320 321 321 321 320 320 320 319 320 319 319 318 318 317 316
336 336 335 333 331 329 328 326 325 325 324 323 334 330 327 333 332 331 330 326 320 310 309 309 309 310 314 318 320 320 321 320 320 320 319 319 320 319 318 317 317 316 316
339 336 336 335 333 331 327 326 326 324 324 322 334 329 330 334 333 332 329 323 315 311 311 310 309 310 312 318 320 320 321 322 320 319 318 319 320 319 317 316 316 315 315
335 338 335 334 332 326 328 325 324 322 324 325 332 329 331 334 332 332 329 323 316 314 313 312 311 311 312 318 319 322 321 322 320 319 318 319 319 318 317 316 315 315 314
336 335 334 333 330 328 331 326 328 328 331 334 334 332 334 333 332 332 330 323 317 315 315 313 313 318 315 317 321 322 321 322 320 319 318 318 318 318 317 316 315 314 314
333 334 334 333 332 329 329 328 329 329 326 328 332 333 333 332 333 332 330 327 321 321 320 314 320 321 320 318 321 321 322 321 320 319 317 317 317 318 317 316 315 314 314
333 333 332 333 333 333 332 329 331 329 324 326 328 333 332 332 333 332 330 329 324 324 323 318 322 324 323 321 321 321 321 321 320 319 317 317 317 317 317 316 315 315 314
332 332 331 332 332 332 332 332 332 332 327 328 330 330 331 332 332 330 329 329 328 326 325 323 323 325 323 321 321 321 320 320 320 319 318 317 317 316 316 315 315 315 314
332 331 330 330 331 331 331 331 332 331 331 330 327 326 330 330 330 328 328 328 327 327 327 325 326 324 322 320 320 320 320 320 320 320 319 318 315 316 316 316 315 315 314
332 330 330 329 328 330 330 329 331 331 330 330 328 328 328 327 328 328 328 328 329 327 328 327 325 323 320 319 318 318 318 319 320 320 320 319 317 316 315 314 314 315 314
331 329 328 328 328 328 327 326 326 330 331 331 328 326 328 325 327 327 327 327 328 327 327 326 323 321 318 317 316 316 315 316 318 319 319 320 318 317 317 316 314 312 312
329 327 326 327 326 325 325 325 326 326 328 331 330 327 325 326 327 326 325 325 326 326 325 324 322 319 318 318 317 316 315 315 316 317 318 319 319 318 318 317 316 315 312
327 326 326 327 325 325 325 325 325 326 326 328 330 328 325 327 325 324 323 323 324 325 324 322 320 319 320 320 319 317 316 315 315 315 316 318 319 318 318 317 317 316 315
326 326 325 326 325 325 326 324 324 324 326 327 328 328 326 326 324 322 317 318 322 322 321 320 320 320 322 320 318 318 318 317 315 314 314 314 317 318 317 317 316 315 315
327 326 326 325 325 324 324 324 325 326 326 326 328 326 325 325 323 320 319 321 318 321 320 319 320 321 321 318 317 318 317 319 320 315 313 313 313 313 315 316 315 314 313
327 326 326 326 324 324 324 325 325 323 324 324 324 324 324 323 321 320 322 320 319 321 320 320 321 321 322 319 318 317 317 317 318 318 318 313 312 312 313 314 314 314 313
328 326 326 325 324 324 324 324 324 324 323 324 323 322 321 320 320 320 318 319 322 321 321 320 321 320 320 321 319 318 317 317 317 318 316 317 316 315 313 313 313 314 313

GFSSE_925_thetae_105.txt.gz
Theta_e
344 342 339 338 338 335 332 333 334 333 333 333 335 336 336 336 336 336 337 336 333 334 338 338 338 337 337 334 334 334 333 334 334 334 335 335 335 334 333 332 332 333 332
343 341 338 338 338 334 332 333 333 332 332 329 334 336 336 336 335 334 332 329 330 336 337 337 338 336 334 329 329 332 332 332 331 332 332 333 333 333 331 330 329 329 329
344 341 338 338 338 333 332 334 334 333 331 329 335 335 335 334 333 330 329 332 334 335 336 337 336 335 328 325 322 325 329 329 329 330 330 330 330 330 328 328 328 327 327
344 342 340 337 339 336 333 333 336 334 332 330 336 337 335 335 332 331 333 334 334 334 334 333 333 331 322 321 324 325 327 327 326 327 328 328 327 328 326 326 325 325 325
341 344 344 341 337 338 337 333 335 334 335 333 335 335 334 328 335 334 334 333 333 333 333 332 331 324 325 328 329 329 329 328 328 327 327 326 326 325 325 325 324 324 323
336 338 343 343 340 337 337 339 335 336 336 331 337 334 325 329 333 334 334 332 331 332 332 331 330 323 326 329 330 330 330 328 326 324 324 324 323 324 323 323 323 321 321
336 337 337 342 341 338 337 337 339 335 337 335 336 331 327 326 329 333 332 333 331 329 330 327 324 323 325 327 329 329 325 325 325 324 323 323 323 322 322 322 321 320 320
335 340 341 340 341 340 339 339 339 339 337 337 333 332 327 328 325 332 332 332 330 329 327 323 322 322 324 324 322 321 324 324 324 323 322 322 322 321 321 321 320 319 319
337 340 340 339 338 340 340 343 342 340 339 336 334 329 328 328 326 332 331 331 330 327 316 317 320 322 322 320 320 321 323 323 322 320 319 321 321 321 320 320 319 319 318
338 337 336 337 336 333 335 341 342 342 338 335 334 328 331 330 328 332 331 331 329 323 311 314 317 322 320 320 320 321 321 321 321 318 320 319 320 320 319 319 318 318 317
335 334 331 332 331 330 329 331 332 335 337 335 333 331 330 327 331 332 332 330 326 316 311 312 316 319 320 320 320 320 319 319 319 317 318 319 320 320 319 318 317 317 317
336 336 334 334 333 332 331 329 327 327 328 328 325 326 329 329 329 331 331 329 322 313 310 313 312 318 319 320 320 321 320 319 319 318 317 319 320 319 318 317 317 316 316
338 337 336 335 333 332 331 326 325 325 327 325 325 325 327 331 332 332 330 327 323 311 310 310 312 316 319 320 321 321 320 320 319 315 317 319 319 319 318 317 316 316 315
338 337 335 333 332 329 328 325 324 324 323 324 324 325 326 332 332 331 328 323 315 310 309 310 310 315 319 320 322 321 320 320 319 315 318 318 319 318 317 317 316 315 315
337 335 334 333 332 328 329 325 326 328 326 326 325 330 330 331 331 329 326 320 314 312 311 310 311 316 319 322 322 321 321 320 319 316 317 318 318 318 318 317 316 315 315
334 334 332 331 332 330 329 327 326 329 328 328 326 329 328 331 331 328 324 318 316 314 311 311 314 314 318 320 322 321 322 320 319 317 317 317 317 317 317 317 316 316 315
333 333 330 330 332 332 331 329 328 330 325 329 330 331 331 331 330 329 324 319 317 315 312 318 319 319 319 319 321 321 321 320 319 317 316 317 316 317 317 317 316 316 315
332 331 330 331 331 331 331 330 331 330 325 329 330 330 331 331 331 329 326 321 319 317 315 320 322 322 322 321 321 321 321 320 319 319 316 315 316 315 316 315 316 316 315
331 330 330 331 331 330 331 331 332 331 326 328 328 330 329 329 330 329 329 324 324 321 319 321 322 324 321 320 321 320 320 320 320 319 318 316 314 314 315 315 314 314 314
331 329 329 329 328 330 329 330 331 331 328 329 328 329 330 329 330 329 329 327 327 324 323 322 325 324 321 320 320 319 319 319 320 320 319 318 317 315 315 314 313 314 314
330 329 328 327 328 328 327 327 328 331 331 329 328 329 330 330 328 328 328 327 328 326 326 324 325 323 320 319 317 317 316 317 319 319 320 319 318 317 317 317 316 314 312
329 327 326 326 326 325 325 325 325 326 329 330 328 327 330 328 324 328 327 327 327 327 327 326 323 320 319 317 315 315 313 315 316 317 318 319 319 318 317 317 317 316 315
327 326 325 325 326 325 324 325 324 325 325 327 329 327 328 327 326 327 326 327 327 326 326 324 321 319 318 319 316 316 315 315 313 315 315 317 318 319 318 318 317 317 317
326 326 325 325 325 325 324 324 324 324 324 325 325 327 326 326 325 326 324 325 326 326 324 322 320 319 320 320 316 318 318 318 313 312 314 314 315 317 318 318 317 317 316
326 326 325 325 324 324 323 323 324 325 325 326 326 326 326 325 325 325 323 323 323 323 323 323 321 319 321 320 319 317 317 317 318 315 312 312 313 313 313 316 317 317 316
325 326 325 325 325 324 323 325 324 324 324 326 327 325 325 324 323 322 320 321 321 320 320 320 320 321 321 321 320 319 317 317 316 316 313 314 313 315 314 313 313 312 313

GFSSE_925_thetae_108.txt.gz
Theta_e
343 341 339 337 338 333 332 332 334 334 334 336 337 339 341 341 339 339 340 338 337 339 340 340 339 338 340 341 337 336 335 335 335 335 335 337 336 335 334 333 333 333 332
341 340 338 337 336 333 333 332 333 334 333 334 335 336 337 337 338 339 338 337 338 339 339 339 338 339 338 335 334 334 334 334 334 334 334 334 333 334 332 331 331 331 332
341 340 338 337 336 333 332 333 332 332 333 335 336 337 336 337 337 336 335 335 338 337 336 336 337 336 333 332 332 333 332 332 332 332 331 331 332 332 329 328 328 328 327
339 339 338 337 336 333 332 333 334 333 332 335 336 336 335 334 333 331 331 333 335 335 337 336 336 334 328 329 331 331 330 330 330 329 328 329 329 328 327 326 326 326 326
341 339 339 338 337 334 332 333 334 332 334 333 335 335 333 331 329 331 331 333 333 334 336 336 335 327 320 324 325 326 326 327 327 327 326 326 327 327 326 324 324 324 323
340 340 341 341 339 337 334 332 334 333 329 328 336 334 332 331 331 330 332 332 333 333 333 333 330 321 324 327 329 328 328 327 326 325 325 324 324 326 324 324 322 321 321
339 340 342 341 340 338 337 335 335 336 334 331 334 333 328 334 331 331 332 332 332 332 331 330 327 328 328 329 329 328 327 326 324 324 323 323 323 324 323 322 321 320 320
336 338 339 341 340 339 339 338 337 336 335 335 332 326 323 333 333 332 332 331 331 331 329 326 327 329 329 330 328 325 326 324 323 323 322 322 322 322 321 321 320 320 319
336 338 339 340 340 339 340 341 341 338 336 336 332 325 327 330 327 330 330 331 330 330 325 325 327 329 329 325 323 325 325 324 323 322 321 322 322 322 321 320 320 319 319
335 336 338 339 338 339 340 342 342 341 337 335 333 327 328 326 326 325 328 331 330 328 322 322 324 325 322 321 323 324 323 322 321 320 321 320 321 321 320 320 319 319 318
337 337 336 335 334 332 332 336 340 342 340 335 333 328 328 327 324 328 332 331 329 325 320 322 323 323 319 320 322 323 322 320 318 319 319 320 321 321 320 319 318 318 318
336 334 332 332 332 331 330 329 331 336 337 336 333 328 329 325 327 324 333 330 327 321 321 322 322 320 319 321 321 321 321 318 314 317 319 320 321 320 319 318 318 317 317
335 335 334 333 333 332 330 331 329 327 327 333 332 329 330 328 327 329 331 330 327 318 319 322 321 319 319 320 320 320 319 318 316 317 319 320 320 320 319 318 317 317 316
336 336 335 335 334 332 331 331 326 325 325 329 329 331 330 329 328 332 331 329 325 315 316 319 319 319 320 319 321 320 319 319 317 317 318 319 319 319 318 318 317 316 316
336 336 336 334 332 331 328 326 324 324 325 324 328 326 329 329 329 329 329 328 321 314 315 315 318 319 319 319 321 320 319 318 317 316 318 318 319 318 318 317 317 316 316
336 337 334 333 331 330 327 327 325 326 326 324 325 325 326 325 329 329 327 326 318 311 313 313 316 319 319 320 321 320 319 319 317 316 316 317 317 318 318 318 317 316 316
336 334 333 331 330 331 328 330 326 326 327 324 324 325 325 328 330 327 326 324 316 314 311 309 313 318 320 320 321 321 320 319 317 316 315 316 317 317 317 317 317 317 316
334 333 331 330 331 331 331 330 328 327 327 327 325 327 326 326 327 328 325 320 314 312 309 309 313 318 320 320 321 321 320 319 318 317 315 315 316 316 316 316 316 316 316
333 331 329 330 331 330 331 331 330 330 328 326 327 329 329 329 329 327 323 318 314 312 310 311 313 316 317 320 320 320 320 319 318 317 316 314 315 315 316 316 316 316 315
331 330 329 330 330 330 330 331 331 329 328 329 327 329 329 329 329 326 322 318 316 315 312 317 319 321 320 321 320 319 320 320 319 318 317 315 315 314 314 314 315 314 313
330 329 329 330 329 329 329 331 330 327 328 329 330 329 328 330 329 327 322 319 318 318 313 320 322 324 322 320 320 318 317 320 319 319 318 317 316 315 315 314 313 313 313
328 328 328 327 328 328 329 329 330 330 327 328 328 329 330 330 329 328 324 321 319 320 317 320 322 322 319 320 318 316 313 314 318 319 318 319 318 317 316 315 315 315 315
327 328 327 327 328 327 327 326 326 328 329 328 328 329 329 328 328 328 327 324 323 321 322 320 323 322 319 318 319 315 312 313 312 314 315 318 319 318 318 317 317 316 316
325 326 326 326 326 325 325 325 325 325 326 327 328 327 328 329 328 328 327 326 326 325 323 322 324 321 319 316 315 315 316 315 314 313 314 314 315 318 318 318 318 317 317
325 324 325 326 325 324 325 324 324 323 323 324 325 328 327 328 327 327 327 327 326 326 325 323 322 320 318 317 316 317 317 318 317 312 312 312 314 314 315 317 318 318 317
324 324 325 325 325 324 324 323 323 324 323 323 324 325 326 327 325 324 325 325 326 325 324 322 321 320 319 318 316 317 317 316 316 316 312 313 313 316 315 314 314 315 316

GFSSE_925_thetae_111.txt.gz
Theta_e
341 340 340 339 338 338 337 336 336 337 337 342 340 339 336 337 338 339 337 336 337 337 337 338 336 336 340 339 338 337 337 337 336 336 336 336 336 336 334 333 332 334 334
339 338 338 337 336 335 335 336 336 337 338 340 341 340 339 339 339 339 338 338 338 340 343 341 335 339 340 339 336 336 336 335 335 335 334 333 334 335 333 332 332 332 331
340 337 337 337 336 333 333 335 335 335 338 341 343 342 340 339 339 338 338 338 339 340 341 339 339 339 340 336 335 335 334 334 334 333 332 332 333 333 332 330 330 331 331
338 337 337 337 336 332 332 335 335 336 336 338 341 341 340 340 340 338 338 338 338 339 338 338 338 339 337 334 334 333 333 333 332 331 330 331 331 331 331 330 329 328 327
337 337 337 336 336 332 332 333 335 336 334 335 336 337 337 337 337 337 336 337 336 335 337 337 337 337 334 333 332 332 332 331 329 328 328 330 330 330 329 326 325 324 324
338 337 337 336 336 333 332 333 333 333 332 335 336 335 336 336 336 334 334 334 334 336 335 335 335 333 331 331 330 330 329 328 326 326 326 326 326 327 326 323 323 323 322
338 337 338 338 337 336 333 334 334 333 334 335 333 334 333 334 333 334 334 334 334 335 335 334 330 328 328 326 326 326 326 325 324 324 324 325 326 325 325 323 322 321 321
336 338 339 339 339 337 335 334 335 334 334 335 332 332 332 330 326 329 332 333 332 332 332 330 323 325 328 328 327 326 325 324 323 323 323 323 323 323 322 322 321 320 320
339 339 341 340 339 339 338 337 336 336 334 334 334 333 328 326 326 324 331 331 331 331 330 327 324 328 329 327 328 326 324 323 322 322 322 323 323 323 322 321 319 320 319
337 338 338 340 340 340 340 341 340 337 337 335 335 329 323 326 327 324 330 331 330 329 328 328 328 329 329 325 326 325 323 323 321 320 322 322 321 322 321 320 319 319 319
338 338 338 339 339 339 339 342 340 339 339 336 334 329 324 330 328 326 331 332 330 328 327 328 329 330 325 323 325 324 323 322 321 320 320 320 322 321 321 320 319 319 318
338 338 337 338 337 336 337 338 340 340 341 336 334 328 328 330 327 328 324 331 329 326 325 328 328 324 320 323 324 323 322 320 320 319 320 321 322 321 320 319 319 318 318
335 336 336 336 335 332 331 330 331 338 339 337 333 327 328 328 326 324 326 331 329 325 325 326 324 320 320 323 322 322 320 318 318 318 320 321 321 321 320 319 318 318 317
334 334 335 334 333 331 331 330 329 329 331 331 332 330 327 327 326 326 324 323 330 325 324 324 322 319 320 322 322 321 318 315 315 318 320 320 320 320 319 319 318 317 317
332 333 334 333 333 332 332 330 330 329 327 329 331 330 329 327 328 326 329 330 330 325 322 323 321 319 320 321 320 319 318 317 316 317 319 320 319 320 319 319 318 317 316
331 333 335 335 334 333 330 329 327 324 325 328 330 329 330 328 328 326 330 329 329 323 320 323 320 319 319 320 320 319 319 318 316 317 319 319 319 318 319 319 318 317 316
331 333 334 335 334 332 330 327 324 324 324 325 326 327 329 329 328 330 329 328 328 321 316 321 319 318 318 321 320 319 319 318 317 317 318 318 318 317 318 318 318 317 316
331 333 334 335 332 330 329 327 327 326 326 328 326 324 326 328 328 329 327 327 328 318 316 319 318 318 319 320 320 319 319 318 317 316 316 317 317 316 317 317 317 317 317
332 334 335 332 330 330 330 329 328 327 325 328 327 325 325 328 328 327 327 326 327 316 314 316 316 317 318 320 320 320 319 319 317 317 317 316 316 316 316 316 316 316 316
333 334 333 330 330 331 331 331 330 329 328 328 326 325 325 328 327 327 325 326 324 314 313 313 314 317 318 320 320 320 319 319 318 317 316 316 315 315 315 315 315 315 315
332 332 330 330 330 330 331 330 328 328 328 328 327 326 325 327 328 326 325 325 320 313 311 311 314 318 317 319 319 317 318 318 318 317 317 316 316 315 314 314 314 314 314
329 329 329 330 330 329 329 331 329 329 327 328 328 328 325 326 326 325 324 322 317 313 311 313 316 317 318 319 317 315 312 315 318 317 317 317 318 317 316 315 314 314 314
327 327 328 329 329 329 329 330 329 329 327 328 329 329 329 328 327 325 324 322 317 315 312 314 317 319 319 318 319 317 313 314 313 317 318 318 318 317 317 317 316 316 315
326 326 327 328 328 328 328 328 328 327 328 328 327 328 328 329 328 327 326 323 318 317 314 316 319 321 320 317 317 318 316 314 313 313 314 317 318 318 318 318 318 318 317
326 325 326 326 327 327 327 327 327 327 327 327 327 327 328 328 328 328 326 322 320 318 319 316 321 321 321 318 317 315 315 315 314 312 312 311 313 316 316 317 318 318 318
324 324 325 326 326 325 324 324 324 324 325 325 326 327 327 328 327 328 328 324 322 321 321 320 321 321 320 318 317 317 316 317 316 315 313 312 312 314 315 315 315 315 315

GFSSE_925_thetae_114.txt.gz
Theta_e
339 340 338 339 344 340 337 336 336 336 341 341 340 339 338 338 338 339 338 339 340 341 340 339 338 339 340 340 338 336 337 336 335 336 336 336 336 337 334 333 333 333 333
334 336 337 341 343 340 336 336 336 338 343 342 340 338 338 338 339 338 336 336 339 340 342 339 337 339 339 338 336 336 336 335 335 334 334 334 333 335 334 332 332 332 332
335 334 337 346 343 337 335 335 336 337 344 342 340 339 339 339 338 337 336 337 338 340 340 340 337 338 337 337 336 336 335 335 334 333 332 332 332 334 332 331 331 330 332
337 334 337 346 342 336 334 335 335 337 341 345 343 340 339 339 339 337 337 339 339 340 339 338 338 337 336 336 335 335 334 333 332 332 331 331 332 332 331 331 330 331 331
339 333 335 340 339 334 333 334 335 337 338 341 346 341 339 338 338 337 336 338 339 339 338 338 337 336 336 335 334 334 333 332 331 331 331 330 331 332 331 330 329 327 327
335 333 334 338 337 334 333 333 334 335 338 343 344 340 341 340 337 337 338 338 338 336 335 335 336 335 335 333 333 333 332 330 329 329 329 330 330 329 327 324 324 323 324
333 333 335 337 338 334 333 333 334 333 336 340 340 333 338 338 339 338 337 336 334 334 333 333 335 334 333 332 332 331 330 328 326 327 327 327 327 327 325 323 322 322 322
334 335 336 337 339 335 334 334 334 334 334 336 334 334 330 332 332 331 331 333 333 334 332 334 333 332 331 330 330 329 327 325 325 325 325 325 324 324 323 322 321 320 321
337 336 337 337 339 338 334 334 335 335 335 334 334 329 330 330 327 324 323 330 331 332 332 332 331 331 329 327 325 325 324 324 323 324 323 323 324 324 322 321 321 320 320
339 337 338 339 338 339 339 336 336 336 336 334 332 331 332 329 325 326 326 327 330 331 331 329 329 326 325 324 324 324 324 323 323 322 323 323 322 322 321 321 320 319 319
340 339 339 340 339 339 339 341 338 338 337 336 334 331 327 326 326 325 324 328 330 330 330 327 327 328 328 327 325 324 323 322 321 322 322 321 322 322 321 319 319 319 318
337 338 339 339 339 339 339 342 339 339 339 337 336 332 331 326 325 324 324 325 327 329 329 327 329 328 324 327 325 324 323 321 320 320 320 320 322 322 320 320 318 318 318
334 336 337 338 339 339 339 340 339 338 339 338 336 333 327 325 327 325 325 325 330 329 327 328 329 327 324 324 324 323 322 321 320 320 319 321 321 321 320 319 319 318 317
334 336 337 338 338 337 337 337 338 339 336 337 336 331 326 329 328 326 324 330 330 328 327 329 328 323 322 324 324 323 321 320 318 318 320 320 321 320 320 319 319 318 317
332 333 335 336 336 335 333 331 331 332 335 334 334 333 329 329 328 327 327 328 329 327 324 328 324 320 322 323 323 322 319 315 315 318 320 320 320 320 320 319 319 318 317
331 332 333 334 335 334 331 331 330 329 328 329 331 332 330 328 327 327 328 328 328 326 322 326 322 319 321 322 321 320 316 315 316 318 320 320 319 319 319 319 319 318 317
329 330 331 332 333 332 332 332 331 329 328 328 327 330 329 328 328 327 327 328 328 327 322 325 321 319 320 321 320 319 317 317 316 317 319 319 318 318 318 319 319 318 317
326 329 330 332 333 333 333 332 330 327 325 326 329 330 330 328 327 328 328 327 326 327 321 324 320 319 319 320 319 319 318 318 317 317 318 318 318 318 318 318 317 317 317
322 328 330 332 333 334 333 330 327 325 323 324 325 327 328 328 328 328 327 328 326 326 321 323 320 318 319 319 319 318 318 318 317 317 317 317 317 316 317 317 317 316 316
322 328 330 332 334 334 330 329 327 326 327 326 326 327 326 326 328 328 327 327 326 325 319 321 320 317 318 319 319 317 318 318 317 316 316 317 316 315 316 315 315 315 315
328 330 330 332 333 331 328 327 327 327 328 326 327 327 326 325 326 327 326 326 325 325 317 319 319 317 317 318 318 316 317 317 317 317 317 316 315 315 316 315 315 314 314
329 330 330 332 331 329 328 327 327 326 327 328 327 326 325 326 325 323 323 324 324 321 315 316 316 315 317 319 318 316 314 316 317 317 317 317 316 316 316 315 315 314 314
328 328 328 329 330 329 330 327 327 326 328 328 327 325 325 327 327 327 326 325 324 321 314 314 315 316 317 318 318 317 313 316 314 317 317 317 317 316 316 316 316 317 316
326 327 327 328 328 329 329 327 327 327 327 328 327 327 325 327 326 325 325 323 323 321 312 312 314 316 317 317 318 317 318 315 314 313 315 318 318 317 317 317 318 318 318
326 326 327 326 326 328 328 328 327 327 326 326 328 328 327 325 326 326 325 324 323 318 312 311 314 316 317 317 317 316 315 314 314 312 312 312 316 318 318 318 318 317 317
325 325 325 325 325 327 327 327 327 327 327 327 327 327 328 328 327 325 325 324 322 319 314 311 313 315 318 318 318 318 316 315 315 313 312 311 312 313 315 315 315 315 315

GFSSE_925_thetae_117.txt.gz
Theta_e
340 337 337 336 339 339 338 336 335 336 341 342 341 339 339 339 340 341 341 342 341 342 341 341 339 340 340 340 337 337 336 338 337 337 336 337 337 338 334 334 335 335 333
333 336 335 335 341 337 337 335 336 338 343 342 341 339 339 339 339 340 341 341 341 341 342 340 339 340 340 338 337 337 335 336 336 335 334 335 335 336 333 333 334 334 333
331 334 336 335 345 337 336 335 336 340 343 342 341 339 339 338 339 340 339 339 340 341 341 340 339 340 339 336 336 336 335 335 334 333 334 334 335 334 333 332 332 332 332
330 331 334 334 344 337 336 335 335 338 344 342 340 339 339 339 339 339 339 339 340 340 340 341 340 339 337 336 335 335 334 334 333 332 333 333 334 333 332 331 331 332 332
332 329 331 332 342 338 336 335 335 338 345 342 340 339 338 338 338 336 337 338 338 339 338 340 339 337 337 335 335 334 334 333 332 332 332 332 333 333 332 331 330 330 330
334 332 331 332 341 338 336 335 335 336 340 342 340 339 339 338 336 336 334 337 337 337 337 339 336 335 336 335 334 333 333 332 331 331 331 332 332 331 329 327 327 327 328
334 333 333 333 335 336 335 335 335 335 337 341 340 338 337 334 335 334 334 336 336 335 335 335 334 334 335 334 333 333 331 330 331 330 330 330 330 328 327 324 324 324 324
333 335 335 335 336 334 334 335 336 336 337 335 338 338 338 334 335 330 333 333 334 332 333 334 333 334 334 333 332 331 330 328 328 328 328 328 327 327 326 322 322 322 322
336 334 336 337 338 336 333 335 337 336 336 336 341 336 333 335 333 325 331 325 331 333 332 332 334 333 333 332 331 329 328 326 327 326 326 326 325 325 323 322 321 321 321
338 336 336 337 339 341 340 337 336 338 336 338 339 331 335 334 329 330 328 327 329 325 331 332 333 332 331 330 329 327 325 324 325 325 325 325 323 323 323 321 321 320 320
339 338 337 337 338 341 340 340 338 337 336 336 337 335 333 330 329 328 324 324 323 324 331 331 331 331 329 328 326 324 323 324 324 324 324 322 323 322 322 321 320 319 319
340 338 338 338 338 342 343 340 339 338 337 336 337 333 330 330 331 329 326 325 325 328 330 331 330 328 325 326 324 324 324 323 323 323 323 322 322 322 322 320 319 319 318
336 338 338 338 340 341 342 340 338 338 338 337 336 334 332 330 326 327 328 328 329 330 329 329 327 328 328 327 325 323 323 322 322 322 321 321 322 321 321 319 319 319 317
334 335 336 338 339 340 341 341 339 338 339 338 337 335 332 329 326 328 330 331 331 331 329 327 327 327 328 326 324 323 323 322 322 321 321 321 322 322 321 320 319 318 317
332 332 332 335 338 339 340 340 339 336 335 337 336 335 332 331 329 327 328 329 329 330 330 326 326 325 325 324 324 323 322 322 320 321 322 321 320 320 321 320 319 318 317
330 331 331 333 336 337 338 338 338 337 334 334 336 334 333 331 328 327 327 328 330 329 329 325 327 326 324 323 323 322 321 320 320 321 321 320 320 319 319 320 319 318 317
320 322 328 330 333 336 336 336 334 334 334 334 334 333 332 329 327 327 327 326 329 328 327 325 325 323 322 323 323 321 319 318 320 321 321 320 319 318 319 319 319 318 318
319 320 324 328 332 334 335 334 331 330 329 328 328 328 331 329 328 328 328 328 328 328 326 325 323 321 321 322 322 320 319 319 320 320 320 320 319 319 318 318 318 317 318
315 316 322 328 331 332 333 332 330 331 330 327 327 327 329 329 329 328 328 328 327 327 324 323 322 321 321 321 321 320 319 319 320 320 320 320 319 319 318 318 317 316 316
313 316 323 329 330 331 331 330 330 328 327 327 327 328 327 328 329 328 328 327 326 324 322 321 321 320 321 321 319 319 319 319 319 319 319 319 319 318 318 318 318 317 316
320 325 328 330 330 329 329 328 327 325 325 325 324 324 325 326 327 328 328 327 325 324 321 321 319 319 320 320 319 319 318 318 319 319 319 319 318 318 318 317 317 317 317
324 328 329 330 329 330 330 329 328 326 326 329 328 326 326 326 326 326 327 325 324 323 321 319 319 319 320 319 321 320 321 319 318 318 318 319 318 318 317 317 316 316 317
324 327 329 330 329 330 330 329 328 326 326 327 327 327 326 326 325 325 326 324 323 321 319 319 319 319 319 319 320 321 322 324 319 318 318 318 318 318 317 316 315 315 316
323 327 328 329 328 329 329 328 328 327 327 326 328 327 326 325 325 324 323 323 321 320 318 318 318 319 318 320 319 318 321 319 323 320 317 318 318 318 317 316 317 316 316
324 327 328 328 328 327 327 327 328 326 326 328 328 326 326 325 323 323 323 323 322 319 319 316 317 318 319 320 320 318 317 317 319 320 322 318 317 318 317 317 318 318 317
325 326 327 328 325 327 328 327 327 326 326 327 327 327 325 326 325 323 324 323 323 318 317 315 316 317 318 319 320 318 318 318 318 318 319 320 320 317 318 318 318 317 317

GFSSE_925_thetae_120.txt.gz
Theta_e
339 342 334 335 333 336 338 338 337 341 343 341 340 338 339 340 341 342 342 342 341 342 343 342 341 340 339 337 338 338 338 338 338 338 338 338 338 337 335 336 336 337 334
336 342 330 332 332 338 338 337 336 337 342 342 341 339 339 340 341 342 342 342 342 342 342 341 340 340 340 338 337 337 337 337 337 336 336 336 336 336 335 335 335 335 333
337 341 332 334 333 338 337 336 336 337 341 343 341 339 339 341 341 342 342 341 342 341 341 340 340 341 337 337 336 336 336 336 335 333 334 334 335 334 333 333 332 333 333
339 340 342 332 333 338 337 336 336 338 342 343 342 340 340 341 342 341 342 342 340 339 339 340 341 340 337 337 336 335 335 334 333 332 332 334 334 333 333 333 333 333 333
338 339 342 331 331 336 336 335 336 345 344 342 342 340 340 341 341 341 340 340 339 338 339 340 340 338 336 336 335 334 334 333 332 333 330 331 333 333 333 331 331 331 332
338 338 340 331 332 336 336 334 335 339 346 343 341 340 340 340 340 337 337 336 337 337 337 337 336 337 336 335 335 334 333 332 332 329 330 333 333 333 332 331 331 330 330
339 340 340 332 335 336 335 334 334 336 344 344 341 340 339 338 337 326 332 330 331 334 336 336 336 336 335 335 334 333 333 331 330 329 329 332 332 331 329 328 328 328 328
342 343 342 332 337 337 336 335 335 335 337 344 342 339 339 339 335 326 333 326 326 333 335 336 335 334 335 335 334 333 332 331 329 328 327 330 329 329 328 325 324 324 324
345 344 343 332 339 338 338 337 336 336 335 337 340 339 338 337 334 332 331 333 331 334 334 334 333 333 335 334 333 332 330 329 328 326 326 329 327 327 326 323 323 322 322
345 345 344 341 339 342 340 338 337 337 335 334 339 340 338 335 333 333 330 331 334 330 331 332 333 333 334 333 332 330 329 327 326 325 325 327 326 325 324 323 322 321 321
343 344 344 344 342 343 343 341 338 338 335 336 340 340 338 337 336 332 332 330 327 328 331 331 332 332 333 331 330 329 327 324 325 324 325 324 323 324 323 322 322 321 319
341 343 344 344 342 342 343 341 341 341 340 340 341 340 336 335 336 334 333 328 328 332 331 332 333 332 331 330 328 326 325 325 324 323 324 323 323 324 322 322 321 321 319
338 341 343 343 342 342 342 341 340 340 340 340 340 340 338 336 335 334 332 331 328 330 329 329 331 331 330 327 325 325 326 325 323 322 323 322 323 323 322 321 321 320 320
334 338 342 342 341 341 342 340 341 342 340 341 340 340 337 335 335 333 332 329 331 332 331 332 331 329 327 325 326 327 326 324 323 321 322 322 323 323 322 321 321 320 318
332 335 338 341 340 340 341 341 340 340 341 341 339 339 337 334 334 333 332 330 329 331 332 330 329 327 327 327 327 327 325 324 322 321 321 322 322 321 321 322 320 319 318
327 330 334 338 340 340 340 339 339 339 339 338 338 338 338 335 333 331 330 332 330 331 331 328 328 327 327 328 327 327 325 322 321 321 321 322 321 320 321 321 320 319 318
320 320 327 331 337 340 340 339 337 337 337 338 339 337 337 335 334 329 329 330 329 330 330 328 327 326 326 327 327 326 324 321 320 321 320 320 320 320 320 320 319 318 318
317 318 320 325 331 337 339 340 338 335 335 336 337 335 335 335 334 332 331 330 329 327 328 327 326 326 326 327 326 325 323 322 322 320 320 320 319 319 319 319 318 318 318
317 318 319 322 328 333 337 338 339 337 335 336 336 336 334 333 332 331 330 329 328 328 328 326 326 325 326 326 326 324 322 322 322 320 320 320 319 319 318 318 318 317 317
319 319 319 319 325 331 335 337 337 333 331 331 331 332 333 331 331 331 329 328 327 327 326 325 325 325 326 326 325 323 323 323 323 322 321 320 319 319 319 319 318 317 316
324 324 325 326 328 332 335 336 333 330 328 329 328 328 328 329 330 329 329 328 327 326 325 325 325 325 324 325 324 323 323 323 323 322 321 320 319 319 318 318 318 317 317
326 328 328 330 331 333 333 333 332 331 331 329 326 327 326 327 328 328 328 328 326 325 325 324 325 325 324 325 324 323 324 323 322 322 322 320 319 319 319 318 318 318 318
326 329 329 330 332 332 332 331 333 331 330 326 327 326 326 328 330 329 328 328 325 324 323 323 324 324 325 324 323 323 325 325 323 322 322 321 321 320 320 319 320 320 320
327 330 330 331 332 330 332 331 333 332 332 330 329 329 329 330 328 326 326 326 324 324 323 322 323 323 324 325 324 322 321 321 325 325 322 322 322 321 321 320 320 319 320
325 329 330 331 330 329 331 333 333 334 332 330 329 330 330 327 326 326 325 325 325 324 323 322 323 324 324 324 324 323 323 324 322 323 325 322 322 322 321 321 320 320 321
322 326 328 329 329 329 330 333 333 333 331 331 331 330 329 325 324 324 323 322 322 322 322 321 322 323 324 324 323 323 323 323 323 323 323 322 322 322 321 321 321 321 321

GFSSE_925_thetae_123.txt.gz
Theta_e
335 333 331 332 335 339 340 339 339 343 342 340 337 335 336 339 341 341 342 342 343 343 344 344 341 338 337 334 334 336 336 336 336 338 339 339 339 336 336 336 337 338 335
335 340 328 331 332 336 338 338 338 341 342 340 339 337 337 340 341 342 343 342 342 343 343 342 341 340 337 337 337 337 337 337 337 337 337 337 337 336 336 336 336 336 334
335 340 329 329 331 335 337 337 337 338 342 341 340 339 339 340 341 342 342 341 341 341 342 341 341 342 339 337 337 337 337 336 335 333 335 336 337 335 334 333 333 333 333
335 340 343 328 331 334 336 337 336 336 340 342 341 340 339 340 342 342 342 341 341 339 341 341 338 338 338 336 336 336 335 334 331 335 334 333 335 335 332 332 333 333 333
334 337 342 330 330 334 336 336 335 335 339 342 342 341 340 340 342 341 340 339 339 337 340 341 339 338 336 336 335 335 334 331 332 335 334 333 333 334 334 332 331 332 333
334 335 341 334 330 334 336 336 336 337 340 343 343 342 340 341 341 340 338 332 336 329 336 335 335 335 336 336 334 334 332 330 331 335 334 333 333 333 332 332 333 331 331
335 337 341 330 329 333 336 336 336 342 345 343 344 342 340 340 341 340 328 325 328 324 330 334 335 335 335 335 334 333 332 329 333 330 331 334 333 332 332 331 329 330 330
337 340 347 332 330 334 335 335 335 336 347 345 344 342 340 340 340 337 323 327 327 325 325 331 334 335 335 335 334 333 331 331 330 328 332 332 330 331 331 329 328 328 326
342 345 346 343 336 335 336 335 335 335 344 344 344 342 341 339 338 333 327 328 325 330 324 331 335 335 335 334 333 333 331 328 330 329 332 330 328 329 329 326 325 324 323
345 348 346 345 344 343 341 336 335 335 336 344 343 342 342 339 337 333 332 329 329 332 334 333 334 333 334 334 333 332 330 328 329 326 330 330 327 327 327 327 326 324 322
345 347 346 347 345 345 344 341 337 336 335 338 342 342 341 340 337 335 334 332 332 335 333 333 333 333 333 333 332 331 329 324 326 324 329 326 326 325 326 326 325 322 321
342 345 346 347 346 345 343 343 342 342 340 340 342 342 342 339 339 337 335 334 335 332 332 332 329 330 332 332 331 330 327 325 324 325 327 323 324 323 323 324 322 321 320
336 341 344 346 347 345 344 343 342 342 341 341 340 341 341 339 338 337 335 334 333 331 333 329 329 329 331 331 330 328 326 325 324 326 324 322 323 325 323 323 322 322 321
328 337 342 344 347 345 343 343 342 342 341 341 341 341 341 338 336 338 334 334 332 332 333 331 328 328 331 330 327 325 327 324 323 326 323 322 322 323 322 322 321 321 319
328 332 338 344 346 345 344 343 342 342 342 341 341 341 342 340 337 336 334 333 333 332 332 331 329 329 330 326 325 326 327 325 323 323 322 322 322 323 323 323 321 321 319
327 330 335 339 344 344 343 342 343 342 342 341 341 341 342 340 338 336 335 333 332 332 332 329 330 329 328 327 327 325 325 324 322 323 323 323 321 321 322 322 322 320 319
324 325 328 334 338 343 343 341 341 342 342 342 342 342 341 340 338 336 335 334 332 331 329 326 330 328 327 327 327 327 325 323 321 322 323 323 322 320 321 321 320 319 319
321 321 321 321 329 337 341 341 340 340 342 341 341 341 341 340 338 336 335 335 332 331 328 329 328 328 328 327 327 327 324 322 321 322 321 321 320 320 320 319 319 318 318
318 319 319 320 322 329 336 340 341 338 338 340 341 340 337 338 337 336 334 332 332 330 329 329 328 327 326 326 327 326 324 322 322 321 321 320 320 320 320 319 318 318 318
320 320 322 321 322 324 331 337 340 342 338 337 338 339 339 338 337 336 334 332 331 330 328 327 326 326 327 326 326 326 323 323 323 321 321 320 320 320 320 320 318 318 317
324 326 325 326 325 323 327 334 338 342 339 336 335 338 339 335 336 334 333 332 331 329 328 326 326 326 326 327 325 324 324 323 323 322 321 319 320 320 320 321 319 318 317
325 326 330 329 329 329 329 333 337 339 333 332 332 336 336 334 333 331 333 330 330 328 326 326 326 324 325 327 326 324 325 324 323 322 321 321 320 319 319 320 319 318 318
326 330 331 330 330 332 332 335 336 333 331 330 330 332 334 332 331 331 330 330 329 328 326 326 326 324 325 325 324 325 326 326 324 323 322 322 320 319 319 319 319 319 319
325 330 332 332 332 333 334 335 334 332 333 331 330 330 332 331 330 331 331 329 328 327 326 325 325 324 324 325 325 324 323 323 327 326 322 322 321 320 320 319 319 320 321
324 326 330 333 333 333 333 335 333 333 333 333 334 331 331 330 331 332 331 329 328 327 326 325 325 325 324 325 325 325 324 324 324 325 326 323 322 321 321 321 320 322 321
324 326 326 329 331 330 331 332 332 333 335 335 334 332 332 332 331 331 330 328 327 326 325 324 325 323 323 325 325 325 325 325 325 326 326 325 323 322 321 321 322 322 322